Wetterdaten: Dienstag, 13.02.2018
Datum Zeit Temp. A. Feuchte A. Luftdruck Regen Wind Richtung Richtung Taupunkt Windben Empfang
13.02.2018 00:00 -3,1 C 94 % 1015,7 hPa 0,0 l/m 0,0 km/h (0 Bft) W-NW 293 -3,9 C 0,0 km/h (0 Bft) 100 %
13.02.2018 00:01 -3,1 C 94 % 1015,8 hPa 0,0 l/m 0,0 km/h (0 Bft) W-NW 293 -3,9 C 0,0 km/h (0 Bft) 100 %
13.02.2018 00:02 -3,1 C 94 % 1015,8 hPa 0,0 l/m 0,0 km/h (0 Bft) W-NW 293 -3,9 C 0,0 km/h (0 Bft) 100 %
13.02.2018 00:03 -3,2 C 94 % 1015,8 hPa 0,0 l/m 0,0 km/h (0 Bft) W-NW 293 -4,0 C 0,0 km/h (0 Bft) 100 %
13.02.2018 00:04 -3,2 C 94 % 1015,8 hPa 0,0 l/m 0,0 km/h (0 Bft) W-NW 293 -4,0 C 0,0 km/h (0 Bft) 100 %
13.02.2018 00:05 -3,2 C 94 % 1015,8 hPa 0,0 l/m 0,0 km/h (0 Bft) W-NW 293 -4,0 C 0,0 km/h (0 Bft) 100 %
13.02.2018 00:06 -3,2 C 94 % 1015,8 hPa 0,0 l/m 0,0 km/h (0 Bft) W-NW 293 -4,0 C 0,0 km/h (0 Bft) 100 %
13.02.2018 00:07 -3,3 C 94 % 1015,8 hPa 0,0 l/m 0,0 km/h (0 Bft) W-NW 293 -4,1 C 0,0 km/h (0 Bft) 100 %
13.02.2018 00:08 -3,3 C 94 % 1015,9 hPa 0,0 l/m 0,0 km/h (0 Bft) W-NW 293 -4,1 C 0,0 km/h (0 Bft) 100 %
13.02.2018 00:09 -3,2 C 95 % 1015,8 hPa 0,0 l/m 0,0 km/h (0 Bft) W-NW 293 -3,9 C 0,0 km/h (0 Bft) 100 %
13.02.2018 00:10 -3,2 C 95 % 1015,9 hPa 0,0 l/m 0,0 km/h (0 Bft) W-NW 293 -3,9 C 0,0 km/h (0 Bft) 100 %
13.02.2018 00:11 -3,2 C 95 % 1015,8 hPa 0,0 l/m 0,0 km/h (0 Bft) W-NW 293 -3,9 C 0,0 km/h (0 Bft) 100 %
13.02.2018 00:12 -3,2 C 95 % 1015,8 hPa 0,0 l/m 0,1 km/h (0 Bft) W-NW 293 -3,9 C 3,1 km/h (1 Bft) 100 %
13.02.2018 00:13 -3,2 C 95 % 1015,9 hPa 0,0 l/m 0,0 km/h (0 Bft) W-NW 293 -3,9 C 0,0 km/h (0 Bft) 100 %
13.02.2018 00:14 -3,2 C 95 % 1015,9 hPa 0,0 l/m 0,0 km/h (0 Bft) W-NW 293 -3,9 C 0,0 km/h (0 Bft) 100 %
13.02.2018 00:15 -3,1 C 95 % 1015,9 hPa 0,0 l/m 0,0 km/h (0 Bft) W-NW 293 -3,8 C 0,0 km/h (0 Bft) 96 %
13.02.2018 00:16 -3,1 C 95 % 1015,9 hPa 0,0 l/m 0,0 km/h (0 Bft) W-NW 293 -3,8 C 0,0 km/h (0 Bft) 100 %
13.02.2018 00:17 -3,1 C 95 % 1015,9 hPa 0,0 l/m 0,0 km/h (0 Bft) W-NW 293 -3,8 C 0,0 km/h (0 Bft) 96 %
13.02.2018 00:18 -3,1 C 95 % 1015,9 hPa 0,0 l/m 0,0 km/h (0 Bft) W-NW 293 -3,8 C 0,0 km/h (0 Bft) 100 %
13.02.2018 00:19 -3,1 C 95 % 1015,9 hPa 0,0 l/m 0,0 km/h (0 Bft) W-NW 293 -3,8 C 0,0 km/h (0 Bft) 96 %
13.02.2018 00:20 -3,1 C 95 % 1015,9 hPa 0,0 l/m 0,0 km/h (0 Bft) W-NW 293 -3,8 C 0,0 km/h (0 Bft) 100 %
13.02.2018 00:21 -3,1 C 95 % 1015,9 hPa 0,0 l/m 0,0 km/h (0 Bft) W-NW 293 -3,8 C 0,0 km/h (0 Bft) 96 %
13.02.2018 00:22 -3,1 C 95 % 1015,9 hPa 0,0 l/m 0,0 km/h (0 Bft) W-NW 293 -3,8 C 0,0 km/h (0 Bft) 96 %
13.02.2018 00:23 -3,1 C 95 % 1015,8 hPa 0,0 l/m 0,0 km/h (0 Bft) W-NW 293 -3,8 C 0,0 km/h (0 Bft) 100 %
13.02.2018 00:24 -3,1 C 95 % 1015,8 hPa 0,0 l/m 0,0 km/h (0 Bft) W-NW 293 -3,8 C 0,0 km/h (0 Bft) 96 %
13.02.2018 00:25 -3,1 C 95 % 1015,9 hPa 0,0 l/m 0,0 km/h (0 Bft) W-NW 293 -3,8 C 0,0 km/h (0 Bft) 100 %
13.02.2018 00:26 -3,1 C 95 % 1015,9 hPa 0,0 l/m 0,0 km/h (0 Bft) W-NW 293 -3,8 C 0,0 km/h (0 Bft) 96 %
13.02.2018 00:27 -3,1 C 95 % 1015,9 hPa 0,0 l/m 0,0 km/h (0 Bft) W-NW 293 -3,8 C 0,0 km/h (0 Bft) 100 %
13.02.2018 00:28 -3,1 C 95 % 1015,8 hPa 0,0 l/m 0,0 km/h (0 Bft) W-NW 293 -3,8 C 0,0 km/h (0 Bft) 96 %
13.02.2018 00:29 -3,1 C 95 % 1015,8 hPa 0,0 l/m 0,0 km/h (0 Bft) W-NW 293 -3,8 C 0,0 km/h (0 Bft) 100 %
13.02.2018 00:30 -3,1 C 95 % 1015,8 hPa 0,0 l/m 0,0 km/h (0 Bft) W-NW 293 -3,8 C 0,0 km/h (0 Bft) 96 %
13.02.2018 00:31 -3,1 C 95 % 1015,8 hPa 0,0 l/m 0,0 km/h (0 Bft) W-NW 293 -3,8 C 0,0 km/h (0 Bft) 96 %
13.02.2018 00:32 -3,2 C 95 % 1015,9 hPa 0,0 l/m 0,0 km/h (0 Bft) W-NW 293 -3,9 C 0,0 km/h (0 Bft) 100 %
13.02.2018 00:33 -3,1 C 95 % 1015,9 hPa 0,0 l/m 0,1 km/h (0 Bft) W-NW 293 -3,8 C 3,1 km/h (1 Bft) 96 %
13.02.2018 00:34 -3,1 C 95 % 1015,8 hPa 0,0 l/m 0,0 km/h (0 Bft) W-NW 293 -3,8 C 0,0 km/h (0 Bft) 100 %
13.02.2018 00:35 -3,1 C 95 % 1015,8 hPa 0,0 l/m 0,0 km/h (0 Bft) W-NW 293 -3,8 C 0,0 km/h (0 Bft) 96 %
13.02.2018 00:36 -3,1 C 95 % 1015,8 hPa 0,0 l/m 0,0 km/h (0 Bft) SW 224 -3,8 C 0,0 km/h (0 Bft) 100 %
13.02.2018 00:37 -3,1 C 95 % 1015,8 hPa 0,0 l/m 0,0 km/h (0 Bft) SW 229 -3,8 C 0,0 km/h (0 Bft) 96 %
13.02.2018 00:38 -3,1 C 95 % 1015,8 hPa 0,0 l/m 0,0 km/h (0 Bft) SW 229 -3,8 C 0,0 km/h (0 Bft) 100 %
13.02.2018 00:39 -3,1 C 95 % 1015,8 hPa 0,0 l/m 0,0 km/h (0 Bft) SW 229 -3,8 C 0,0 km/h (0 Bft) 96 %
13.02.2018 00:40 -3,1 C 95 % 1015,9 hPa 0,0 l/m 0,0 km/h (0 Bft) SW 229 -3,8 C 0,0 km/h (0 Bft) 100 %
13.02.2018 00:41 -3,0 C 95 % 1015,8 hPa 0,0 l/m 0,0 km/h (0 Bft) SW 229 -3,7 C 0,0 km/h (0 Bft) 100 %
13.02.2018 00:42 -3,0 C 95 % 1015,8 hPa 0,0 l/m 0,5 km/h (0 Bft) SW 222 -3,7 C 3,1 km/h (1 Bft) 96 %
13.02.2018 00:43 -3,0 C 95 % 1015,8 hPa 0,0 l/m 0,0 km/h (0 Bft) SW 222 -3,7 C 0,0 km/h (0 Bft) 100 %
13.02.2018 00:44 -2,9 C 96 % 1015,8 hPa 0,0 l/m 0,1 km/h (0 Bft) SW 222 -3,4 C 3,1 km/h (1 Bft) 100 %
13.02.2018 00:45 -2,9 C 95 % 1015,8 hPa 0,0 l/m 0,0 km/h (0 Bft) SW 222 -3,6 C 0,0 km/h (0 Bft) 100 %
13.02.2018 00:46 -2,9 C 95 % 1015,8 hPa 0,0 l/m 0,0 km/h (0 Bft) SW 222 -3,6 C 0,0 km/h (0 Bft) 100 %
13.02.2018 00:47 -2,9 C 95 % 1015,8 hPa 0,0 l/m 0,0 km/h (0 Bft) SW 222 -3,6 C 0,0 km/h (0 Bft) 100 %
13.02.2018 00:48 -2,9 C 95 % 1015,8 hPa 0,0 l/m 0,0 km/h (0 Bft) SW 222 -3,6 C 0,0 km/h (0 Bft) 100 %
13.02.2018 00:49 -2,9 C 95 % 1015,8 hPa 0,0 l/m 0,0 km/h (0 Bft) SW 222 -3,6 C 0,0 km/h (0 Bft) 100 %
13.02.2018 00:50 -2,9 C 95 % 1015,8 hPa 0,0 l/m 0,0 km/h (0 Bft) SW 222 -3,6 C 0,0 km/h (0 Bft) 100 %
13.02.2018 00:51 -2,9 C 95 % 1015,8 hPa 0,0 l/m 0,0 km/h (0 Bft) SW 222 -3,6 C 0,0 km/h (0 Bft) 100 %
13.02.2018 00:52 -2,9 C 95 % 1015,8 hPa 0,0 l/m 0,0 km/h (0 Bft) SW 222 -3,6 C 0,0 km/h (0 Bft) 100 %
13.02.2018 00:53 -2,9 C 95 % 1015,8 hPa 0,0 l/m 0,0 km/h (0 Bft) SW 228 -3,6 C 0,0 km/h (0 Bft) 100 %
13.02.2018 00:54 -2,9 C 95 % 1015,8 hPa 0,0 l/m 0,3 km/h (0 Bft) SW 225 -3,6 C 3,1 km/h (1 Bft) 100 %
13.02.2018 00:55 -2,9 C 95 % 1015,8 hPa 0,0 l/m 0,0 km/h (0 Bft) SW 225 -3,6 C 0,0 km/h (0 Bft) 100 %
13.02.2018 00:56 -2,9 C 95 % 1015,8 hPa 0,0 l/m 0,0 km/h (0 Bft) SW 225 -3,6 C 0,0 km/h (0 Bft) 100 %
13.02.2018 00:57 -2,9 C 95 % 1015,8 hPa 0,0 l/m 2,0 km/h (1 Bft) SW 214 -3,6 C 6,3 km/h (2 Bft) 100 %
13.02.2018 00:58 -2,8 C 96 % 1015,8 hPa 0,0 l/m 0,0 km/h (0 Bft) NW 307 -3,3 C 0,0 km/h (0 Bft) 100 %
13.02.2018 00:59 -2,8 C 96 % 1015,8 hPa 0,0 l/m 0,0 km/h (0 Bft) NW 307 -3,3 C 0,0 km/h (0 Bft) 100 %
13.02.2018 01:00 -2,8 C 96 % 1015,8 hPa 0,0 l/m 0,0 km/h (0 Bft) NW 305 -3,3 C 0,0 km/h (0 Bft) 100 %
13.02.2018 01:01 -2,8 C 95 % 1015,9 hPa 0,0 l/m 0,0 km/h (0 Bft) NW 305 -3,5 C 0,0 km/h (0 Bft) 100 %
13.02.2018 01:02 -2,8 C 95 % 1015,8 hPa 0,0 l/m 0,0 km/h (0 Bft) NW 305 -3,5 C 0,0 km/h (0 Bft) 100 %
13.02.2018 01:03 -2,8 C 95 % 1015,8 hPa 0,0 l/m 0,0 km/h (0 Bft) NW 306 -3,5 C 0,0 km/h (0 Bft) 100 %
13.02.2018 01:04 -2,8 C 95 % 1015,8 hPa 0,0 l/m 0,0 km/h (0 Bft) NW 306 -3,5 C 0,0 km/h (0 Bft) 100 %
13.02.2018 01:05 -2,8 C 95 % 1015,8 hPa 0,0 l/m 0,0 km/h (0 Bft) NW 306 -3,5 C 0,0 km/h (0 Bft) 100 %
13.02.2018 01:06 -2,8 C 95 % 1015,8 hPa 0,0 l/m 0,5 km/h (0 Bft) N-NW 332 -3,5 C 3,1 km/h (1 Bft) 100 %
13.02.2018 01:07 -2,8 C 95 % 1015,8 hPa 0,0 l/m 0,3 km/h (0 Bft) N 6 -3,5 C 3,1 km/h (1 Bft) 100 %
13.02.2018 01:08 -2,8 C 95 % 1015,8 hPa 0,0 l/m 0,1 km/h (0 Bft) W-SW 242 -3,5 C 3,1 km/h (1 Bft) 100 %
13.02.2018 01:09 -2,8 C 95 % 1015,8 hPa 0,0 l/m 0,0 km/h (0 Bft) S-SO 160 -3,5 C 0,0 km/h (0 Bft) 100 %
13.02.2018 01:10 -2,8 C 95 % 1015,8 hPa 0,0 l/m 0,0 km/h (0 Bft) S-SO 160 -3,5 C 0,0 km/h (0 Bft) 100 %
13.02.2018 01:11 -2,8 C 95 % 1015,8 hPa 0,0 l/m 0,0 km/h (0 Bft) S-SO 160 -3,5 C 0,0 km/h (0 Bft) 100 %
13.02.2018 01:12 -2,8 C 95 % 1015,8 hPa 0,0 l/m 0,0 km/h (0 Bft) S-SO 160 -3,5 C 0,0 km/h (0 Bft) 100 %
13.02.2018 01:13 -2,8 C 95 % 1015,8 hPa 0,0 l/m 0,0 km/h (0 Bft) S-SO 160 -3,5 C 0,0 km/h (0 Bft) 100 %
13.02.2018 01:14 -2,8 C 95 % 1015,8 hPa 0,0 l/m 0,0 km/h (0 Bft) S-SO 160 -3,5 C 0,0 km/h (0 Bft) 100 %
13.02.2018 01:15 -2,8 C 95 % 1015,8 hPa 0,0 l/m 0,0 km/h (0 Bft) S-SO 160 -3,5 C 0,0 km/h (0 Bft) 100 %
13.02.2018 01:16 -2,8 C 95 % 1015,8 hPa 0,0 l/m 0,0 km/h (0 Bft) S-SO 156 -3,5 C 0,0 km/h (0 Bft) 100 %
13.02.2018 01:17 -2,8 C 95 % 1015,8 hPa 0,0 l/m 0,0 km/h (0 Bft) S-SO 156 -3,5 C 0,0 km/h (0 Bft) 100 %
13.02.2018 01:18 -2,8 C 95 % 1015,8 hPa 0,0 l/m 1,6 km/h (1 Bft) W-SW 237 -3,5 C 9,4 km/h (2 Bft) 100 %
13.02.2018 01:19 -2,8 C 95 % 1015,8 hPa 0,0 l/m 2,5 km/h (1 Bft) NW 314 -3,5 C 6,3 km/h (2 Bft) 100 %
13.02.2018 01:20 -2,8 C 95 % 1015,8 hPa 0,0 l/m 0,0 km/h (0 Bft) SW 219 -3,5 C 0,0 km/h (0 Bft) 100 %
13.02.2018 01:21 -2,7 C 95 % 1015,8 hPa 0,0 l/m 2,6 km/h (1 Bft) W 274 -3,4 C 6,3 km/h (2 Bft) 99 %
13.02.2018 01:22 -2,7 C 95 % 1015,8 hPa 0,0 l/m 0,5 km/h (0 Bft) SW 233 -3,4 C 3,1 km/h (1 Bft) 100 %
13.02.2018 01:23 -2,7 C 95 % 1015,8 hPa 0,0 l/m 1,4 km/h (1 Bft) W-SW 247 -3,4 C 6,3 km/h (2 Bft) 100 %
13.02.2018 01:24 -2,7 C 95 % 1015,8 hPa 0,0 l/m 0,6 km/h (0 Bft) SO 136 -3,4 C 3,1 km/h (1 Bft) 100 %
13.02.2018 01:25 -2,7 C 95 % 1015,8 hPa 0,0 l/m 0,8 km/h (0 Bft) SW 222 -3,4 C 3,1 km/h (1 Bft) 100 %
13.02.2018 01:26 -2,7 C 95 % 1015,8 hPa 0,0 l/m 0,0 km/h (0 Bft) SW 222 -3,4 C 0,0 km/h (0 Bft) 100 %
13.02.2018 01:27 -2,7 C 95 % 1015,8 hPa 0,0 l/m 0,0 km/h (0 Bft) SW 222 -3,4 C 0,0 km/h (0 Bft) 100 %
13.02.2018 01:28 -2,7 C 95 % 1015,7 hPa 0,0 l/m 1,8 km/h (1 Bft) SW 224 -3,4 C 6,3 km/h (2 Bft) 100 %
13.02.2018 01:29 -2,6 C 95 % 1015,8 hPa 0,0 l/m 4,9 km/h (1 Bft) SW 230 -3,3 C 9,4 km/h (2 Bft) 100 %
13.02.2018 01:30 -2,6 C 95 % 1015,8 hPa 0,0 l/m 0,0 km/h (0 Bft) SW 229 -3,3 C 0,0 km/h (0 Bft) 100 %
13.02.2018 01:31 -2,6 C 95 % 1015,8 hPa 0,0 l/m 0,4 km/h (0 Bft) S 186 -3,3 C 3,1 km/h (1 Bft) 100 %
13.02.2018 01:32 -2,6 C 95 % 1015,8 hPa 0,0 l/m 0,0 km/h (0 Bft) SW 218 -3,3 C 0,0 km/h (0 Bft) 100 %
13.02.2018 01:33 -2,6 C 95 % 1015,8 hPa 0,0 l/m 0,0 km/h (0 Bft) SW 218 -3,3 C 0,0 km/h (0 Bft) 100 %
13.02.2018 01:34 -2,6 C 95 % 1015,7 hPa 0,0 l/m 0,0 km/h (0 Bft) SW 218 -3,3 C 0,0 km/h (0 Bft) 100 %
13.02.2018 01:35 -2,6 C 95 % 1015,8 hPa 0,0 l/m 0,0 km/h (0 Bft) SW 217 -3,3 C 0,0 km/h (0 Bft) 96 %
13.02.2018 01:36 -2,7 C 95 % 1015,8 hPa 0,0 l/m 0,0 km/h (0 Bft) W-SW 240 -3,4 C 0,0 km/h (0 Bft) 100 %
13.02.2018 01:37 -2,7 C 95 % 1015,8 hPa 0,0 l/m 0,0 km/h (0 Bft) W-SW 240 -3,4 C 0,0 km/h (0 Bft) 100 %
13.02.2018 01:38 -2,7 C 95 % 1015,8 hPa 0,0 l/m 0,1 km/h (0 Bft) SW 214 -3,4 C 3,1 km/h (1 Bft) 100 %
13.02.2018 01:39 -2,7 C 95 % 1015,8 hPa 0,0 l/m 0,0 km/h (0 Bft) SW 214 -3,4 C 0,0 km/h (0 Bft) 100 %
13.02.2018 01:40 -2,7 C 95 % 1015,8 hPa 0,0 l/m 0,0 km/h (0 Bft) SW 214 -3,4 C 0,0 km/h (0 Bft) 100 %
13.02.2018 01:41 -2,7 C 95 % 1015,8 hPa 0,0 l/m 0,2 km/h (0 Bft) W-SW 250 -3,4 C 3,1 km/h (1 Bft) 100 %
13.02.2018 01:42 -2,7 C 95 % 1015,8 hPa 0,0 l/m 0,0 km/h (0 Bft) W-SW 258 -3,4 C 0,0 km/h (0 Bft) 100 %
13.02.2018 01:43 -2,7 C 95 % 1015,8 hPa 0,0 l/m 0,0 km/h (0 Bft) W 259 -3,4 C 0,0 km/h (0 Bft) 100 %
13.02.2018 01:44 -2,7 C 95 % 1015,8 hPa 0,0 l/m 0,0 km/h (0 Bft) SW 221 -3,4 C 0,0 km/h (0 Bft) 100 %
13.02.2018 01:45 -2,7 C 95 % 1015,8 hPa 0,0 l/m 0,5 km/h (0 Bft) W-SW 240 -3,4 C 3,1 km/h (1 Bft) 100 %
13.02.2018 01:46 -2,7 C 95 % 1015,8 hPa 0,0 l/m 0,2 km/h (0 Bft) W-SW 240 -3,4 C 3,1 km/h (1 Bft) 100 %
13.02.2018 01:47 -2,7 C 95 % 1015,8 hPa 0,0 l/m 0,0 km/h (0 Bft) W-SW 240 -3,4 C 0,0 km/h (0 Bft) 100 %
13.02.2018 01:48 -2,7 C 95 % 1015,8 hPa 0,0 l/m 0,0 km/h (0 Bft) W-SW 240 -3,4 C 0,0 km/h (0 Bft) 100 %
13.02.2018 01:49 -2,7 C 95 % 1015,8 hPa 0,0 l/m 0,3 km/h (0 Bft) SW 229 -3,4 C 3,1 km/h (1 Bft) 100 %
13.02.2018 01:50 -2,7 C 95 % 1015,7 hPa 0,0 l/m 0,1 km/h (0 Bft) S-SW 210 -3,4 C 3,1 km/h (1 Bft) 100 %
13.02.2018 01:51 -2,7 C 95 % 1015,7 hPa 0,0 l/m 0,0 km/h (0 Bft) S-SW 210 -3,4 C 0,0 km/h (0 Bft) 100 %
13.02.2018 01:52 -2,7 C 95 % 1015,8 hPa 0,0 l/m 0,0 km/h (0 Bft) S-SW 210 -3,4 C 0,0 km/h (0 Bft) 100 %
13.02.2018 01:53 -2,7 C 95 % 1015,8 hPa 0,0 l/m 0,7 km/h (0 Bft) S 191 -3,4 C 3,1 km/h (1 Bft) 100 %
13.02.2018 01:54 -2,7 C 95 % 1015,7 hPa 0,0 l/m 0,0 km/h (0 Bft) S-SW 194 -3,4 C 0,0 km/h (0 Bft) 100 %
13.02.2018 01:55 -2,7 C 95 % 1015,7 hPa 0,0 l/m 0,3 km/h (0 Bft) SW 217 -3,4 C 3,1 km/h (1 Bft) 100 %
13.02.2018 01:56 -2,7 C 95 % 1015,8 hPa 0,0 l/m 0,1 km/h (0 Bft) SW 219 -3,4 C 3,1 km/h (1 Bft) 100 %
13.02.2018 01:57 -2,7 C 95 % 1015,7 hPa 0,0 l/m 1,8 km/h (1 Bft) W 274 -3,4 C 6,3 km/h (2 Bft) 100 %
13.02.2018 01:58 -2,6 C 95 % 1015,7 hPa 0,0 l/m 0,1 km/h (0 Bft) W-SW 243 -3,3 C 3,1 km/h (1 Bft) 100 %
13.02.2018 01:59 -2,6 C 95 % 1015,7 hPa 0,0 l/m 0,8 km/h (0 Bft) W-SW 243 -3,3 C 3,1 km/h (1 Bft) 100 %
13.02.2018 02:00 -2,6 C 95 % 1015,7 hPa 0,0 l/m 3,8 km/h (1 Bft) SW 223 -3,3 C 9,4 km/h (2 Bft) 100 %
13.02.2018 02:01 -2,6 C 95 % 1015,7 hPa 0,0 l/m 0,7 km/h (0 Bft) S-SW 208 -3,3 C 3,1 km/h (1 Bft) 100 %
13.02.2018 02:02 -2,5 C 95 % 1015,7 hPa 0,0 l/m 4,0 km/h (1 Bft) SW 215 -3,2 C 18,8 km/h (3 Bft) 100 %
13.02.2018 02:03 -2,4 C 95 % 1015,7 hPa 0,0 l/m 0,3 km/h (0 Bft) SW 217 -3,1 C 3,1 km/h (1 Bft) 100 %
13.02.2018 02:04 -2,4 C 95 % 1015,7 hPa 0,0 l/m 1,2 km/h (1 Bft) W-SW 240 -3,1 C 6,3 km/h (2 Bft) 100 %
13.02.2018 02:05 -2,4 C 95 % 1015,7 hPa 0,0 l/m 0,9 km/h (0 Bft) SW 214 -3,1 C 3,1 km/h (1 Bft) 100 %
13.02.2018 02:06 -2,4 C 95 % 1015,7 hPa 0,0 l/m 1,7 km/h (1 Bft) SW 218 -3,1 C 6,3 km/h (2 Bft) 100 %
13.02.2018 02:07 -2,4 C 95 % 1015,7 hPa 0,0 l/m 2,4 km/h (1 Bft) W-SW 255 -3,1 C 6,3 km/h (2 Bft) 100 %
13.02.2018 02:08 -2,4 C 95 % 1015,7 hPa 0,0 l/m 4,1 km/h (1 Bft) W 278 -3,1 C 9,4 km/h (2 Bft) 100 %
13.02.2018 02:09 -2,3 C 94 % 1015,7 hPa 0,0 l/m 2,4 km/h (1 Bft) W-SW 237 -3,1 C 6,3 km/h (2 Bft) 100 %
13.02.2018 02:10 -2,3 C 94 % 1015,7 hPa 0,0 l/m 0,5 km/h (0 Bft) SW 231 -3,1 C 3,1 km/h (1 Bft) 96 %
13.02.2018 02:11 -2,3 C 94 % 1015,7 hPa 0,0 l/m 0,4 km/h (0 Bft) W-SW 250 -3,1 C 6,3 km/h (2 Bft) 100 %
13.02.2018 02:12 -2,3 C 94 % 1015,7 hPa 0,0 l/m 2,5 km/h (1 Bft) SW 226 -3,1 C 6,3 km/h (2 Bft) 96 %
13.02.2018 02:13 -2,3 C 94 % 1015,6 hPa 0,0 l/m 0,1 km/h (0 Bft) SW 215 -3,1 C 3,1 km/h (1 Bft) 100 %
13.02.2018 02:14 -2,3 C 94 % 1015,7 hPa 0,0 l/m 0,5 km/h (0 Bft) W-SW 242 -3,1 C 3,1 km/h (1 Bft) 96 %
13.02.2018 02:15 -2,3 C 94 % 1015,7 hPa 0,0 l/m 0,0 km/h (0 Bft) SW 229 -3,1 C 0,0 km/h (0 Bft) 99 %
13.02.2018 02:16 -2,3 C 94 % 1015,7 hPa 0,0 l/m 0,4 km/h (0 Bft) SW 215 -3,1 C 3,1 km/h (1 Bft) 96 %
13.02.2018 02:17 -2,3 C 94 % 1015,7 hPa 0,0 l/m 0,8 km/h (0 Bft) NW 306 -3,1 C 3,1 km/h (1 Bft) 100 %
13.02.2018 02:18 -2,4 C 94 % 1015,6 hPa 0,0 l/m 0,0 km/h (0 Bft) NW 306 -3,2 C 0,0 km/h (0 Bft) 96 %
13.02.2018 02:19 -2,4 C 94 % 1015,6 hPa 0,0 l/m 0,0 km/h (0 Bft) NW 306 -3,2 C 0,0 km/h (0 Bft) 96 %
13.02.2018 02:20 -2,4 C 94 % 1015,6 hPa 0,0 l/m 0,8 km/h (0 Bft) S-SW 198 -3,2 C 6,3 km/h (2 Bft) 100 %
13.02.2018 02:21 -2,4 C 94 % 1015,6 hPa 0,0 l/m 0,5 km/h (0 Bft) SW 220 -3,2 C 3,1 km/h (1 Bft) 96 %
13.02.2018 02:22 -2,4 C 94 % 1015,7 hPa 0,0 l/m 0,0 km/h (0 Bft) SW 220 -3,2 C 0,0 km/h (0 Bft) 100 %
13.02.2018 02:23 -2,4 C 94 % 1015,7 hPa 0,0 l/m 1,4 km/h (1 Bft) SW 231 -3,2 C 9,4 km/h (2 Bft) 96 %
13.02.2018 02:24 -2,4 C 94 % 1015,7 hPa 0,0 l/m 0,8 km/h (0 Bft) SW 221 -3,2 C 3,1 km/h (1 Bft) 100 %
13.02.2018 02:25 -2,4 C 94 % 1015,7 hPa 0,0 l/m 0,0 km/h (0 Bft) SW 221 -3,2 C 0,0 km/h (0 Bft) 96 %
13.02.2018 02:26 -2,4 C 94 % 1015,7 hPa 0,0 l/m 0,0 km/h (0 Bft) SW 221 -3,2 C 0,0 km/h (0 Bft) 96 %
13.02.2018 02:27 -2,4 C 94 % 1015,6 hPa 0,0 l/m 0,0 km/h (0 Bft) SW 221 -3,2 C 0,0 km/h (0 Bft) 100 %
13.02.2018 02:28 -2,5 C 93 % 1015,6 hPa 0,0 l/m 0,0 km/h (0 Bft) SW 221 -3,5 C 0,0 km/h (0 Bft) 96 %
13.02.2018 02:29 -2,5 C 93 % 1015,7 hPa 0,0 l/m 0,0 km/h (0 Bft) SW 221 -3,5 C 0,0 km/h (0 Bft) 100 %
13.02.2018 02:30 -2,6 C 94 % 1015,7 hPa 0,0 l/m 0,3 km/h (0 Bft) SW 218 -3,4 C 3,1 km/h (1 Bft) 96 %
13.02.2018 02:31 -2,6 C 94 % 1015,6 hPa 0,0 l/m 0,3 km/h (0 Bft) SW 224 -3,4 C 3,1 km/h (1 Bft) 100 %
13.02.2018 02:32 -2,6 C 94 % 1015,6 hPa 0,0 l/m 0,0 km/h (0 Bft) SW 224 -3,4 C 0,0 km/h (0 Bft) 100 %
13.02.2018 02:33 -2,6 C 94 % 1015,7 hPa 0,0 l/m 0,1 km/h (0 Bft) W-NW 292 -3,4 C 3,1 km/h (1 Bft) 92 %
13.02.2018 02:34 -2,6 C 94 % 1015,7 hPa 0,0 l/m 0,0 km/h (0 Bft) W-SW 246 -3,4 C 0,0 km/h (0 Bft) 100 %
13.02.2018 02:35 -2,6 C 94 % 1015,7 hPa 0,0 l/m 0,8 km/h (0 Bft) SW 216 -3,4 C 3,1 km/h (1 Bft) 100 %
13.02.2018 02:36 -2,5 C 94 % 1015,7 hPa 0,0 l/m 1,6 km/h (1 Bft) W-SW 240 -3,3 C 6,3 km/h (2 Bft) 100 %
13.02.2018 02:37 -2,5 C 94 % 1015,7 hPa 0,0 l/m 0,1 km/h (0 Bft) S-SW 199 -3,3 C 3,1 km/h (1 Bft) 96 %
13.02.2018 02:38 -2,5 C 94 % 1015,7 hPa 0,0 l/m 0,7 km/h (0 Bft) W-SW 238 -3,3 C 3,1 km/h (1 Bft) 100 %
13.02.2018 02:39 -2,5 C 94 % 1015,7 hPa 0,0 l/m 0,1 km/h (0 Bft) S-SW 200 -3,3 C 3,1 km/h (1 Bft) 96 %
13.02.2018 02:40 -2,5 C 94 % 1015,7 hPa 0,0 l/m 1,2 km/h (1 Bft) W-NW 288 -3,3 C 6,3 km/h (2 Bft) 100 %
13.02.2018 02:41 -2,5 C 94 % 1015,7 hPa 0,0 l/m 0,5 km/h (0 Bft) W-SW 240 -3,3 C 3,1 km/h (1 Bft) 100 %
13.02.2018 02:42 -2,5 C 94 % 1015,7 hPa 0,0 l/m 2,1 km/h (1 Bft) S-SW 202 -3,3 C 9,4 km/h (2 Bft) 100 %
13.02.2018 02:43 -2,4 C 94 % 1015,7 hPa 0,0 l/m 1,8 km/h (1 Bft) SW 233 -3,2 C 6,3 km/h (2 Bft) 100 %
13.02.2018 02:44 -2,4 C 94 % 1015,7 hPa 0,0 l/m 0,9 km/h (0 Bft) NW 306 -3,2 C 6,3 km/h (2 Bft) 100 %
13.02.2018 02:45 -2,5 C 94 % 1015,6 hPa 0,0 l/m 0,0 km/h (0 Bft) W 276 -3,3 C 0,0 km/h (0 Bft) 100 %
13.02.2018 02:46 -2,4 C 94 % 1015,7 hPa 0,0 l/m 0,1 km/h (0 Bft) S-SO 148 -3,2 C 3,1 km/h (1 Bft) 100 %
13.02.2018 02:47 -2,5 C 94 % 1015,7 hPa 0,0 l/m 1,2 km/h (1 Bft) W-SW 237 -3,3 C 3,1 km/h (1 Bft) 100 %
13.02.2018 02:48 -2,4 C 94 % 1015,6 hPa 0,0 l/m 3,3 km/h (1 Bft) NW 309 -3,2 C 6,3 km/h (2 Bft) 100 %
13.02.2018 02:49 -2,4 C 94 % 1015,6 hPa 0,0 l/m 2,6 km/h (1 Bft) SW 216 -3,2 C 6,3 km/h (2 Bft) 100 %
13.02.2018 02:50 -2,4 C 94 % 1015,7 hPa 0,0 l/m 0,7 km/h (0 Bft) W-SW 241 -3,2 C 3,1 km/h (1 Bft) 100 %
13.02.2018 02:51 -2,4 C 94 % 1015,7 hPa 0,0 l/m 2,0 km/h (1 Bft) SW 231 -3,2 C 6,3 km/h (2 Bft) 100 %
13.02.2018 02:52 -2,4 C 94 % 1015,7 hPa 0,0 l/m 0,0 km/h (0 Bft) W-SW 237 -3,2 C 0,0 km/h (0 Bft) 100 %
13.02.2018 02:53 -2,4 C 94 % 1015,6 hPa 0,0 l/m 0,8 km/h (0 Bft) W-SW 245 -3,2 C 3,1 km/h (1 Bft) 100 %
13.02.2018 02:54 -2,4 C 94 % 1015,7 hPa 0,0 l/m 1,3 km/h (1 Bft) SW 221 -3,2 C 6,3 km/h (2 Bft) 100 %
13.02.2018 02:55 -2,4 C 94 % 1015,7 hPa 0,0 l/m 1,0 km/h (0 Bft) SW 224 -3,2 C 6,3 km/h (2 Bft) 100 %
13.02.2018 02:56 -2,4 C 94 % 1015,6 hPa 0,0 l/m 0,0 km/h (0 Bft) W 266 -3,2 C 0,0 km/h (0 Bft) 100 %
13.02.2018 02:57 -2,4 C 94 % 1015,7 hPa 0,0 l/m 1,6 km/h (1 Bft) W-NW 295 -3,2 C 6,3 km/h (2 Bft) 100 %
13.02.2018 02:58 -2,5 C 94 % 1015,6 hPa 0,0 l/m 0,2 km/h (0 Bft) NW 307 -3,3 C 3,1 km/h (1 Bft) 100 %
13.02.2018 02:59 -2,5 C 94 % 1015,6 hPa 0,0 l/m 2,2 km/h (1 Bft) NW 305 -3,3 C 6,3 km/h (2 Bft) 100 %
13.02.2018 03:00 -2,5 C 94 % 1015,6 hPa 0,0 l/m 1,2 km/h (1 Bft) SW 220 -3,3 C 6,3 km/h (2 Bft) 100 %
13.02.2018 03:01 -2,4 C 94 % 1015,6 hPa 0,0 l/m 0,1 km/h (0 Bft) W-NW 293 -3,2 C 3,1 km/h (1 Bft) 100 %
13.02.2018 03:02 -2,4 C 94 % 1015,7 hPa 0,0 l/m 3,8 km/h (1 Bft) S-SW 212 -3,2 C 12,6 km/h (3 Bft) 100 %
13.02.2018 03:03 -2,4 C 94 % 1015,7 hPa 0,0 l/m 1,3 km/h (1 Bft) SW 217 -3,2 C 3,1 km/h (1 Bft) 100 %
13.02.2018 03:04 -2,5 C 93 % 1015,6 hPa 0,0 l/m 0,0 km/h (0 Bft) S-SO 160 -3,5 C 0,0 km/h (0 Bft) 100 %
13.02.2018 03:05 -2,5 C 93 % 1015,7 hPa 0,0 l/m 1,7 km/h (1 Bft) SW 214 -3,5 C 3,1 km/h (1 Bft) 100 %
13.02.2018 03:06 -2,5 C 93 % 1015,6 hPa 0,0 l/m 0,3 km/h (0 Bft) W-SW 252 -3,5 C 3,1 km/h (1 Bft) 100 %
13.02.2018 03:07 -2,5 C 94 % 1015,6 hPa 0,0 l/m 0,7 km/h (0 Bft) SW 218 -3,3 C 3,1 km/h (1 Bft) 100 %
13.02.2018 03:08 -2,6 C 94 % 1015,6 hPa 0,0 l/m 1,0 km/h (0 Bft) SW 224 -3,4 C 3,1 km/h (1 Bft) 100 %
13.02.2018 03:09 -2,5 C 94 % 1015,6 hPa 0,0 l/m 2,4 km/h (1 Bft) S-SW 205 -3,3 C 9,4 km/h (2 Bft) 100 %
13.02.2018 03:10 -2,5 C 94 % 1015,7 hPa 0,0 l/m 3,5 km/h (1 Bft) SW 232 -3,3 C 9,4 km/h (2 Bft) 100 %
13.02.2018 03:11 -2,5 C 94 % 1015,7 hPa 0,0 l/m 4,7 km/h (1 Bft) W 259 -3,3 C 9,4 km/h (2 Bft) 100 %
13.02.2018 03:12 -2,5 C 94 % 1015,7 hPa 0,0 l/m 1,8 km/h (1 Bft) SW 228 -3,3 C 3,1 km/h (1 Bft) 100 %
13.02.2018 03:13 -2,5 C 94 % 1015,7 hPa 0,0 l/m 0,0 km/h (0 Bft) SW 228 -3,3 C 0,0 km/h (0 Bft) 100 %
13.02.2018 03:14 -2,5 C 94 % 1015,7 hPa 0,0 l/m 4,6 km/h (1 Bft) S-SW 212 -3,3 C 18,8 km/h (3 Bft) 100 %
13.02.2018 03:15 -2,4 C 94 % 1015,7 hPa 0,0 l/m 0,3 km/h (0 Bft) W 265 -3,2 C 3,1 km/h (1 Bft) 100 %
13.02.2018 03:16 -2,4 C 94 % 1015,7 hPa 0,0 l/m 0,7 km/h (0 Bft) NW 304 -3,2 C 3,1 km/h (1 Bft) 100 %
13.02.2018 03:17 -2,4 C 94 % 1015,7 hPa 0,0 l/m 0,5 km/h (0 Bft) W 276 -3,2 C 3,1 km/h (1 Bft) 100 %
13.02.2018 03:18 -2,4 C 94 % 1015,7 hPa 0,0 l/m 0,5 km/h (0 Bft) S-SO 167 -3,2 C 3,1 km/h (1 Bft) 100 %
13.02.2018 03:19 -2,4 C 93 % 1015,6 hPa 0,0 l/m 0,9 km/h (0 Bft) W-NW 290 -3,4 C 6,3 km/h (2 Bft) 100 %
13.02.2018 03:20 -2,4 C 93 % 1015,7 hPa 0,0 l/m 2,1 km/h (1 Bft) S-SO 158 -3,4 C 9,4 km/h (2 Bft) 100 %
13.02.2018 03:21 -2,4 C 93 % 1015,6 hPa 0,0 l/m 0,1 km/h (0 Bft) S-SO 155 -3,4 C 3,1 km/h (1 Bft) 100 %
13.02.2018 03:22 -2,5 C 93 % 1015,6 hPa 0,0 l/m 1,3 km/h (1 Bft) O-SO 117 -3,5 C 6,3 km/h (2 Bft) 100 %
13.02.2018 03:23 -2,5 C 93 % 1015,6 hPa 0,0 l/m 0,4 km/h (0 Bft) SW 234 -3,5 C 3,1 km/h (1 Bft) 100 %
13.02.2018 03:24 -2,5 C 93 % 1015,6 hPa 0,0 l/m 2,2 km/h (1 Bft) W-NW 288 -3,5 C 6,3 km/h (2 Bft) 100 %
13.02.2018 03:25 -2,5 C 93 % 1015,7 hPa 0,0 l/m 2,0 km/h (1 Bft) SW 221 -3,5 C 6,3 km/h (2 Bft) 100 %
13.02.2018 03:26 -2,5 C 93 % 1015,6 hPa 0,0 l/m 1,0 km/h (0 Bft) SW 219 -3,5 C 6,3 km/h (2 Bft) 100 %
13.02.2018 03:27 -2,5 C 93 % 1015,7 hPa 0,0 l/m 2,7 km/h (1 Bft) W-SW 237 -3,5 C 6,3 km/h (2 Bft) 100 %
13.02.2018 03:28 -2,5 C 93 % 1015,6 hPa 0,0 l/m 0,3 km/h (0 Bft) W-SW 238 -3,5 C 3,1 km/h (1 Bft) 100 %
13.02.2018 03:29 -2,6 C 93 % 1015,6 hPa 0,0 l/m 0,9 km/h (0 Bft) W-SW 245 -3,6 C 6,3 km/h (2 Bft) 96 %
13.02.2018 03:30 -2,6 C 93 % 1015,6 hPa 0,0 l/m 0,1 km/h (0 Bft) S-SW 193 -3,6 C 3,1 km/h (1 Bft) 100 %
13.02.2018 03:31 -2,6 C 93 % 1015,6 hPa 0,0 l/m 4,4 km/h (1 Bft) SW 228 -3,6 C 6,3 km/h (2 Bft) 100 %
13.02.2018 03:32 -2,6 C 93 % 1015,6 hPa 0,0 l/m 0,0 km/h (0 Bft) SW 228 -3,6 C 0,0 km/h (0 Bft) 100 %
13.02.2018 03:33 -2,6 C 93 % 1015,6 hPa 0,0 l/m 0,0 km/h (0 Bft) SW 228 -3,6 C 0,0 km/h (0 Bft) 100 %
13.02.2018 03:34 -2,6 C 93 % 1015,6 hPa 0,0 l/m 0,3 km/h (0 Bft) SW 217 -3,6 C 3,1 km/h (1 Bft) 100 %
13.02.2018 03:35 -2,6 C 93 % 1015,6 hPa 0,0 l/m 0,8 km/h (0 Bft) SW 216 -3,6 C 3,1 km/h (1 Bft) 100 %
13.02.2018 03:36 -2,7 C 93 % 1015,6 hPa 0,0 l/m 0,0 km/h (0 Bft) SO 129 -3,7 C 0,0 km/h (0 Bft) 100 %
13.02.2018 03:37 -2,7 C 93 % 1015,6 hPa 0,0 l/m 0,0 km/h (0 Bft) SO 129 -3,7 C 0,0 km/h (0 Bft) 100 %
13.02.2018 03:38 -2,7 C 93 % 1015,6 hPa 0,0 l/m 0,0 km/h (0 Bft) S 184 -3,7 C 0,0 km/h (0 Bft) 100 %
13.02.2018 03:39 -2,7 C 93 % 1015,6 hPa 0,0 l/m 0,0 km/h (0 Bft) S 184 -3,7 C 0,0 km/h (0 Bft) 100 %
13.02.2018 03:40 -2,8 C 93 % 1015,6 hPa 0,0 l/m 0,4 km/h (0 Bft) S-SO 150 -3,8 C 3,1 km/h (1 Bft) 100 %
13.02.2018 03:41 -2,8 C 93 % 1015,6 hPa 0,0 l/m 0,0 km/h (0 Bft) S-SO 151 -3,8 C 0,0 km/h (0 Bft) 100 %
13.02.2018 03:42 -2,8 C 93 % 1015,6 hPa 0,0 l/m 0,1 km/h (0 Bft) W-SW 245 -3,8 C 3,1 km/h (1 Bft) 100 %
13.02.2018 03:43 -2,8 C 93 % 1015,6 hPa 0,0 l/m 0,0 km/h (0 Bft) W-SW 245 -3,8 C 0,0 km/h (0 Bft) 100 %
13.02.2018 03:44 -2,8 C 93 % 1015,6 hPa 0,0 l/m 0,1 km/h (0 Bft) W-SW 245 -3,8 C 3,1 km/h (1 Bft) 100 %
13.02.2018 03:45 -2,8 C 93 % 1015,5 hPa 0,0 l/m 0,1 km/h (0 Bft) W-SW 245 -3,8 C 3,1 km/h (1 Bft) 100 %
13.02.2018 03:46 -2,8 C 93 % 1015,6 hPa 0,0 l/m 1,4 km/h (1 Bft) S-SW 210 -3,8 C 3,1 km/h (1 Bft) 100 %
13.02.2018 03:47 -2,9 C 94 % 1015,5 hPa 0,0 l/m 0,0 km/h (0 Bft) S-SW 207 -3,7 C 0,0 km/h (0 Bft) 100 %
13.02.2018 03:48 -2,9 C 93 % 1015,6 hPa 0,0 l/m 0,0 km/h (0 Bft) S-SW 207 -3,9 C 0,0 km/h (0 Bft) 100 %
13.02.2018 03:49 -2,9 C 93 % 1015,5 hPa 0,0 l/m 0,0 km/h (0 Bft) S-SW 201 -3,9 C 0,0 km/h (0 Bft) 100 %
13.02.2018 03:50 -2,9 C 93 % 1015,6 hPa 0,0 l/m 0,3 km/h (0 Bft) SW 219 -3,9 C 3,1 km/h (1 Bft) 100 %
13.02.2018 03:51 -3,0 C 94 % 1015,5 hPa 0,0 l/m 1,1 km/h (1 Bft) SW 231 -3,8 C 3,1 km/h (1 Bft) 100 %
13.02.2018 03:52 -3,0 C 94 % 1015,5 hPa 0,0 l/m 0,1 km/h (0 Bft) SW 231 -3,8 C 3,1 km/h (1 Bft) 100 %
13.02.2018 03:53 -3,0 C 94 % 1015,5 hPa 0,0 l/m 0,0 km/h (0 Bft) W-SW 253 -3,8 C 0,0 km/h (0 Bft) 100 %
13.02.2018 03:54 -3,0 C 94 % 1015,5 hPa 0,0 l/m 0,1 km/h (0 Bft) S-SO 168 -3,8 C 3,1 km/h (1 Bft) 100 %
13.02.2018 03:55 -3,0 C 94 % 1015,5 hPa 0,0 l/m 2,2 km/h (1 Bft) SW 233 -3,8 C 6,3 km/h (2 Bft) 96 %
13.02.2018 03:56 -3,0 C 94 % 1015,5 hPa 0,0 l/m 1,7 km/h (1 Bft) SW 224 -3,8 C 6,3 km/h (2 Bft) 96 %
13.02.2018 03:57 -3,0 C 94 % 1015,5 hPa 0,0 l/m 0,0 km/h (0 Bft) SW 218 -3,8 C 0,0 km/h (0 Bft) 100 %
13.02.2018 03:58 -3,0 C 94 % 1015,5 hPa 0,0 l/m 1,8 km/h (1 Bft) SW 232 -3,8 C 3,1 km/h (1 Bft) 100 %
13.02.2018 03:59 -3,0 C 94 % 1015,5 hPa 0,0 l/m 0,0 km/h (0 Bft) SW 232 -3,8 C 0,0 km/h (0 Bft) 100 %
13.02.2018 04:00 -3,1 C 94 % 1015,5 hPa 0,0 l/m 0,8 km/h (0 Bft) SW 225 -3,9 C 6,3 km/h (2 Bft) 100 %
13.02.2018 04:01 -3,1 C 94 % 1015,5 hPa 0,0 l/m 0,4 km/h (0 Bft) W 263 -3,9 C 3,1 km/h (1 Bft) 99 %
13.02.2018 04:02 -3,1 C 94 % 1015,5 hPa 0,0 l/m 2,0 km/h (1 Bft) SW 235 -3,9 C 6,3 km/h (2 Bft) 100 %
13.02.2018 04:03 -3,1 C 94 % 1015,5 hPa 0,0 l/m 0,0 km/h (0 Bft) SO 140 -3,9 C 0,0 km/h (0 Bft) 100 %
13.02.2018 04:04 -3,1 C 94 % 1015,5 hPa 0,0 l/m 0,5 km/h (0 Bft) W 272 -3,9 C 3,1 km/h (1 Bft) 100 %
13.02.2018 04:05 -3,1 C 94 % 1015,5 hPa 0,0 l/m 1,2 km/h (1 Bft) SW 226 -3,9 C 6,3 km/h (2 Bft) 100 %
13.02.2018 04:06 -3,1 C 94 % 1015,5 hPa 0,0 l/m 0,9 km/h (0 Bft) S 174 -3,9 C 3,1 km/h (1 Bft) 100 %
13.02.2018 04:07 -3,1 C 94 % 1015,5 hPa 0,0 l/m 0,0 km/h (0 Bft) W-SW 246 -3,9 C 0,0 km/h (0 Bft) 100 %
13.02.2018 04:08 -3,1 C 94 % 1015,5 hPa 0,0 l/m 1,1 km/h (1 Bft) SW 214 -3,9 C 3,1 km/h (1 Bft) 100 %
13.02.2018 04:09 -3,1 C 94 % 1015,5 hPa 0,0 l/m 0,5 km/h (0 Bft) W-NW 298 -3,9 C 3,1 km/h (1 Bft) 100 %
13.02.2018 04:10 -3,1 C 94 % 1015,5 hPa 0,0 l/m 0,0 km/h (0 Bft) W-NW 298 -3,9 C 0,0 km/h (0 Bft) 100 %
13.02.2018 04:11 -3,1 C 94 % 1015,5 hPa 0,0 l/m 0,5 km/h (0 Bft) SW 231 -3,9 C 3,1 km/h (1 Bft) 100 %
13.02.2018 04:12 -3,1 C 94 % 1015,5 hPa 0,0 l/m 0,5 km/h (0 Bft) SW 220 -3,9 C 6,3 km/h (2 Bft) 100 %
13.02.2018 04:13 -3,1 C 94 % 1015,5 hPa 0,0 l/m 4,6 km/h (1 Bft) S-SW 210 -3,9 C 9,4 km/h (2 Bft) 100 %
13.02.2018 04:14 -3,1 C 94 % 1015,5 hPa 0,0 l/m 3,5 km/h (1 Bft) SW 219 -3,9 C 9,4 km/h (2 Bft) 100 %
13.02.2018 04:15 -3,1 C 94 % 1015,5 hPa 0,0 l/m 1,1 km/h (1 Bft) W-SW 245 -3,9 C 3,1 km/h (1 Bft) 100 %
13.02.2018 04:16 -3,1 C 94 % 1015,4 hPa 0,0 l/m 0,3 km/h (0 Bft) SW 214 -3,9 C 3,1 km/h (1 Bft) 96 %
13.02.2018 04:17 -3,1 C 94 % 1015,5 hPa 0,0 l/m 0,0 km/h (0 Bft) W 265 -3,9 C 0,0 km/h (0 Bft) 96 %
13.02.2018 04:18 -3,1 C 94 % 1015,4 hPa 0,0 l/m 0,0 km/h (0 Bft) S-SW 193 -3,9 C 0,0 km/h (0 Bft) 100 %
13.02.2018 04:19 -3,1 C 94 % 1015,4 hPa 0,0 l/m 0,1 km/h (0 Bft) W-SW 248 -3,9 C 3,1 km/h (1 Bft) 100 %
13.02.2018 04:20 -3,2 C 94 % 1015,4 hPa 0,0 l/m 0,0 km/h (0 Bft) W-SW 249 -4,0 C 0,0 km/h (0 Bft) 96 %
13.02.2018 04:21 -3,2 C 94 % 1015,4 hPa 0,0 l/m 0,0 km/h (0 Bft) W-SW 249 -4,0 C 0,0 km/h (0 Bft) 96 %
13.02.2018 04:22 -3,2 C 94 % 1015,5 hPa 0,0 l/m 1,8 km/h (1 Bft) SW 224 -4,0 C 3,1 km/h (1 Bft) 100 %
13.02.2018 04:23 -3,2 C 94 % 1015,4 hPa 0,0 l/m 0,0 km/h (0 Bft) NW 315 -4,0 C 0,0 km/h (0 Bft) 96 %
13.02.2018 04:24 -3,2 C 94 % 1015,5 hPa 0,0 l/m 1,4 km/h (1 Bft) W-SW 247 -4,0 C 6,3 km/h (2 Bft) 100 %
13.02.2018 04:25 -3,2 C 94 % 1015,4 hPa 0,0 l/m 0,0 km/h (0 Bft) W-SW 247 -4,0 C 0,0 km/h (0 Bft) 96 %
13.02.2018 04:26 -3,2 C 94 % 1015,5 hPa 0,0 l/m 0,7 km/h (0 Bft) W-SW 249 -4,0 C 3,1 km/h (1 Bft) 96 %
13.02.2018 04:27 -3,2 C 94 % 1015,4 hPa 0,0 l/m 0,0 km/h (0 Bft) SW 228 -4,0 C 0,0 km/h (0 Bft) 100 %
13.02.2018 04:28 -3,2 C 94 % 1015,5 hPa 0,0 l/m 0,3 km/h (0 Bft) SW 221 -4,0 C 3,1 km/h (1 Bft) 100 %
13.02.2018 04:29 -3,2 C 94 % 1015,5 hPa 0,0 l/m 0,8 km/h (0 Bft) W-SW 237 -4,0 C 6,3 km/h (2 Bft) 96 %
13.02.2018 04:30 -3,2 C 94 % 1015,5 hPa 0,0 l/m 0,1 km/h (0 Bft) SW 230 -4,0 C 3,1 km/h (1 Bft) 96 %
13.02.2018 04:31 -3,2 C 94 % 1015,5 hPa 0,0 l/m 0,3 km/h (0 Bft) SW 219 -4,0 C 3,1 km/h (1 Bft) 100 %
13.02.2018 04:32 -3,2 C 94 % 1015,5 hPa 0,0 l/m 0,0 km/h (0 Bft) SO 125 -4,0 C 0,0 km/h (0 Bft) 96 %
13.02.2018 04:33 -3,2 C 94 % 1015,5 hPa 0,0 l/m 1,1 km/h (1 Bft) SW 227 -4,0 C 6,3 km/h (2 Bft) 100 %
13.02.2018 04:34 -3,2 C 94 % 1015,5 hPa 0,0 l/m 0,8 km/h (0 Bft) SW 233 -4,0 C 3,1 km/h (1 Bft) 96 %
13.02.2018 04:35 -3,2 C 94 % 1015,5 hPa 0,0 l/m 0,8 km/h (0 Bft) S 182 -4,0 C 3,1 km/h (1 Bft) 96 %
13.02.2018 04:36 -3,2 C 94 % 1015,5 hPa 0,0 l/m 1,0 km/h (0 Bft) SW 221 -4,0 C 3,1 km/h (1 Bft) 100 %
13.02.2018 04:37 -3,2 C 94 % 1015,5 hPa 0,0 l/m 1,0 km/h (0 Bft) SW 221 -4,0 C 6,3 km/h (2 Bft) 100 %
13.02.2018 04:38 -3,2 C 94 % 1015,5 hPa 0,0 l/m 0,5 km/h (0 Bft) SW 233 -4,0 C 3,1 km/h (1 Bft) 100 %
13.02.2018 04:39 -3,2 C 94 % 1015,5 hPa 0,0 l/m 0,3 km/h (0 Bft) S-SO 151 -4,0 C 3,1 km/h (1 Bft) 100 %
13.02.2018 04:40 -3,2 C 94 % 1015,5 hPa 0,0 l/m 4,5 km/h (1 Bft) SW 230 -4,0 C 9,4 km/h (2 Bft) 99 %
13.02.2018 04:41 -3,2 C 94 % 1015,5 hPa 0,0 l/m 2,1 km/h (1 Bft) NW 314 -4,0 C 6,3 km/h (2 Bft) 100 %
13.02.2018 04:42 -3,2 C 94 % 1015,5 hPa 0,0 l/m 1,1 km/h (1 Bft) SW 215 -4,0 C 6,3 km/h (2 Bft) 100 %
13.02.2018 04:43 -3,2 C 94 % 1015,5 hPa 0,0 l/m 2,0 km/h (1 Bft) SW 227 -4,0 C 6,3 km/h (2 Bft) 100 %
13.02.2018 04:44 -3,2 C 94 % 1015,4 hPa 0,0 l/m 0,6 km/h (0 Bft) SW 219 -4,0 C 3,1 km/h (1 Bft) 100 %
13.02.2018 04:45 -3,2 C 94 % 1015,5 hPa 0,0 l/m 0,9 km/h (0 Bft) W-SW 242 -4,0 C 9,4 km/h (2 Bft) 100 %
13.02.2018 04:46 -3,2 C 94 % 1015,4 hPa 0,0 l/m 1,8 km/h (1 Bft) SO 128 -4,0 C 6,3 km/h (2 Bft) 100 %
13.02.2018 04:47 -3,2 C 94 % 1015,4 hPa 0,0 l/m 0,0 km/h (0 Bft) O 82 -4,0 C 0,0 km/h (0 Bft) 100 %
13.02.2018 04:48 -3,2 C 94 % 1015,5 hPa 0,0 l/m 1,2 km/h (1 Bft) SW 215 -4,0 C 3,1 km/h (1 Bft) 100 %
13.02.2018 04:49 -3,2 C 94 % 1015,4 hPa 0,0 l/m 0,2 km/h (0 Bft) W-SW 257 -4,0 C 3,1 km/h (1 Bft) 100 %
13.02.2018 04:50 -3,1 C 94 % 1015,5 hPa 0,0 l/m 0,3 km/h (0 Bft) W 262 -3,9 C 3,1 km/h (1 Bft) 100 %
13.02.2018 04:51 -3,1 C 94 % 1015,4 hPa 0,0 l/m 1,9 km/h (1 Bft) S-SW 211 -3,9 C 9,4 km/h (2 Bft) 100 %
13.02.2018 04:52 -3,1 C 94 % 1015,4 hPa 0,0 l/m 0,3 km/h (0 Bft) SW 231 -3,9 C 3,1 km/h (1 Bft) 100 %
13.02.2018 04:53 -3,1 C 94 % 1015,4 hPa 0,0 l/m 4,8 km/h (1 Bft) SO 129 -3,9 C 18,8 km/h (3 Bft) 100 %
13.02.2018 04:54 -3,1 C 94 % 1015,4 hPa 0,0 l/m 0,7 km/h (0 Bft) W-SW 250 -3,9 C 9,4 km/h (2 Bft) 100 %
13.02.2018 04:55 -3,1 C 94 % 1015,4 hPa 0,0 l/m 0,0 km/h (0 Bft) S-SW 205 -3,9 C 0,0 km/h (0 Bft) 100 %
13.02.2018 04:56 -3,1 C 94 % 1015,4 hPa 0,0 l/m 3,7 km/h (1 Bft) S-SW 209 -3,9 C 9,4 km/h (2 Bft) 100 %
13.02.2018 04:57 -3,1 C 94 % 1015,4 hPa 0,0 l/m 2,3 km/h (1 Bft) W-NW 301 -3,9 C 12,6 km/h (3 Bft) 100 %
13.02.2018 04:58 -3,0 C 94 % 1015,4 hPa 0,0 l/m 1,8 km/h (1 Bft) SW 231 -3,8 C 9,4 km/h (2 Bft) 100 %
13.02.2018 04:59 -3,0 C 94 % 1015,4 hPa 0,0 l/m 0,5 km/h (0 Bft) SW 235 -3,8 C 3,1 km/h (1 Bft) 100 %
13.02.2018 05:00 -3,0 C 94 % 1015,4 hPa 0,0 l/m 2,5 km/h (1 Bft) S-SW 200 -3,8 C 6,3 km/h (2 Bft) 100 %
13.02.2018 05:01 -3,0 C 94 % 1015,4 hPa 0,0 l/m 0,4 km/h (0 Bft) W-SW 250 -3,8 C 3,1 km/h (1 Bft) 100 %
13.02.2018 05:02 -3,1 C 94 % 1015,4 hPa 0,0 l/m 2,2 km/h (1 Bft) SW 231 -3,9 C 6,3 km/h (2 Bft) 100 %
13.02.2018 05:03 -3,1 C 94 % 1015,5 hPa 0,0 l/m 1,3 km/h (1 Bft) N-NW 345 -3,9 C 6,3 km/h (2 Bft) 100 %
13.02.2018 05:04 -3,1 C 94 % 1015,4 hPa 0,0 l/m 0,8 km/h (0 Bft) SW 228 -3,9 C 3,1 km/h (1 Bft) 100 %
13.02.2018 05:05 -3,1 C 94 % 1015,4 hPa 0,0 l/m 0,3 km/h (0 Bft) W-SW 245 -3,9 C 3,1 km/h (1 Bft) 100 %
13.02.2018 05:06 -3,1 C 94 % 1015,5 hPa 0,0 l/m 0,8 km/h (0 Bft) W-SW 244 -3,9 C 6,3 km/h (2 Bft) 100 %
13.02.2018 05:07 -3,1 C 94 % 1015,4 hPa 0,0 l/m 1,0 km/h (0 Bft) SW 232 -3,9 C 6,3 km/h (2 Bft) 100 %
13.02.2018 05:08 -3,1 C 94 % 1015,5 hPa 0,0 l/m 1,2 km/h (1 Bft) S-SW 200 -3,9 C 6,3 km/h (2 Bft) 100 %
13.02.2018 05:09 -3,1 C 94 % 1015,4 hPa 0,0 l/m 0,0 km/h (0 Bft) S-SW 200 -3,9 C 0,0 km/h (0 Bft) 100 %
13.02.2018 05:10 -3,2 C 94 % 1015,4 hPa 0,0 l/m 3,5 km/h (1 Bft) W-SW 237 -4,0 C 9,4 km/h (2 Bft) 100 %
13.02.2018 05:11 -3,1 C 94 % 1015,4 hPa 0,0 l/m 1,3 km/h (1 Bft) W-SW 248 -3,9 C 6,3 km/h (2 Bft) 100 %
13.02.2018 05:12 -3,1 C 94 % 1015,4 hPa 0,0 l/m 0,0 km/h (0 Bft) W-SW 240 -3,9 C 0,0 km/h (0 Bft) 100 %
13.02.2018 05:13 -3,2 C 94 % 1015,4 hPa 0,0 l/m 3,5 km/h (1 Bft) W-SW 238 -4,0 C 6,3 km/h (2 Bft) 100 %
13.02.2018 05:14 -3,2 C 94 % 1015,4 hPa 0,0 l/m 0,6 km/h (0 Bft) SW 217 -4,0 C 3,1 km/h (1 Bft) 100 %
13.02.2018 05:15 -3,2 C 94 % 1015,4 hPa 0,0 l/m 0,0 km/h (0 Bft) SW 219 -4,0 C 0,0 km/h (0 Bft) 100 %
13.02.2018 05:16 -3,2 C 94 % 1015,4 hPa 0,0 l/m 0,1 km/h (0 Bft) S-SO 156 -4,0 C 3,1 km/h (1 Bft) 100 %
13.02.2018 05:17 -3,2 C 94 % 1015,4 hPa 0,0 l/m 0,0 km/h (0 Bft) S-SW 205 -4,0 C 0,0 km/h (0 Bft) 100 %
13.02.2018 05:18 -3,2 C 93 % 1015,4 hPa 0,0 l/m 0,3 km/h (0 Bft) SO 146 -4,2 C 3,1 km/h (1 Bft) 100 %
13.02.2018 05:19 -3,3 C 94 % 1015,4 hPa 0,0 l/m 0,3 km/h (0 Bft) W 279 -4,1 C 3,1 km/h (1 Bft) 100 %
13.02.2018 05:20 -3,3 C 94 % 1015,4 hPa 0,0 l/m 0,1 km/h (0 Bft) W-SW 255 -4,1 C 3,1 km/h (1 Bft) 100 %
13.02.2018 05:21 -3,3 C 94 % 1015,4 hPa 0,0 l/m 0,0 km/h (0 Bft) W-SW 256 -4,1 C 0,0 km/h (0 Bft) 100 %
13.02.2018 05:22 -3,3 C 94 % 1015,4 hPa 0,0 l/m 0,9 km/h (0 Bft) SW 236 -4,1 C 3,1 km/h (1 Bft) 100 %
13.02.2018 05:23 -3,3 C 94 % 1015,4 hPa 0,0 l/m 0,0 km/h (0 Bft) SW 232 -4,1 C 0,0 km/h (0 Bft) 100 %
13.02.2018 05:24 -3,3 C 94 % 1015,4 hPa 0,0 l/m 0,0 km/h (0 Bft) W-NW 294 -4,1 C 0,0 km/h (0 Bft) 100 %
13.02.2018 05:25 -3,3 C 94 % 1015,4 hPa 0,0 l/m 0,2 km/h (0 Bft) NW 312 -4,1 C 3,1 km/h (1 Bft) 100 %
13.02.2018 05:26 -3,4 C 94 % 1015,4 hPa 0,0 l/m 0,0 km/h (0 Bft) NW 313 -4,2 C 0,0 km/h (0 Bft) 100 %
13.02.2018 05:27 -3,4 C 94 % 1015,4 hPa 0,0 l/m 0,0 km/h (0 Bft) NW 307 -4,2 C 0,0 km/h (0 Bft) 100 %
13.02.2018 05:28 -3,4 C 94 % 1015,5 hPa 0,0 l/m 0,5 km/h (0 Bft) W 281 -4,2 C 3,1 km/h (1 Bft) 100 %
13.02.2018 05:29 -3,4 C 94 % 1015,4 hPa 0,0 l/m 0,5 km/h (0 Bft) NW 311 -4,2 C 3,1 km/h (1 Bft) 100 %
13.02.2018 05:30 -3,4 C 94 % 1015,5 hPa 0,0 l/m 1,8 km/h (1 Bft) SW 229 -4,2 C 6,3 km/h (2 Bft) 100 %
13.02.2018 05:31 -3,5 C 94 % 1015,5 hPa 0,0 l/m 0,9 km/h (0 Bft) W 263 -4,3 C 3,1 km/h (1 Bft) 100 %
13.02.2018 05:32 -3,5 C 94 % 1015,5 hPa 0,0 l/m 1,4 km/h (1 Bft) W 281 -4,3 C 3,1 km/h (1 Bft) 100 %
13.02.2018 05:33 -3,6 C 94 % 1015,5 hPa 0,0 l/m 1,4 km/h (1 Bft) NW 304 -4,4 C 3,1 km/h (1 Bft) 100 %
13.02.2018 05:34 -3,6 C 94 % 1015,5 hPa 0,0 l/m 2,7 km/h (1 Bft) W 260 -4,4 C 6,3 km/h (2 Bft) 100 %
13.02.2018 05:35 -3,6 C 94 % 1015,4 hPa 0,0 l/m 3,6 km/h (1 Bft) W 272 -4,4 C 9,4 km/h (2 Bft) 100 %
13.02.2018 05:36 -3,6 C 94 % 1015,5 hPa 0,0 l/m 0,0 km/h (0 Bft) NW 311 -4,4 C 0,0 km/h (0 Bft) 100 %
13.02.2018 05:37 -3,6 C 94 % 1015,5 hPa 0,0 l/m 0,6 km/h (0 Bft) W-NW 303 -4,4 C 3,1 km/h (1 Bft) 100 %
13.02.2018 05:38 -3,6 C 94 % 1015,5 hPa 0,0 l/m 0,6 km/h (0 Bft) W 274 -4,4 C 3,1 km/h (1 Bft) 100 %
13.02.2018 05:39 -3,6 C 94 % 1015,5 hPa 0,0 l/m 2,1 km/h (1 Bft) W 274 -4,4 C 6,3 km/h (2 Bft) 100 %
13.02.2018 05:40 -3,6 C 94 % 1015,4 hPa 0,0 l/m 5,5 km/h (1 Bft) S-SW 205 -4,4 C 9,4 km/h (2 Bft) 100 %
13.02.2018 05:41 -3,6 C 94 % 1015,4 hPa 0,0 l/m 0,9 km/h (0 Bft) SW 228 -4,4 C 6,3 km/h (2 Bft) 100 %
13.02.2018 05:42 -3,6 C 94 % 1015,4 hPa 0,0 l/m 0,0 km/h (0 Bft) S-SW 209 -4,4 C 0,0 km/h (0 Bft) 100 %
13.02.2018 05:43 -3,6 C 94 % 1015,4 hPa 0,0 l/m 1,4 km/h (1 Bft) S-SW 213 -4,4 C 6,3 km/h (2 Bft) 100 %
13.02.2018 05:44 -3,6 C 94 % 1015,4 hPa 0,0 l/m 0,0 km/h (0 Bft) S-SW 213 -4,4 C 0,0 km/h (0 Bft) 100 %
13.02.2018 05:45 -3,7 C 94 % 1015,4 hPa 0,0 l/m 1,4 km/h (1 Bft) SW 219 -4,5 C 3,1 km/h (1 Bft) 100 %
13.02.2018 05:46 -3,7 C 94 % 1015,4 hPa 0,0 l/m 0,0 km/h (0 Bft) SW 219 -4,5 C 0,0 km/h (0 Bft) 100 %
13.02.2018 05:47 -3,7 C 94 % 1015,4 hPa 0,0 l/m 0,2 km/h (0 Bft) SW 227 -4,5 C 3,1 km/h (1 Bft) 100 %
13.02.2018 05:48 -3,7 C 94 % 1015,3 hPa 0,0 l/m 0,9 km/h (0 Bft) SW 218 -4,5 C 6,3 km/h (2 Bft) 100 %
13.02.2018 05:49 -3,7 C 94 % 1015,4 hPa 0,0 l/m 0,0 km/h (0 Bft) SW 218 -4,5 C 0,0 km/h (0 Bft) 100 %
13.02.2018 05:50 -3,7 C 94 % 1015,3 hPa 0,0 l/m 1,4 km/h (1 Bft) W-NW 295 -4,5 C 6,3 km/h (2 Bft) 100 %
13.02.2018 05:51 -3,7 C 94 % 1015,3 hPa 0,0 l/m 0,4 km/h (0 Bft) SW 233 -4,5 C 3,1 km/h (1 Bft) 100 %
13.02.2018 05:52 -3,7 C 94 % 1015,3 hPa 0,0 l/m 0,0 km/h (0 Bft) SW 233 -4,5 C 0,0 km/h (0 Bft) 100 %
13.02.2018 05:53 -3,7 C 94 % 1015,3 hPa 0,0 l/m 0,0 km/h (0 Bft) W-NW 300 -4,5 C 0,0 km/h (0 Bft) 100 %
13.02.2018 05:54 -3,7 C 94 % 1015,3 hPa 0,0 l/m 0,0 km/h (0 Bft) W-NW 300 -4,5 C 0,0 km/h (0 Bft) 100 %
13.02.2018 05:55 -3,7 C 94 % 1015,3 hPa 0,0 l/m 0,6 km/h (0 Bft) W-SW 238 -4,5 C 3,1 km/h (1 Bft) 100 %
13.02.2018 05:56 -3,7 C 94 % 1015,4 hPa 0,0 l/m 0,4 km/h (0 Bft) SW 221 -4,5 C 3,1 km/h (1 Bft) 100 %
13.02.2018 05:57 -3,7 C 94 % 1015,3 hPa 0,0 l/m 0,0 km/h (0 Bft) SW 221 -4,5 C 0,0 km/h (0 Bft) 100 %
13.02.2018 05:58 -3,7 C 94 % 1015,3 hPa 0,0 l/m 0,1 km/h (0 Bft) SW 221 -4,5 C 3,1 km/h (1 Bft) 100 %
13.02.2018 05:59 -3,7 C 94 % 1015,3 hPa 0,0 l/m 0,0 km/h (0 Bft) SO 141 -4,5 C 0,0 km/h (0 Bft) 100 %
13.02.2018 06:00 -3,8 C 94 % 1015,3 hPa 0,0 l/m 0,0 km/h (0 Bft) SO 141 -4,6 C 0,0 km/h (0 Bft) 100 %
13.02.2018 06:01 -3,8 C 94 % 1015,3 hPa 0,0 l/m 0,0 km/h (0 Bft) S-SO 148 -4,6 C 0,0 km/h (0 Bft) 100 %
13.02.2018 06:02 -3,8 C 94 % 1015,3 hPa 0,0 l/m 0,0 km/h (0 Bft) S-SO 148 -4,6 C 0,0 km/h (0 Bft) 100 %
13.02.2018 06:03 -3,8 C 94 % 1015,4 hPa 0,0 l/m 0,0 km/h (0 Bft) S-SO 148 -4,6 C 0,0 km/h (0 Bft) 100 %
13.02.2018 06:04 -3,8 C 94 % 1015,3 hPa 0,0 l/m 0,2 km/h (0 Bft) N-NW 346 -4,6 C 3,1 km/h (1 Bft) 100 %
13.02.2018 06:05 -3,8 C 95 % 1015,3 hPa 0,0 l/m 0,7 km/h (0 Bft) W 261 -4,5 C 3,1 km/h (1 Bft) 100 %
13.02.2018 06:06 -3,8 C 95 % 1015,3 hPa 0,0 l/m 0,4 km/h (0 Bft) O-NO 67 -4,5 C 3,1 km/h (1 Bft) 100 %
13.02.2018 06:07 -3,8 C 95 % 1015,3 hPa 0,0 l/m 0,3 km/h (0 Bft) SO 145 -4,5 C 3,1 km/h (1 Bft) 100 %
13.02.2018 06:08 -3,8 C 95 % 1015,3 hPa 0,0 l/m 0,3 km/h (0 Bft) W-SW 250 -4,5 C 3,1 km/h (1 Bft) 100 %
13.02.2018 06:09 -3,8 C 95 % 1015,3 hPa 0,0 l/m 0,7 km/h (0 Bft) W-SW 250 -4,5 C 3,1 km/h (1 Bft) 100 %
13.02.2018 06:10 -3,8 C 95 % 1015,3 hPa 0,0 l/m 0,0 km/h (0 Bft) W-SW 250 -4,5 C 0,0 km/h (0 Bft) 100 %
13.02.2018 06:11 -3,8 C 95 % 1015,3 hPa 0,0 l/m 0,2 km/h (0 Bft) SW 217 -4,5 C 3,1 km/h (1 Bft) 96 %
13.02.2018 06:12 -3,8 C 95 % 1015,3 hPa 0,0 l/m 0,9 km/h (0 Bft) W-SW 240 -4,5 C 3,1 km/h (1 Bft) 100 %
13.02.2018 06:13 -3,8 C 95 % 1015,3 hPa 0,0 l/m 1,8 km/h (1 Bft) W-SW 242 -4,5 C 9,4 km/h (2 Bft) 96 %
13.02.2018 06:14 -3,8 C 95 % 1015,3 hPa 0,0 l/m 0,0 km/h (0 Bft) SO 144 -4,5 C 0,0 km/h (0 Bft) 96 %
13.02.2018 06:15 -3,8 C 95 % 1015,3 hPa 0,0 l/m 0,3 km/h (0 Bft) NO 51 -4,5 C 3,1 km/h (1 Bft) 100 %
13.02.2018 06:16 -3,8 C 95 % 1015,3 hPa 0,0 l/m 0,0 km/h (0 Bft) N 352 -4,5 C 0,0 km/h (0 Bft) 96 %
13.02.2018 06:17 -3,8 C 95 % 1015,2 hPa 0,0 l/m 0,0 km/h (0 Bft) N 352 -4,5 C 0,0 km/h (0 Bft) 100 %
13.02.2018 06:18 -3,8 C 95 % 1015,3 hPa 0,0 l/m 0,5 km/h (0 Bft) SW 230 -4,5 C 3,1 km/h (1 Bft) 96 %
13.02.2018 06:19 -3,8 C 95 % 1015,3 hPa 0,0 l/m 0,0 km/h (0 Bft) SW 230 -4,5 C 0,0 km/h (0 Bft) 100 %
13.02.2018 06:20 -3,8 C 95 % 1015,3 hPa 0,0 l/m 0,1 km/h (0 Bft) SW 229 -4,5 C 3,1 km/h (1 Bft) 95 %
13.02.2018 06:21 -3,8 C 95 % 1015,2 hPa 0,0 l/m 0,0 km/h (0 Bft) NO 41 -4,5 C 0,0 km/h (0 Bft) 96 %
13.02.2018 06:22 -3,8 C 95 % 1015,2 hPa 0,0 l/m 0,0 km/h (0 Bft) NO 41 -4,5 C 0,0 km/h (0 Bft) 100 %
13.02.2018 06:23 -3,8 C 95 % 1015,3 hPa 0,0 l/m 0,0 km/h (0 Bft) NW 321 -4,5 C 0,0 km/h (0 Bft) 96 %
13.02.2018 06:24 -3,8 C 95 % 1015,3 hPa 0,0 l/m 0,0 km/h (0 Bft) NW 321 -4,5 C 0,0 km/h (0 Bft) 100 %
13.02.2018 06:25 -3,8 C 95 % 1015,2 hPa 0,0 l/m 0,4 km/h (0 Bft) W-SW 250 -4,5 C 3,1 km/h (1 Bft) 96 %
13.02.2018 06:26 -3,8 C 95 % 1015,3 hPa 0,0 l/m 1,2 km/h (1 Bft) SW 220 -4,5 C 6,3 km/h (2 Bft) 100 %
13.02.2018 06:27 -3,8 C 95 % 1015,3 hPa 0,0 l/m 0,4 km/h (0 Bft) N 358 -4,5 C 3,1 km/h (1 Bft) 96 %
13.02.2018 06:28 -3,8 C 95 % 1015,3 hPa 0,0 l/m 0,5 km/h (0 Bft) N-NW 348 -4,5 C 3,1 km/h (1 Bft) 100 %
13.02.2018 06:29 -3,8 C 95 % 1015,3 hPa 0,0 l/m 0,8 km/h (0 Bft) W 267 -4,5 C 3,1 km/h (1 Bft) 100 %
13.02.2018 06:30 -3,8 C 95 % 1015,2 hPa 0,0 l/m 0,7 km/h (0 Bft) W 281 -4,5 C 6,3 km/h (2 Bft) 100 %
13.02.2018 06:31 -3,8 C 95 % 1015,3 hPa 0,0 l/m 1,2 km/h (1 Bft) W-NW 298 -4,5 C 3,1 km/h (1 Bft) 92 %
13.02.2018 06:32 -3,8 C 95 % 1015,3 hPa 0,0 l/m 0,1 km/h (0 Bft) W 276 -4,5 C 3,1 km/h (1 Bft) 100 %
13.02.2018 06:33 -3,9 C 95 % 1015,3 hPa 0,0 l/m 0,2 km/h (0 Bft) W-NW 300 -4,6 C 3,1 km/h (1 Bft) 100 %
13.02.2018 06:34 -3,9 C 95 % 1015,3 hPa 0,0 l/m 0,0 km/h (0 Bft) W-NW 285 -4,6 C 0,0 km/h (0 Bft) 96 %
13.02.2018 06:35 -3,9 C 95 % 1015,3 hPa 0,0 l/m 0,0 km/h (0 Bft) W-SW 252 -4,6 C 0,0 km/h (0 Bft) 100 %
13.02.2018 06:36 -3,9 C 95 % 1015,2 hPa 0,0 l/m 0,1 km/h (0 Bft) W-SW 252 -4,6 C 3,1 km/h (1 Bft) 100 %
13.02.2018 06:37 -3,9 C 95 % 1015,3 hPa 0,0 l/m 0,5 km/h (0 Bft) NW 304 -4,6 C 3,1 km/h (1 Bft) 100 %
13.02.2018 06:38 -3,9 C 95 % 1015,2 hPa 0,0 l/m 0,0 km/h (0 Bft) SO 141 -4,6 C 0,0 km/h (0 Bft) 100 %
13.02.2018 06:39 -3,9 C 95 % 1015,3 hPa 0,0 l/m 0,0 km/h (0 Bft) NW 311 -4,6 C 0,0 km/h (0 Bft) 100 %
13.02.2018 06:40 -3,9 C 95 % 1015,2 hPa 0,0 l/m 3,0 km/h (1 Bft) NW 320 -4,6 C 6,3 km/h (2 Bft) 100 %
13.02.2018 06:41 -3,9 C 95 % 1015,2 hPa 0,0 l/m 0,1 km/h (0 Bft) W 262 -4,6 C 3,1 km/h (1 Bft) 100 %
13.02.2018 06:42 -3,9 C 95 % 1015,2 hPa 0,0 l/m 0,1 km/h (0 Bft) W 268 -4,6 C 3,1 km/h (1 Bft) 100 %
13.02.2018 06:43 -4,0 C 95 % 1015,2 hPa 0,0 l/m 0,8 km/h (0 Bft) W-SW 241 -4,7 C 6,3 km/h (2 Bft) 100 %
13.02.2018 06:44 -4,0 C 95 % 1015,2 hPa 0,0 l/m 0,3 km/h (0 Bft) W-NW 295 -4,7 C 3,1 km/h (1 Bft) 100 %
13.02.2018 06:45 -4,0 C 95 % 1015,2 hPa 0,0 l/m 1,0 km/h (0 Bft) W-NW 301 -4,7 C 3,1 km/h (1 Bft) 100 %
13.02.2018 06:46 -4,0 C 95 % 1015,2 hPa 0,0 l/m 0,5 km/h (0 Bft) W-NW 289 -4,7 C 3,1 km/h (1 Bft) 100 %
13.02.2018 06:47 -4,0 C 95 % 1015,2 hPa 0,0 l/m 0,3 km/h (0 Bft) N-NO 33 -4,7 C 3,1 km/h (1 Bft) 100 %
13.02.2018 06:48 -4,0 C 95 % 1015,2 hPa 0,0 l/m 0,0 km/h (0 Bft) W 271 -4,7 C 0,0 km/h (0 Bft) 100 %
13.02.2018 06:49 -4,0 C 95 % 1015,2 hPa 0,0 l/m 0,7 km/h (0 Bft) W 271 -4,7 C 3,1 km/h (1 Bft) 100 %
13.02.2018 06:50 -4,0 C 95 % 1015,2 hPa 0,0 l/m 0,0 km/h (0 Bft) W 271 -4,7 C 0,0 km/h (0 Bft) 100 %
13.02.2018 06:51 -4,1 C 95 % 1015,2 hPa 0,0 l/m 0,1 km/h (0 Bft) S-SW 207 -4,8 C 3,1 km/h (1 Bft) 100 %
13.02.2018 06:52 -4,1 C 95 % 1015,2 hPa 0,0 l/m 0,9 km/h (0 Bft) SW 220 -4,8 C 3,1 km/h (1 Bft) 100 %
13.02.2018 06:53 -4,1 C 95 % 1015,2 hPa 0,0 l/m 0,0 km/h (0 Bft) W-NW 300 -4,8 C 0,0 km/h (0 Bft) 100 %
13.02.2018 06:54 -4,1 C 95 % 1015,2 hPa 0,0 l/m 0,0 km/h (0 Bft) SW 230 -4,8 C 0,0 km/h (0 Bft) 100 %
13.02.2018 06:55 -4,1 C 95 % 1015,2 hPa 0,0 l/m 0,0 km/h (0 Bft) SW 230 -4,8 C 0,0 km/h (0 Bft) 100 %
13.02.2018 06:56 -4,1 C 95 % 1015,1 hPa 0,0 l/m 0,0 km/h (0 Bft) S 174 -4,8 C 0,0 km/h (0 Bft) 100 %
13.02.2018 06:57 -4,1 C 95 % 1015,2 hPa 0,0 l/m 0,0 km/h (0 Bft) S-SO 151 -4,8 C 0,0 km/h (0 Bft) 100 %
13.02.2018 06:58 -4,1 C 95 % 1015,2 hPa 0,0 l/m 1,6 km/h (1 Bft) SW 225 -4,8 C 6,3 km/h (2 Bft) 100 %
13.02.2018 06:59 -4,2 C 95 % 1015,3 hPa 0,0 l/m 0,0 km/h (0 Bft) SW 214 -4,9 C 0,0 km/h (0 Bft) 100 %
13.02.2018 07:00 -4,2 C 95 % 1015,2 hPa 0,0 l/m 0,1 km/h (0 Bft) NW 318 -4,9 C 3,1 km/h (1 Bft) 100 %
13.02.2018 07:01 -4,2 C 95 % 1015,2 hPa 0,0 l/m 2,5 km/h (1 Bft) W 271 -4,9 C 6,3 km/h (2 Bft) 100 %
13.02.2018 07:02 -4,1 C 95 % 1015,3 hPa 0,0 l/m 0,0 km/h (0 Bft) W-SW 238 -4,8 C 0,0 km/h (0 Bft) 100 %
13.02.2018 07:03 -4,1 C 95 % 1015,3 hPa 0,0 l/m 0,4 km/h (0 Bft) S-SW 206 -4,8 C 3,1 km/h (1 Bft) 100 %
13.02.2018 07:04 -4,1 C 95 % 1015,2 hPa 0,0 l/m 0,5 km/h (0 Bft) W 263 -4,8 C 3,1 km/h (1 Bft) 100 %
13.02.2018 07:05 -4,1 C 95 % 1015,2 hPa 0,0 l/m 0,0 km/h (0 Bft) W-SW 252 -4,8 C 0,0 km/h (0 Bft) 99 %
13.02.2018 07:06 -4,1 C 95 % 1015,2 hPa 0,0 l/m 0,0 km/h (0 Bft) NW 304 -4,8 C 0,0 km/h (0 Bft) 100 %
13.02.2018 07:07 -4,1 C 95 % 1015,2 hPa 0,0 l/m 0,4 km/h (0 Bft) SW 220 -4,8 C 3,1 km/h (1 Bft) 100 %
13.02.2018 07:08 -4,1 C 95 % 1015,3 hPa 0,0 l/m 3,7 km/h (1 Bft) NW 307 -4,8 C 6,3 km/h (2 Bft) 100 %
13.02.2018 07:09 -4,1 C 95 % 1015,3 hPa 0,0 l/m 0,5 km/h (0 Bft) W-NW 303 -4,8 C 3,1 km/h (1 Bft) 100 %
13.02.2018 07:10 -4,2 C 95 % 1015,3 hPa 0,0 l/m 0,3 km/h (0 Bft) S-SO 167 -4,9 C 3,1 km/h (1 Bft) 100 %
13.02.2018 07:11 -4,2 C 95 % 1015,3 hPa 0,0 l/m 2,2 km/h (1 Bft) SW 218 -4,9 C 9,4 km/h (2 Bft) 100 %
13.02.2018 07:12 -4,2 C 95 % 1015,3 hPa 0,0 l/m 0,3 km/h (0 Bft) W 262 -4,9 C 3,1 km/h (1 Bft) 100 %
13.02.2018 07:13 -4,2 C 95 % 1015,3 hPa 0,0 l/m 0,4 km/h (0 Bft) N-NW 327 -4,9 C 3,1 km/h (1 Bft) 100 %
13.02.2018 07:14 -4,2 C 95 % 1015,3 hPa 0,0 l/m 0,8 km/h (0 Bft) SW 226 -4,9 C 3,1 km/h (1 Bft) 100 %
13.02.2018 07:15 -4,2 C 95 % 1015,3 hPa 0,0 l/m 0,1 km/h (0 Bft) W 265 -4,9 C 3,1 km/h (1 Bft) 100 %
13.02.2018 07:16 -4,2 C 95 % 1015,3 hPa 0,0 l/m 0,0 km/h (0 Bft) N-NO 30 -4,9 C 0,0 km/h (0 Bft) 100 %
13.02.2018 07:17 -4,2 C 95 % 1015,2 hPa 0,0 l/m 0,0 km/h (0 Bft) N-NO 30 -4,9 C 0,0 km/h (0 Bft) 100 %
13.02.2018 07:18 -4,3 C 95 % 1015,3 hPa 0,0 l/m 1,3 km/h (1 Bft) SW 218 -5,0 C 3,1 km/h (1 Bft) 100 %
13.02.2018 07:19 -4,3 C 95 % 1015,3 hPa 0,0 l/m 0,3 km/h (0 Bft) W-NW 288 -5,0 C 3,1 km/h (1 Bft) 100 %
13.02.2018 07:20 -4,3 C 95 % 1015,2 hPa 0,0 l/m 2,1 km/h (1 Bft) SW 222 -5,0 C 6,3 km/h (2 Bft) 100 %
13.02.2018 07:21 -4,3 C 95 % 1015,2 hPa 0,0 l/m 0,2 km/h (0 Bft) SW 218 -5,0 C 3,1 km/h (1 Bft) 100 %
13.02.2018 07:22 -4,3 C 95 % 1015,2 hPa 0,0 l/m 2,4 km/h (1 Bft) S-SW 193 -5,0 C 9,4 km/h (2 Bft) 100 %
13.02.2018 07:23 -4,2 C 95 % 1015,2 hPa 0,0 l/m 0,5 km/h (0 Bft) W-NW 291 -4,9 C 3,1 km/h (1 Bft) 100 %
13.02.2018 07:24 -4,2 C 95 % 1015,2 hPa 0,0 l/m 0,0 km/h (0 Bft) NW 314 -4,9 C 0,0 km/h (0 Bft) 100 %
13.02.2018 07:25 -4,2 C 95 % 1015,2 hPa 0,0 l/m 0,8 km/h (0 Bft) W-NW 285 -4,9 C 3,1 km/h (1 Bft) 100 %
13.02.2018 07:26 -4,2 C 95 % 1015,3 hPa 0,0 l/m 1,3 km/h (1 Bft) W 259 -4,9 C 6,3 km/h (2 Bft) 100 %
13.02.2018 07:27 -4,2 C 95 % 1015,3 hPa 0,0 l/m 2,0 km/h (1 Bft) SW 218 -4,9 C 6,3 km/h (2 Bft) 100 %
13.02.2018 07:28 -4,2 C 95 % 1015,2 hPa 0,0 l/m 0,2 km/h (0 Bft) SW 236 -4,9 C 3,1 km/h (1 Bft) 100 %
13.02.2018 07:29 -4,2 C 95 % 1015,2 hPa 0,0 l/m 1,4 km/h (1 Bft) W-SW 256 -4,9 C 3,1 km/h (1 Bft) 100 %
13.02.2018 07:30 -4,2 C 95 % 1015,2 hPa 0,0 l/m 0,0 km/h (0 Bft) W-SW 238 -4,9 C 0,0 km/h (0 Bft) 100 %
13.02.2018 07:31 -4,2 C 95 % 1015,2 hPa 0,0 l/m 4,5 km/h (1 Bft) W-NW 301 -4,9 C 9,4 km/h (2 Bft) 99 %
13.02.2018 07:32 -4,2 C 95 % 1015,3 hPa 0,0 l/m 0,3 km/h (0 Bft) NW 316 -4,9 C 3,1 km/h (1 Bft) 100 %
13.02.2018 07:33 -4,2 C 95 % 1015,3 hPa 0,0 l/m 4,7 km/h (1 Bft) S-SW 205 -4,9 C 9,4 km/h (2 Bft) 100 %
13.02.2018 07:34 -4,2 C 95 % 1015,2 hPa 0,0 l/m 3,6 km/h (1 Bft) SW 229 -4,9 C 6,3 km/h (2 Bft) 100 %
13.02.2018 07:35 -4,2 C 95 % 1015,3 hPa 0,0 l/m 1,6 km/h (1 Bft) W-SW 242 -4,9 C 6,3 km/h (2 Bft) 100 %
13.02.2018 07:36 -4,2 C 95 % 1015,2 hPa 0,0 l/m 3,8 km/h (1 Bft) SW 233 -4,9 C 6,3 km/h (2 Bft) 100 %
13.02.2018 07:37 -4,2 C 95 % 1015,3 hPa 0,0 l/m 0,0 km/h (0 Bft) SW 236 -4,9 C 0,0 km/h (0 Bft) 100 %
13.02.2018 07:38 -4,2 C 95 % 1015,3 hPa 0,0 l/m 0,8 km/h (0 Bft) W 271 -4,9 C 6,3 km/h (2 Bft) 100 %
13.02.2018 07:39 -4,2 C 95 % 1015,3 hPa 0,0 l/m 1,8 km/h (1 Bft) W-NW 293 -4,9 C 6,3 km/h (2 Bft) 96 %
13.02.2018 07:40 -4,2 C 95 % 1015,3 hPa 0,0 l/m 0,0 km/h (0 Bft) W-NW 283 -4,9 C 0,0 km/h (0 Bft) 100 %
13.02.2018 07:41 -4,2 C 95 % 1015,3 hPa 0,0 l/m 0,8 km/h (0 Bft) SW 223 -4,9 C 3,1 km/h (1 Bft) 100 %
13.02.2018 07:42 -4,2 C 95 % 1015,3 hPa 0,0 l/m 0,3 km/h (0 Bft) S-SW 207 -4,9 C 3,1 km/h (1 Bft) 100 %
13.02.2018 07:43 -4,2 C 95 % 1015,3 hPa 0,0 l/m 0,0 km/h (0 Bft) S-SW 207 -4,9 C 0,0 km/h (0 Bft) 100 %
13.02.2018 07:44 -4,2 C 95 % 1015,3 hPa 0,0 l/m 0,1 km/h (0 Bft) S-SW 207 -4,9 C 3,1 km/h (1 Bft) 100 %
13.02.2018 07:45 -4,2 C 95 % 1015,3 hPa 0,0 l/m 0,9 km/h (0 Bft) NO 56 -4,9 C 6,3 km/h (2 Bft) 100 %
13.02.2018 07:46 -4,2 C 95 % 1015,3 hPa 0,0 l/m 0,1 km/h (0 Bft) W-NW 293 -4,9 C 3,1 km/h (1 Bft) 100 %
13.02.2018 07:47 -4,1 C 95 % 1015,3 hPa 0,0 l/m 0,5 km/h (0 Bft) W-SW 246 -4,8 C 3,1 km/h (1 Bft) 100 %
13.02.2018 07:48 -4,1 C 95 % 1015,3 hPa 0,0 l/m 0,1 km/h (0 Bft) O 90 -4,8 C 3,1 km/h (1 Bft) 100 %
13.02.2018 07:49 -4,1 C 95 % 1015,4 hPa 0,0 l/m 0,0 km/h (0 Bft) O 94 -4,8 C 0,0 km/h (0 Bft) 100 %
13.02.2018 07:50 -4,1 C 95 % 1015,3 hPa 0,0 l/m 0,0 km/h (0 Bft) O 94 -4,8 C 0,0 km/h (0 Bft) 100 %
13.02.2018 07:51 -4,1 C 95 % 1015,3 hPa 0,0 l/m 1,6 km/h (1 Bft) S-SW 202 -4,8 C 9,4 km/h (2 Bft) 96 %
13.02.2018 07:52 -4,1 C 95 % 1015,4 hPa 0,0 l/m 1,3 km/h (1 Bft) W-SW 240 -4,8 C 6,3 km/h (2 Bft) 100 %
13.02.2018 07:53 -4,1 C 95 % 1015,4 hPa 0,0 l/m 0,0 km/h (0 Bft) W-SW 241 -4,8 C 0,0 km/h (0 Bft) 96 %
13.02.2018 07:54 -4,1 C 95 % 1015,3 hPa 0,0 l/m 0,7 km/h (0 Bft) NW 312 -4,8 C 3,1 km/h (1 Bft) 100 %
13.02.2018 07:55 -4,1 C 95 % 1015,3 hPa 0,0 l/m 1,2 km/h (1 Bft) W-SW 239 -4,8 C 3,1 km/h (1 Bft) 96 %
13.02.2018 07:56 -4,1 C 95 % 1015,3 hPa 0,0 l/m 0,0 km/h (0 Bft) SW 226 -4,8 C 0,0 km/h (0 Bft) 100 %
13.02.2018 07:57 -4,1 C 95 % 1015,3 hPa 0,0 l/m 0,0 km/h (0 Bft) SW 226 -4,8 C 0,0 km/h (0 Bft) 96 %
13.02.2018 07:58 -4,1 C 95 % 1015,3 hPa 0,0 l/m 0,0 km/h (0 Bft) S-SW 205 -4,8 C 0,0 km/h (0 Bft) 100 %
13.02.2018 07:59 -4,1 C 95 % 1015,4 hPa 0,0 l/m 0,0 km/h (0 Bft) S-SO 158 -4,8 C 0,0 km/h (0 Bft) 96 %
13.02.2018 08:00 -4,1 C 95 % 1015,3 hPa 0,0 l/m 0,0 km/h (0 Bft) S-SO 158 -4,8 C 0,0 km/h (0 Bft) 96 %
13.02.2018 08:01 -4,1 C 95 % 1015,4 hPa 0,0 l/m 0,0 km/h (0 Bft) S-SO 159 -4,8 C 0,0 km/h (0 Bft) 100 %
13.02.2018 08:02 -4,1 C 95 % 1015,4 hPa 0,0 l/m 0,0 km/h (0 Bft) S-SO 159 -4,8 C 0,0 km/h (0 Bft) 96 %
13.02.2018 08:03 -4,1 C 95 % 1015,4 hPa 0,0 l/m 0,0 km/h (0 Bft) S-SO 159 -4,8 C 0,0 km/h (0 Bft) 100 %
13.02.2018 08:04 -4,1 C 95 % 1015,4 hPa 0,0 l/m 0,0 km/h (0 Bft) S-SO 159 -4,8 C 0,0 km/h (0 Bft) 96 %
13.02.2018 08:05 -4,1 C 95 % 1015,4 hPa 0,0 l/m 0,0 km/h (0 Bft) S-SO 159 -4,8 C 0,0 km/h (0 Bft) 100 %
13.02.2018 08:06 -4,1 C 95 % 1015,4 hPa 0,0 l/m 0,0 km/h (0 Bft) S-SO 159 -4,8 C 0,0 km/h (0 Bft) 96 %
13.02.2018 08:07 -4,1 C 95 % 1015,4 hPa 0,0 l/m 0,1 km/h (0 Bft) O 82 -4,8 C 3,1 km/h (1 Bft) 100 %
13.02.2018 08:08 -4,1 C 95 % 1015,3 hPa 0,0 l/m 0,8 km/h (0 Bft) S-SO 167 -4,8 C 3,1 km/h (1 Bft) 100 %
13.02.2018 08:09 -4,1 C 95 % 1015,4 hPa 0,0 l/m 0,0 km/h (0 Bft) S-SO 167 -4,8 C 0,0 km/h (0 Bft) 100 %
13.02.2018 08:10 -4,1 C 95 % 1015,4 hPa 0,0 l/m 0,5 km/h (0 Bft) SW 217 -4,8 C 3,1 km/h (1 Bft) 96 %
13.02.2018 08:11 -4,1 C 95 % 1015,4 hPa 0,0 l/m 0,8 km/h (0 Bft) W-SW 240 -4,8 C 3,1 km/h (1 Bft) 100 %
13.02.2018 08:12 -4,1 C 95 % 1015,3 hPa 0,0 l/m 1,3 km/h (1 Bft) O-NO 68 -4,8 C 3,1 km/h (1 Bft) 96 %
13.02.2018 08:13 -4,0 C 95 % 1015,3 hPa 0,0 l/m 1,3 km/h (1 Bft) W-NW 284 -4,7 C 6,3 km/h (2 Bft) 100 %
13.02.2018 08:14 -4,0 C 95 % 1015,3 hPa 0,0 l/m 0,9 km/h (0 Bft) W 281 -4,7 C 9,4 km/h (2 Bft) 96 %
13.02.2018 08:15 -3,9 C 95 % 1015,3 hPa 0,0 l/m 0,4 km/h (0 Bft) W-SW 247 -4,6 C 6,3 km/h (2 Bft) 100 %
13.02.2018 08:16 -3,9 C 95 % 1015,3 hPa 0,0 l/m 1,6 km/h (1 Bft) S-SW 205 -4,6 C 6,3 km/h (2 Bft) 100 %
13.02.2018 08:17 -3,9 C 95 % 1015,3 hPa 0,0 l/m 0,3 km/h (0 Bft) N-NW 347 -4,6 C 3,1 km/h (1 Bft) 100 %
13.02.2018 08:18 -3,9 C 95 % 1015,3 hPa 0,0 l/m 0,1 km/h (0 Bft) W-NW 300 -4,6 C 3,1 km/h (1 Bft) 100 %
13.02.2018 08:19 -3,9 C 95 % 1015,3 hPa 0,0 l/m 0,4 km/h (0 Bft) W-NW 302 -4,6 C 3,1 km/h (1 Bft) 100 %
13.02.2018 08:20 -3,9 C 95 % 1015,3 hPa 0,0 l/m 0,0 km/h (0 Bft) W-NW 302 -4,6 C 0,0 km/h (0 Bft) 100 %
13.02.2018 08:21 -3,9 C 95 % 1015,3 hPa 0,0 l/m 0,7 km/h (0 Bft) W-NW 286 -4,6 C 3,1 km/h (1 Bft) 100 %
13.02.2018 08:22 -3,9 C 95 % 1015,3 hPa 0,0 l/m 0,3 km/h (0 Bft) SW 232 -4,6 C 3,1 km/h (1 Bft) 100 %
13.02.2018 08:23 -3,9 C 95 % 1015,3 hPa 0,0 l/m 0,4 km/h (0 Bft) W-SW 237 -4,6 C 3,1 km/h (1 Bft) 100 %
13.02.2018 08:24 -3,8 C 95 % 1015,3 hPa 0,0 l/m 1,6 km/h (1 Bft) W 262 -4,5 C 3,1 km/h (1 Bft) 100 %
13.02.2018 08:25 -3,8 C 95 % 1015,3 hPa 0,0 l/m 0,0 km/h (0 Bft) W 262 -4,5 C 0,0 km/h (0 Bft) 100 %
13.02.2018 08:26 -3,8 C 95 % 1015,2 hPa 0,0 l/m 0,3 km/h (0 Bft) W-SW 254 -4,5 C 3,1 km/h (1 Bft) 100 %
13.02.2018 08:27 -3,8 C 95 % 1015,3 hPa 0,0 l/m 0,5 km/h (0 Bft) SW 223 -4,5 C 3,1 km/h (1 Bft) 100 %
13.02.2018 08:28 -3,8 C 95 % 1015,3 hPa 0,0 l/m 0,8 km/h (0 Bft) W-NW 283 -4,5 C 3,1 km/h (1 Bft) 100 %
13.02.2018 08:29 -3,8 C 95 % 1015,3 hPa 0,0 l/m 1,5 km/h (1 Bft) SW 231 -4,5 C 6,3 km/h (2 Bft) 100 %
13.02.2018 08:30 -3,8 C 95 % 1015,3 hPa 0,0 l/m 1,6 km/h (1 Bft) W-SW 250 -4,5 C 6,3 km/h (2 Bft) 100 %
13.02.2018 08:31 -3,7 C 95 % 1015,3 hPa 0,0 l/m 0,0 km/h (0 Bft) W-SW 256 -4,4 C 0,0 km/h (0 Bft) 100 %
13.02.2018 08:32 -3,7 C 95 % 1015,3 hPa 0,0 l/m 1,4 km/h (1 Bft) SW 236 -4,4 C 3,1 km/h (1 Bft) 100 %
13.02.2018 08:33 -3,7 C 95 % 1015,3 hPa 0,0 l/m 0,3 km/h (0 Bft) NW 311 -4,4 C 3,1 km/h (1 Bft) 100 %
13.02.2018 08:34 -3,7 C 95 % 1015,3 hPa 0,0 l/m 1,1 km/h (1 Bft) W-SW 242 -4,4 C 6,3 km/h (2 Bft) 100 %
13.02.2018 08:35 -3,7 C 95 % 1015,3 hPa 0,0 l/m 3,1 km/h (1 Bft) NW 310 -4,4 C 15,7 km/h (3 Bft) 100 %
13.02.2018 08:36 -3,7 C 94 % 1015,3 hPa 0,0 l/m 5,6 km/h (1 Bft) W 271 -4,5 C 18,8 km/h (3 Bft) 100 %
13.02.2018 08:37 -3,7 C 94 % 1015,3 hPa 0,0 l/m 1,4 km/h (1 Bft) W-NW 285 -4,5 C 3,1 km/h (1 Bft) 100 %
13.02.2018 08:38 -3,7 C 94 % 1015,3 hPa 0,0 l/m 5,2 km/h (1 Bft) S-SW 211 -4,5 C 9,4 km/h (2 Bft) 100 %
13.02.2018 08:39 -3,7 C 94 % 1015,3 hPa 0,0 l/m 1,0 km/h (0 Bft) W 281 -4,5 C 3,1 km/h (1 Bft) 100 %
13.02.2018 08:40 -3,7 C 94 % 1015,3 hPa 0,0 l/m 2,3 km/h (1 Bft) NW 309 -4,5 C 6,3 km/h (2 Bft) 100 %
13.02.2018 08:41 -3,7 C 94 % 1015,4 hPa 0,0 l/m 2,7 km/h (1 Bft) W-NW 290 -4,5 C 6,3 km/h (2 Bft) 100 %
13.02.2018 08:42 -3,7 C 94 % 1015,4 hPa 0,0 l/m 3,3 km/h (1 Bft) W-NW 293 -4,5 C 9,4 km/h (2 Bft) 100 %
13.02.2018 08:43 -3,7 C 94 % 1015,3 hPa 0,0 l/m 1,0 km/h (0 Bft) SW 216 -4,5 C 3,1 km/h (1 Bft) 100 %
13.02.2018 08:44 -3,7 C 94 % 1015,4 hPa 0,0 l/m 3,1 km/h (1 Bft) S-SW 210 -4,5 C 9,4 km/h (2 Bft) 100 %
13.02.2018 08:45 -3,7 C 94 % 1015,4 hPa 0,0 l/m 0,7 km/h (0 Bft) W-SW 257 -4,5 C 6,3 km/h (2 Bft) 100 %
13.02.2018 08:46 -3,7 C 94 % 1015,4 hPa 0,0 l/m 4,5 km/h (1 Bft) W 280 -4,5 C 9,4 km/h (2 Bft) 100 %
13.02.2018 08:47 -3,7 C 94 % 1015,4 hPa 0,0 l/m 2,1 km/h (1 Bft) W-NW 293 -4,5 C 6,3 km/h (2 Bft) 100 %
13.02.2018 08:48 -3,6 C 94 % 1015,5 hPa 0,0 l/m 2,4 km/h (1 Bft) W-NW 285 -4,4 C 6,3 km/h (2 Bft) 100 %
13.02.2018 08:49 -3,6 C 94 % 1015,5 hPa 0,0 l/m 2,9 km/h (1 Bft) W-SW 254 -4,4 C 9,4 km/h (2 Bft) 100 %
13.02.2018 08:50 -3,6 C 94 % 1015,4 hPa 0,0 l/m 0,5 km/h (0 Bft) S-SW 212 -4,4 C 3,1 km/h (1 Bft) 100 %
13.02.2018 08:51 -3,6 C 94 % 1015,4 hPa 0,0 l/m 1,2 km/h (1 Bft) SW 215 -4,4 C 3,1 km/h (1 Bft) 100 %
13.02.2018 08:52 -3,6 C 94 % 1015,4 hPa 0,0 l/m 0,8 km/h (0 Bft) W-SW 238 -4,4 C 3,1 km/h (1 Bft) 100 %
13.02.2018 08:53 -3,6 C 94 % 1015,4 hPa 0,0 l/m 1,2 km/h (1 Bft) SW 222 -4,4 C 6,3 km/h (2 Bft) 100 %
13.02.2018 08:54 -3,6 C 94 % 1015,3 hPa 0,0 l/m 4,4 km/h (1 Bft) W-NW 296 -4,4 C 9,4 km/h (2 Bft) 100 %
13.02.2018 08:55 -3,6 C 94 % 1015,4 hPa 0,0 l/m 5,5 km/h (1 Bft) NW 305 -4,4 C 9,4 km/h (2 Bft) 100 %
13.02.2018 08:56 -3,6 C 94 % 1015,4 hPa 0,0 l/m 1,2 km/h (1 Bft) W-SW 249 -4,4 C 3,1 km/h (1 Bft) 100 %
13.02.2018 08:57 -3,6 C 94 % 1015,4 hPa 0,0 l/m 2,0 km/h (1 Bft) W 259 -4,4 C 3,1 km/h (1 Bft) 94 %
13.02.2018 08:58 -3,5 C 94 % 1015,4 hPa 0,0 l/m 0,9 km/h (0 Bft) W 275 -4,3 C 3,1 km/h (1 Bft) 100 %
13.02.2018 08:59 -3,5 C 94 % 1015,5 hPa 0,0 l/m 0,8 km/h (0 Bft) SW 234 -4,3 C 6,3 km/h (2 Bft) 100 %
13.02.2018 09:00 -3,5 C 94 % 1015,4 hPa 0,0 l/m 1,9 km/h (1 Bft) W-SW 245 -4,3 C 6,3 km/h (2 Bft) 100 %
13.02.2018 09:01 -3,4 C 94 % 1015,4 hPa 0,0 l/m 6,8 km/h (2 Bft) W 276 -4,2 C 15,7 km/h (3 Bft) 100 %
13.02.2018 09:02 -3,4 C 94 % 1015,4 hPa 0,0 l/m 5,3 km/h (1 Bft) W 275 -4,2 C 9,4 km/h (2 Bft) 100 %
13.02.2018 09:03 -3,4 C 94 % 1015,4 hPa 0,0 l/m 3,5 km/h (1 Bft) W-NW 300 -4,2 C 9,4 km/h (2 Bft) 88 %
13.02.2018 09:04 -3,4 C 93 % 1015,4 hPa 0,0 l/m 8,9 km/h (2 Bft) NW 311 -4,4 C 15,7 km/h (3 Bft) 96 %
13.02.2018 09:05 -3,4 C 93 % 1015,5 hPa 0,0 l/m 5,4 km/h (1 Bft) W 269 -4,4 C 9,4 km/h (2 Bft) 100 %
13.02.2018 09:06 -3,3 C 93 % 1015,4 hPa 0,0 l/m 6,4 km/h (2 Bft) SW 214 -4,3 C 12,6 km/h (3 Bft) 100 %
13.02.2018 09:07 -3,3 C 93 % 1015,4 hPa 0,0 l/m 8,3 km/h (2 Bft) S-SW 200 -4,3 C 15,7 km/h (3 Bft) 100 %
13.02.2018 09:08 -3,3 C 93 % 1015,4 hPa 0,0 l/m 4,6 km/h (1 Bft) W-NW 287 -4,3 C 12,6 km/h (3 Bft) 100 %
13.02.2018 09:09 -3,3 C 93 % 1015,4 hPa 0,0 l/m 5,4 km/h (1 Bft) S-SW 205 -4,3 C 15,7 km/h (3 Bft) 100 %
13.02.2018 09:10 -3,2 C 93 % 1015,3 hPa 0,0 l/m 5,1 km/h (1 Bft) W-SW 257 -4,2 C 22,0 km/h (4 Bft) 100 %
13.02.2018 09:11 -3,2 C 93 % 1015,4 hPa 0,0 l/m 1,6 km/h (1 Bft) S-SW 204 -4,2 C 9,4 km/h (2 Bft) 96 %
13.02.2018 09:12 -3,2 C 93 % 1015,4 hPa 0,0 l/m 0,3 km/h (0 Bft) N-NW 331 -4,2 C 3,1 km/h (1 Bft) 100 %
13.02.2018 09:13 -3,2 C 93 % 1015,4 hPa 0,0 l/m 4,7 km/h (1 Bft) W-NW 303 -4,2 C 18,8 km/h (3 Bft) 100 %
13.02.2018 09:14 -3,2 C 93 % 1015,3 hPa 0,0 l/m 2,0 km/h (1 Bft) W-SW 241 -4,2 C 9,4 km/h (2 Bft) 100 %
13.02.2018 09:15 -3,2 C 93 % 1015,3 hPa 0,0 l/m 6,7 km/h (2 Bft) S-SW 205 -4,2 C 15,7 km/h (3 Bft) 100 %
13.02.2018 09:16 -3,2 C 93 % 1015,4 hPa 0,0 l/m 6,1 km/h (2 Bft) W-NW 288 -4,2 C 12,6 km/h (3 Bft) 100 %
13.02.2018 09:17 -3,1 C 93 % 1015,4 hPa 0,0 l/m 3,4 km/h (1 Bft) W-SW 257 -4,1 C 6,3 km/h (2 Bft) 100 %
13.02.2018 09:18 -3,1 C 93 % 1015,4 hPa 0,0 l/m 0,2 km/h (0 Bft) S 181 -4,1 C 3,1 km/h (1 Bft) 100 %
13.02.2018 09:19 -3,1 C 93 % 1015,4 hPa 0,0 l/m 7,7 km/h (2 Bft) W-SW 247 -4,1 C 15,7 km/h (3 Bft) 100 %
13.02.2018 09:20 -3,1 C 93 % 1015,4 hPa 0,0 l/m 7,5 km/h (2 Bft) SW 225 -4,1 C 15,7 km/h (3 Bft) 100 %
13.02.2018 09:21 -3,1 C 92 % 1015,4 hPa 0,0 l/m 5,5 km/h (1 Bft) O-SO 116 -4,2 C 12,6 km/h (3 Bft) 100 %
13.02.2018 09:22 -3,1 C 92 % 1015,4 hPa 0,0 l/m 4,1 km/h (1 Bft) N 3 -4,2 C 12,6 km/h (3 Bft) 100 %
13.02.2018 09:23 -3,1 C 92 % 1015,4 hPa 0,0 l/m 4,3 km/h (1 Bft) W-SW 240 -4,2 C 15,7 km/h (3 Bft) 100 %
13.02.2018 09:24 -3,1 C 92 % 1015,4 hPa 0,0 l/m 0,5 km/h (0 Bft) W 262 -4,2 C 6,3 km/h (2 Bft) 100 %
13.02.2018 09:25 -3,1 C 92 % 1015,4 hPa 0,0 l/m 7,2 km/h (2 Bft) SW 215 -4,2 C 15,7 km/h (3 Bft) 100 %
13.02.2018 09:26 -3,1 C 92 % 1015,4 hPa 0,0 l/m 2,1 km/h (1 Bft) W 277 -4,2 C 3,1 km/h (1 Bft) 100 %
13.02.2018 09:27 -3,0 C 92 % 1015,4 hPa 0,0 l/m 3,4 km/h (1 Bft) SW 230 -4,1 C 12,6 km/h (3 Bft) 100 %
13.02.2018 09:28 -3,0 C 92 % 1015,4 hPa 0,0 l/m 2,4 km/h (1 Bft) SW 234 -4,1 C 3,1 km/h (1 Bft) 100 %
13.02.2018 09:29 -3,0 C 92 % 1015,4 hPa 0,0 l/m 3,0 km/h (1 Bft) W-SW 246 -4,1 C 9,4 km/h (2 Bft) 100 %
13.02.2018 09:30 -3,0 C 92 % 1015,4 hPa 0,0 l/m 3,1 km/h (1 Bft) W-SW 246 -4,1 C 6,3 km/h (2 Bft) 100 %
13.02.2018 09:31 -3,0 C 92 % 1015,3 hPa 0,0 l/m 3,3 km/h (1 Bft) SW 221 -4,1 C 12,6 km/h (3 Bft) 100 %
13.02.2018 09:32 -2,9 C 92 % 1015,3 hPa 0,0 l/m 2,7 km/h (1 Bft) SW 217 -4,0 C 6,3 km/h (2 Bft) 96 %
13.02.2018 09:33 -2,9 C 92 % 1015,4 hPa 0,0 l/m 2,0 km/h (1 Bft) SW 214 -4,0 C 6,3 km/h (2 Bft) 100 %
13.02.2018 09:34 -2,9 C 92 % 1015,4 hPa 0,0 l/m 4,4 km/h (1 Bft) S-SO 167 -4,0 C 12,6 km/h (3 Bft) 100 %
13.02.2018 09:35 -2,9 C 92 % 1015,4 hPa 0,0 l/m 11,1 km/h (2 Bft) S-SW 213 -4,0 C 18,8 km/h (3 Bft) 91 %
13.02.2018 09:38 -2,8 C 92 % 1015,3 hPa 0,0 l/m 5,6 km/h (1 Bft) SO 124 -3,9 C 15,7 km/h (3 Bft) 100 %
13.02.2018 09:39 -2,8 C 92 % 1015,3 hPa 0,0 l/m 4,8 km/h (1 Bft) W-SW 238 -3,9 C 9,4 km/h (2 Bft) 63 %
13.02.2018 09:40 -2,8 C 92 % 1015,3 hPa 0,0 l/m 3,4 km/h (1 Bft) W 261 -3,9 C 12,6 km/h (3 Bft) 100 %
13.02.2018 09:42 -2,8 C 92 % 1015,3 hPa 0,0 l/m 5,8 km/h (2 Bft) W 262 -3,9 C 28,2 km/h (4 Bft) 96 %
13.02.2018 09:43 -2,8 C 92 % 1015,3 hPa 0,0 l/m 0,7 km/h (0 Bft) W-NW 297 -3,9 C 3,1 km/h (1 Bft) 100 %
13.02.2018 09:44 -2,7 C 92 % 1015,3 hPa 0,0 l/m 9,9 km/h (2 Bft) SW 231 -3,8 C 25,1 km/h (4 Bft) 96 %
13.02.2018 09:45 -2,7 C 92 % 1015,3 hPa 0,0 l/m 6,4 km/h (2 Bft) SW 214 -3,8 C 18,8 km/h (3 Bft) 100 %
13.02.2018 09:46 -2,7 C 92 % 1015,3 hPa 0,0 l/m 2,0 km/h (1 Bft) W 261 -3,8 C 9,4 km/h (2 Bft) 96 %
13.02.2018 09:47 -2,7 C 92 % 1015,3 hPa 0,0 l/m 7,8 km/h (2 Bft) NO 54 -3,8 C 12,6 km/h (3 Bft) 100 %
13.02.2018 09:48 -2,7 C 91 % 1015,3 hPa 0,0 l/m 1,7 km/h (1 Bft) N 8 -4,0 C 6,3 km/h (2 Bft) 96 %
13.02.2018 09:49 -2,6 C 92 % 1015,3 hPa 0,0 l/m 0,7 km/h (0 Bft) NW 307 -3,7 C 3,1 km/h (1 Bft) 95 %
13.02.2018 09:50 -2,6 C 92 % 1015,3 hPa 0,0 l/m 1,3 km/h (1 Bft) S-SW 212 -3,7 C 6,3 km/h (2 Bft) 95 %
13.02.2018 09:51 -2,6 C 91 % 1015,3 hPa 0,0 l/m 1,8 km/h (1 Bft) W 259 -3,9 C 9,4 km/h (2 Bft) 88 %
13.02.2018 09:52 -2,6 C 91 % 1015,3 hPa 0,0 l/m 0,0 km/h (0 Bft) W-SW 254 -3,9 C 0,0 km/h (0 Bft) 96 %
13.02.2018 09:53 -2,5 C 91 % 1015,3 hPa 0,0 l/m 0,4 km/h (0 Bft) NO 56 -3,8 C 3,1 km/h (1 Bft) 92 %
13.02.2018 09:54 -2,4 C 92 % 1015,3 hPa 0,0 l/m 0,5 km/h (0 Bft) W-SW 244 -3,5 C 3,1 km/h (1 Bft) 100 %
13.02.2018 09:55 -2,4 C 91 % 1015,3 hPa 0,0 l/m 0,1 km/h (0 Bft) W-SW 256 -3,7 C 3,1 km/h (1 Bft) 96 %
13.02.2018 09:56 -2,4 C 91 % 1015,3 hPa 0,0 l/m 2,2 km/h (1 Bft) S 184 -3,7 C 9,4 km/h (2 Bft) 100 %
13.02.2018 09:57 -2,4 C 91 % 1015,3 hPa 0,0 l/m 1,0 km/h (0 Bft) N-NW 327 -3,7 C 3,1 km/h (1 Bft) 97 %
13.02.2018 09:58 -2,4 C 91 % 1015,3 hPa 0,0 l/m 0,4 km/h (0 Bft) O-NO 67 -3,7 C 3,1 km/h (1 Bft) 92 %
13.02.2018 09:59 -2,3 C 91 % 1015,3 hPa 0,0 l/m 1,4 km/h (1 Bft) W-SW 239 -3,6 C 6,3 km/h (2 Bft) 100 %
13.02.2018 10:00 -2,3 C 91 % 1015,3 hPa 0,0 l/m 0,1 km/h (0 Bft) W-SW 240 -3,6 C 3,1 km/h (1 Bft) 92 %
13.02.2018 10:01 -2,3 C 91 % 1015,3 hPa 0,0 l/m 1,7 km/h (1 Bft) O-NO 59 -3,6 C 6,3 km/h (2 Bft) 100 %
13.02.2018 10:02 -2,2 C 91 % 1015,3 hPa 0,0 l/m 0,6 km/h (0 Bft) O-NO 70 -3,5 C 3,1 km/h (1 Bft) 100 %
13.02.2018 10:03 -2,2 C 91 % 1015,3 hPa 0,0 l/m 0,0 km/h (0 Bft) SW 229 -3,5 C 0,0 km/h (0 Bft) 93 %
13.02.2018 10:04 -2,2 C 91 % 1015,3 hPa 0,0 l/m 0,5 km/h (0 Bft) SW 219 -3,5 C 3,1 km/h (1 Bft) 100 %
13.02.2018 10:05 -2,2 C 90 % 1015,3 hPa 0,0 l/m 2,0 km/h (1 Bft) S-SW 207 -3,6 C 9,4 km/h (2 Bft) 100 %
13.02.2018 10:06 -2,2 C 90 % 1015,3 hPa 0,0 l/m 0,3 km/h (0 Bft) SW 225 -3,6 C 3,1 km/h (1 Bft) 100 %
13.02.2018 10:07 -2,1 C 90 % 1015,4 hPa 0,0 l/m 1,2 km/h (1 Bft) W-SW 250 -3,5 C 6,3 km/h (2 Bft) 96 %
13.02.2018 10:08 -2,1 C 90 % 1015,3 hPa 0,0 l/m 1,2 km/h (1 Bft) S-SW 193 -3,5 C 3,1 km/h (1 Bft) 100 %
13.02.2018 10:09 -2,1 C 90 % 1015,3 hPa 0,0 l/m 0,0 km/h (0 Bft) S-SW 194 -3,5 C 0,0 km/h (0 Bft) 100 %
13.02.2018 10:10 -2,1 C 90 % 1015,3 hPa 0,0 l/m 0,1 km/h (0 Bft) W-SW 241 -3,5 C 3,1 km/h (1 Bft) 92 %
13.02.2018 10:11 -2,1 C 90 % 1015,3 hPa 0,0 l/m 1,4 km/h (1 Bft) SW 218 -3,5 C 6,3 km/h (2 Bft) 100 %
13.02.2018 10:12 -2,1 C 90 % 1015,3 hPa 0,0 l/m 0,3 km/h (0 Bft) SW 215 -3,5 C 3,1 km/h (1 Bft) 100 %
13.02.2018 10:13 -2,0 C 90 % 1015,3 hPa 0,0 l/m 0,1 km/h (0 Bft) SW 221 -3,4 C 3,1 km/h (1 Bft) 100 %
13.02.2018 10:14 -2,0 C 90 % 1015,3 hPa 0,0 l/m 0,1 km/h (0 Bft) SW 235 -3,4 C 3,1 km/h (1 Bft) 100 %
13.02.2018 10:15 -1,9 C 90 % 1015,4 hPa 0,0 l/m 0,1 km/h (0 Bft) SW 224 -3,3 C 3,1 km/h (1 Bft) 100 %
13.02.2018 10:16 -1,9 C 90 % 1015,3 hPa 0,0 l/m 1,9 km/h (1 Bft) S-SW 210 -3,3 C 6,3 km/h (2 Bft) 96 %
13.02.2018 10:17 -1,9 C 90 % 1015,3 hPa 0,0 l/m 0,3 km/h (0 Bft) W 259 -3,3 C 3,1 km/h (1 Bft) 100 %
13.02.2018 10:18 -1,9 C 90 % 1015,3 hPa 0,0 l/m 4,5 km/h (1 Bft) SW 223 -3,3 C 12,6 km/h (3 Bft) 100 %
13.02.2018 10:19 -1,9 C 90 % 1015,3 hPa 0,0 l/m 0,0 km/h (0 Bft) SW 223 -3,3 C 0,0 km/h (0 Bft) 100 %
13.02.2018 10:20 -1,8 C 90 % 1015,3 hPa 0,0 l/m 0,0 km/h (0 Bft) SO 138 -3,2 C 0,0 km/h (0 Bft) 100 %
13.02.2018 10:21 -1,8 C 90 % 1015,3 hPa 0,0 l/m 1,5 km/h (1 Bft) SW 228 -3,2 C 6,3 km/h (2 Bft) 100 %
13.02.2018 10:22 -1,8 C 89 % 1015,2 hPa 0,0 l/m 0,7 km/h (0 Bft) W 262 -3,4 C 3,1 km/h (1 Bft) 100 %
13.02.2018 10:23 -1,8 C 89 % 1015,2 hPa 0,0 l/m 4,6 km/h (1 Bft) SW 229 -3,4 C 12,6 km/h (3 Bft) 100 %
13.02.2018 10:24 -1,8 C 89 % 1015,2 hPa 0,0 l/m 0,1 km/h (0 Bft) SW 229 -3,4 C 3,1 km/h (1 Bft) 100 %
13.02.2018 10:25 -1,8 C 89 % 1015,2 hPa 0,0 l/m 0,9 km/h (0 Bft) SW 229 -3,4 C 3,1 km/h (1 Bft) 100 %
13.02.2018 10:26 -1,7 C 89 % 1015,2 hPa 0,0 l/m 0,5 km/h (0 Bft) SW 231 -3,3 C 3,1 km/h (1 Bft) 100 %
13.02.2018 10:27 -1,7 C 89 % 1015,2 hPa 0,0 l/m 0,1 km/h (0 Bft) SW 230 -3,3 C 3,1 km/h (1 Bft) 100 %
13.02.2018 10:28 -1,7 C 89 % 1015,2 hPa 0,0 l/m 0,1 km/h (0 Bft) W 264 -3,3 C 3,1 km/h (1 Bft) 100 %
13.02.2018 10:29 -1,7 C 89 % 1015,2 hPa 0,0 l/m 2,4 km/h (1 Bft) W-SW 238 -3,3 C 9,4 km/h (2 Bft) 100 %
13.02.2018 10:30 -1,7 C 89 % 1015,2 hPa 0,0 l/m 4,3 km/h (1 Bft) SW 226 -3,3 C 9,4 km/h (2 Bft) 100 %
13.02.2018 10:31 -1,6 C 89 % 1015,2 hPa 0,0 l/m 1,3 km/h (1 Bft) SW 225 -3,2 C 6,3 km/h (2 Bft) 100 %
13.02.2018 10:32 -1,6 C 89 % 1015,2 hPa 0,0 l/m 5,2 km/h (1 Bft) S-SW 212 -3,2 C 9,4 km/h (2 Bft) 100 %
13.02.2018 10:33 -1,6 C 89 % 1015,2 hPa 0,0 l/m 5,0 km/h (1 Bft) W-SW 243 -3,2 C 9,4 km/h (2 Bft) 100 %
13.02.2018 10:34 -1,6 C 89 % 1015,1 hPa 0,0 l/m 1,4 km/h (1 Bft) SW 225 -3,2 C 6,3 km/h (2 Bft) 100 %
13.02.2018 10:35 -1,6 C 89 % 1015,2 hPa 0,0 l/m 2,8 km/h (1 Bft) SW 233 -3,2 C 6,3 km/h (2 Bft) 100 %
13.02.2018 10:36 -1,6 C 89 % 1015,2 hPa 0,0 l/m 0,1 km/h (0 Bft) SW 231 -3,2 C 3,1 km/h (1 Bft) 100 %
13.02.2018 10:37 -1,6 C 89 % 1015,2 hPa 0,0 l/m 0,0 km/h (0 Bft) SW 223 -3,2 C 0,0 km/h (0 Bft) 100 %
13.02.2018 10:38 -1,6 C 89 % 1015,1 hPa 0,0 l/m 2,4 km/h (1 Bft) SW 231 -3,2 C 9,4 km/h (2 Bft) 100 %
13.02.2018 10:39 -1,5 C 89 % 1015,1 hPa 0,0 l/m 1,0 km/h (0 Bft) SW 224 -3,1 C 6,3 km/h (2 Bft) 100 %
13.02.2018 10:40 -1,5 C 89 % 1015,1 hPa 0,0 l/m 1,3 km/h (1 Bft) NW 309 -3,1 C 3,1 km/h (1 Bft) 100 %
13.02.2018 10:41 -1,5 C 89 % 1015,1 hPa 0,0 l/m 2,0 km/h (1 Bft) W-SW 256 -3,1 C 6,3 km/h (2 Bft) 100 %
13.02.2018 10:42 -1,4 C 89 % 1015,1 hPa 0,0 l/m 0,9 km/h (0 Bft) W 261 -3,0 C 3,1 km/h (1 Bft) 100 %
13.02.2018 10:43 -1,4 C 89 % 1015,1 hPa 0,0 l/m 0,0 km/h (0 Bft) S-SW 203 -3,0 C 0,0 km/h (0 Bft) 100 %
13.02.2018 10:44 -1,4 C 89 % 1015,1 hPa 0,0 l/m 2,2 km/h (1 Bft) W-SW 240 -3,0 C 6,3 km/h (2 Bft) 100 %
13.02.2018 10:45 -1,4 C 89 % 1015,1 hPa 0,0 l/m 0,0 km/h (0 Bft) S-SW 197 -3,0 C 0,0 km/h (0 Bft) 100 %
13.02.2018 10:46 -1,4 C 89 % 1015,1 hPa 0,0 l/m 0,8 km/h (0 Bft) SW 227 -3,0 C 6,3 km/h (2 Bft) 92 %
13.02.2018 10:47 -1,3 C 89 % 1015,1 hPa 0,0 l/m 0,0 km/h (0 Bft) SW 233 -2,9 C 0,0 km/h (0 Bft) 100 %
13.02.2018 10:48 -1,3 C 89 % 1015,1 hPa 0,0 l/m 2,2 km/h (1 Bft) N-NW 333 -2,9 C 6,3 km/h (2 Bft) 96 %
13.02.2018 10:49 -1,3 C 89 % 1015,1 hPa 0,0 l/m 0,7 km/h (0 Bft) SW 232 -2,9 C 6,3 km/h (2 Bft) 100 %
13.02.2018 10:50 -1,2 C 89 % 1015,1 hPa 0,0 l/m 3,1 km/h (1 Bft) W 261 -2,8 C 6,3 km/h (2 Bft) 100 %
13.02.2018 10:51 -1,2 C 88 % 1015,0 hPa 0,0 l/m 1,2 km/h (1 Bft) W-SW 253 -2,9 C 3,1 km/h (1 Bft) 100 %
13.02.2018 10:52 -1,2 C 88 % 1015,1 hPa 0,0 l/m 1,6 km/h (1 Bft) S 191 -2,9 C 6,3 km/h (2 Bft) 100 %
13.02.2018 10:53 -1,2 C 88 % 1015,1 hPa 0,0 l/m 0,7 km/h (0 Bft) SW 216 -2,9 C 3,1 km/h (1 Bft) 100 %
13.02.2018 10:54 -1,2 C 88 % 1015,1 hPa 0,0 l/m 0,1 km/h (0 Bft) SW 227 -2,9 C 3,1 km/h (1 Bft) 96 %
13.02.2018 10:55 -1,2 C 88 % 1015,0 hPa 0,0 l/m 0,5 km/h (0 Bft) SW 218 -2,9 C 3,1 km/h (1 Bft) 100 %
13.02.2018 10:56 -1,1 C 88 % 1015,0 hPa 0,0 l/m 0,8 km/h (0 Bft) SW 220 -2,8 C 3,1 km/h (1 Bft) 96 %
13.02.2018 10:57 -1,1 C 88 % 1015,0 hPa 0,0 l/m 0,0 km/h (0 Bft) S 181 -2,8 C 0,0 km/h (0 Bft) 100 %
13.02.2018 10:58 -1,1 C 88 % 1015,1 hPa 0,0 l/m 5,8 km/h (2 Bft) W-SW 250 -2,8 C 9,4 km/h (2 Bft) 100 %
13.02.2018 10:59 -1,1 C 88 % 1015,1 hPa 0,0 l/m 1,9 km/h (1 Bft) SW 226 -2,8 C 6,3 km/h (2 Bft) 96 %
13.02.2018 11:00 -1,0 C 88 % 1015,1 hPa 0,0 l/m 0,0 km/h (0 Bft) S-SW 205 -2,7 C 0,0 km/h (0 Bft) 85 %
13.02.2018 11:01 -1,0 C 88 % 1015,1 hPa 0,0 l/m 0,0 km/h (0 Bft) S-SW 205 -2,7 C 0,0 km/h (0 Bft) 100 %
13.02.2018 11:02 -0,9 C 88 % 1015,1 hPa 0,0 l/m 1,7 km/h (1 Bft) W-SW 241 -2,6 C 6,3 km/h (2 Bft) 100 %
13.02.2018 11:03 -0,9 C 88 % 1015,1 hPa 0,0 l/m 2,0 km/h (1 Bft) W-NW 288 -2,6 C 6,3 km/h (2 Bft) 100 %
13.02.2018 11:04 -0,9 C 88 % 1015,1 hPa 0,0 l/m 0,0 km/h (0 Bft) NW 319 -2,6 C 0,0 km/h (0 Bft) 100 %
13.02.2018 11:05 -0,9 C 88 % 1015,0 hPa 0,0 l/m 0,2 km/h (0 Bft) SW 227 -2,6 C 3,1 km/h (1 Bft) 100 %
13.02.2018 11:06 -0,8 C 88 % 1015,0 hPa 0,0 l/m 0,3 km/h (0 Bft) SW 223 -2,5 C 3,1 km/h (1 Bft) 100 %
13.02.2018 11:07 -0,8 C 88 % 1015,0 hPa 0,0 l/m 0,6 km/h (0 Bft) W-NW 285 -2,5 C 6,3 km/h (2 Bft) 100 %
13.02.2018 11:08 -0,8 C 88 % 1015,0 hPa 0,0 l/m 5,5 km/h (1 Bft) W 271 -2,5 C 12,6 km/h (3 Bft) 100 %
13.02.2018 11:09 -0,8 C 88 % 1015,0 hPa 0,0 l/m 0,3 km/h (0 Bft) W-SW 252 -2,5 C 3,1 km/h (1 Bft) 100 %
13.02.2018 11:10 -0,7 C 88 % 1015,0 hPa 0,0 l/m 2,4 km/h (1 Bft) NW 324 -2,4 C 6,3 km/h (2 Bft) 100 %
13.02.2018 11:11 -0,7 C 88 % 1015,0 hPa 0,0 l/m 1,3 km/h (1 Bft) W-SW 241 -2,4 C 6,3 km/h (2 Bft) 100 %
13.02.2018 11:12 -0,7 C 87 % 1015,0 hPa 0,0 l/m 2,5 km/h (1 Bft) SW 227 -2,6 C 6,3 km/h (2 Bft) 100 %
13.02.2018 11:13 -0,7 C 87 % 1015,0 hPa 0,0 l/m 1,6 km/h (1 Bft) SW 235 -2,6 C 3,1 km/h (1 Bft) 100 %
13.02.2018 11:14 -0,6 C 87 % 1014,9 hPa 0,0 l/m 1,3 km/h (1 Bft) O 84 -2,5 C 6,3 km/h (2 Bft) 100 %
13.02.2018 11:15 -0,6 C 87 % 1015,0 hPa 0,0 l/m 0,1 km/h (0 Bft) W-SW 249 -2,5 C 3,1 km/h (1 Bft) 100 %
13.02.2018 11:16 -0,6 C 87 % 1014,9 hPa 0,0 l/m 1,3 km/h (1 Bft) SW 217 -2,5 C 6,3 km/h (2 Bft) 100 %
13.02.2018 11:17 -0,6 C 87 % 1014,9 hPa 0,0 l/m 3,0 km/h (1 Bft) W 266 -2,5 C 6,3 km/h (2 Bft) 100 %
13.02.2018 11:18 -0,6 C 87 % 1014,9 hPa 0,0 l/m 3,5 km/h (1 Bft) SW 232 -2,5 C 6,3 km/h (2 Bft) 100 %
13.02.2018 11:19 -0,6 C 87 % 1014,8 hPa 0,0 l/m 1,7 km/h (1 Bft) W-NW 297 -2,5 C 6,3 km/h (2 Bft) 100 %
13.02.2018 11:20 -0,6 C 87 % 1014,9 hPa 0,0 l/m 6,1 km/h (2 Bft) W-NW 291 -2,5 C 9,4 km/h (2 Bft) 100 %
13.02.2018 11:21 -0,6 C 87 % 1014,9 hPa 0,0 l/m 2,4 km/h (1 Bft) W-SW 238 -2,5 C 6,3 km/h (2 Bft) 100 %
13.02.2018 11:22 -0,5 C 87 % 1014,9 hPa 0,0 l/m 1,9 km/h (1 Bft) W-SW 250 -2,4 C 6,3 km/h (2 Bft) 100 %
13.02.2018 11:23 -0,5 C 87 % 1014,9 hPa 0,0 l/m 2,6 km/h (1 Bft) S 185 -2,4 C 3,1 km/h (1 Bft) 100 %
13.02.2018 11:24 -0,5 C 87 % 1014,9 hPa 0,0 l/m 3,1 km/h (1 Bft) W 261 -2,4 C 3,1 km/h (1 Bft) 100 %
13.02.2018 11:25 -0,4 C 87 % 1014,9 hPa 0,0 l/m 0,3 km/h (0 Bft) NW 326 -2,3 C 3,1 km/h (1 Bft) 100 %
13.02.2018 11:26 -0,4 C 87 % 1014,9 hPa 0,0 l/m 0,9 km/h (0 Bft) W 266 -2,3 C 6,3 km/h (2 Bft) 100 %
13.02.2018 11:27 -0,4 C 87 % 1014,9 hPa 0,0 l/m 3,6 km/h (1 Bft) W 274 -2,3 C 6,3 km/h (2 Bft) 100 %
13.02.2018 11:28 -0,4 C 87 % 1014,9 hPa 0,0 l/m 2,1 km/h (1 Bft) W-SW 250 -2,3 C 9,4 km/h (2 Bft) 100 %
13.02.2018 11:29 -0,3 C 87 % 1014,9 hPa 0,0 l/m 2,4 km/h (1 Bft) W-NW 297 -2,2 C 9,4 km/h (2 Bft) 100 %
13.02.2018 11:30 -0,3 C 87 % 1014,9 hPa 0,0 l/m 3,9 km/h (1 Bft) W-SW 241 -2,2 C 9,4 km/h (2 Bft) 83 %
13.02.2018 11:31 -0,3 C 86 % 1014,8 hPa 0,0 l/m 2,7 km/h (1 Bft) SW 223 -2,3 C 6,3 km/h (2 Bft) 100 %
13.02.2018 11:32 -0,3 C 86 % 1014,9 hPa 0,0 l/m 2,8 km/h (1 Bft) S-SW 212 -2,3 C 6,3 km/h (2 Bft) 100 %
13.02.2018 11:33 -0,3 C 86 % 1014,9 hPa 0,0 l/m 3,9 km/h (1 Bft) S-SW 205 -2,3 C 9,4 km/h (2 Bft) 100 %
13.02.2018 11:34 -0,3 C 86 % 1014,8 hPa 0,0 l/m 0,0 km/h (0 Bft) SW 216 -2,3 C 0,0 km/h (0 Bft) 100 %
13.02.2018 11:35 -0,2 C 86 % 1014,8 hPa 0,0 l/m 0,1 km/h (0 Bft) SW 216 -2,3 C 3,1 km/h (1 Bft) 96 %
13.02.2018 11:36 -0,2 C 87 % 1014,9 hPa 0,0 l/m 0,1 km/h (0 Bft) S-SW 213 -2,1 C 3,1 km/h (1 Bft) 100 %
13.02.2018 11:37 -0,2 C 87 % 1014,9 hPa 0,0 l/m 0,2 km/h (0 Bft) S-SW 211 -2,1 C 3,1 km/h (1 Bft) 100 %
13.02.2018 11:38 -0,1 C 87 % 1014,8 hPa 0,0 l/m 3,0 km/h (1 Bft) O 99 -2,0 C 9,4 km/h (2 Bft) 100 %
13.02.2018 11:39 -0,1 C 86 % 1014,8 hPa 0,0 l/m 1,6 km/h (1 Bft) W-NW 292 -2,2 C 6,3 km/h (2 Bft) 100 %
13.02.2018 11:40 -0,1 C 86 % 1014,8 hPa 0,0 l/m 0,2 km/h (0 Bft) S-SW 192 -2,2 C 3,1 km/h (1 Bft) 92 %
13.02.2018 11:41 -0,1 C 86 % 1014,8 hPa 0,0 l/m 1,6 km/h (1 Bft) W 264 -2,2 C 9,4 km/h (2 Bft) 100 %
13.02.2018 11:42 -0,1 C 86 % 1014,8 hPa 0,0 l/m 1,3 km/h (1 Bft) W 270 -2,2 C 6,3 km/h (2 Bft) 100 %
13.02.2018 11:43 0,0 C 86 % 1014,8 hPa 0,0 l/m 0,5 km/h (0 Bft) S-SW 198 -2,1 C 3,1 km/h (1 Bft) 100 %
13.02.2018 11:44 0,0 C 86 % 1014,8 hPa 0,0 l/m 1,5 km/h (1 Bft) W-SW 254 -2,1 C 9,4 km/h (2 Bft) 100 %
13.02.2018 11:45 0,0 C 85 % 1014,8 hPa 0,0 l/m 3,6 km/h (1 Bft) W-NW 296 -2,2 C 6,3 km/h (2 Bft) 100 %
13.02.2018 11:46 0,1 C 85 % 1014,7 hPa 0,0 l/m 4,0 km/h (1 Bft) W-SW 248 -2,1 C 9,4 km/h (2 Bft) 100 %
13.02.2018 11:47 0,1 C 85 % 1014,7 hPa 0,0 l/m 2,8 km/h (1 Bft) S-SW 193 -2,1 C 6,3 km/h (2 Bft) 100 %
13.02.2018 11:48 0,1 C 86 % 1014,7 hPa 0,0 l/m 0,3 km/h (0 Bft) O-NO 70 -2,0 C 3,1 km/h (1 Bft) 100 %
13.02.2018 11:49 0,2 C 86 % 1014,7 hPa 0,0 l/m 1,3 km/h (1 Bft) NW 308 -1,9 C 3,1 km/h (1 Bft) 100 %
13.02.2018 11:50 0,2 C 86 % 1014,6 hPa 0,0 l/m 1,4 km/h (1 Bft) S-SW 197 -1,9 C 6,3 km/h (2 Bft) 100 %
13.02.2018 11:51 0,2 C 85 % 1014,6 hPa 0,0 l/m 0,0 km/h (0 Bft) S-SW 192 -2,0 C 0,0 km/h (0 Bft) 100 %
13.02.2018 11:52 0,2 C 85 % 1014,6 hPa 0,0 l/m 2,2 km/h (1 Bft) SW 215 -2,0 C 6,3 km/h (2 Bft) 96 %
13.02.2018 11:53 0,2 C 85 % 1014,7 hPa 0,0 l/m 0,7 km/h (0 Bft) W 278 -2,0 C 3,1 km/h (1 Bft) 100 %
13.02.2018 11:54 0,2 C 85 % 1014,7 hPa 0,0 l/m 0,1 km/h (0 Bft) NO 41 -2,0 C 3,1 km/h (1 Bft) 100 %
13.02.2018 11:55 0,2 C 85 % 1014,6 hPa 0,0 l/m 0,0 km/h (0 Bft) W-NW 297 -2,0 C 0,0 km/h (0 Bft) 100 %
13.02.2018 11:56 0,3 C 85 % 1014,6 hPa 0,0 l/m 0,8 km/h (0 Bft) NW 313 -1,9 C 6,3 km/h (2 Bft) 100 %
13.02.2018 11:57 0,3 C 85 % 1014,6 hPa 0,0 l/m 5,4 km/h (1 Bft) W-NW 286 -1,9 C 9,4 km/h (2 Bft) 100 %
13.02.2018 11:58 0,3 C 85 % 1014,6 hPa 0,0 l/m 4,1 km/h (1 Bft) S-SW 202 -1,9 C 9,4 km/h (2 Bft) 87 %
13.02.2018 11:59 0,3 C 85 % 1014,6 hPa 0,0 l/m 1,7 km/h (1 Bft) W-SW 248 -1,9 C 6,3 km/h (2 Bft) 100 %
13.02.2018 12:00 0,3 C 85 % 1014,6 hPa 0,0 l/m 1,0 km/h (0 Bft) O-NO 60 -1,9 C 6,3 km/h (2 Bft) 100 %
13.02.2018 12:01 0,4 C 85 % 1014,6 hPa 0,0 l/m 0,6 km/h (0 Bft) S-SW 200 -1,8 C 3,1 km/h (1 Bft) 93 %
13.02.2018 12:02 0,4 C 85 % 1014,6 hPa 0,0 l/m 1,6 km/h (1 Bft) S-SW 205 -1,8 C 6,3 km/h (2 Bft) 100 %
13.02.2018 12:03 0,4 C 85 % 1014,6 hPa 0,0 l/m 0,7 km/h (0 Bft) W-NW 300 -1,8 C 3,1 km/h (1 Bft) 100 %
13.02.2018 12:04 0,4 C 84 % 1014,6 hPa 0,0 l/m 1,6 km/h (1 Bft) W-SW 240 -2,0 C 3,1 km/h (1 Bft) 100 %
13.02.2018 12:05 0,4 C 84 % 1014,6 hPa 0,0 l/m 0,9 km/h (0 Bft) SW 235 -2,0 C 6,3 km/h (2 Bft) 100 %
13.02.2018 12:06 0,4 C 84 % 1014,6 hPa 0,0 l/m 2,4 km/h (1 Bft) W-SW 252 -2,0 C 6,3 km/h (2 Bft) 100 %
13.02.2018 12:07 0,4 C 84 % 1014,6 hPa 0,0 l/m 2,1 km/h (1 Bft) W 275 -2,0 C 6,3 km/h (2 Bft) 100 %
13.02.2018 12:08 0,5 C 84 % 1014,5 hPa 0,0 l/m 0,2 km/h (0 Bft) W 274 -1,9 C 3,1 km/h (1 Bft) 100 %
13.02.2018 12:09 0,5 C 85 % 1014,5 hPa 0,0 l/m 0,2 km/h (0 Bft) S-SW 201 -1,7 C 3,1 km/h (1 Bft) 100 %
13.02.2018 12:10 0,6 C 85 % 1014,5 hPa 0,0 l/m 0,7 km/h (0 Bft) S-SO 167 -1,6 C 3,1 km/h (1 Bft) 100 %
13.02.2018 12:11 0,6 C 84 % 1014,5 hPa 0,0 l/m 2,7 km/h (1 Bft) SW 219 -1,8 C 9,4 km/h (2 Bft) 100 %
13.02.2018 12:12 0,6 C 84 % 1014,5 hPa 0,0 l/m 2,9 km/h (1 Bft) W-SW 240 -1,8 C 9,4 km/h (2 Bft) 100 %
13.02.2018 12:13 0,6 C 84 % 1014,5 hPa 0,0 l/m 0,1 km/h (0 Bft) W-SW 241 -1,8 C 3,1 km/h (1 Bft) 100 %
13.02.2018 12:14 0,7 C 84 % 1014,5 hPa 0,0 l/m 0,1 km/h (0 Bft) W 270 -1,7 C 3,1 km/h (1 Bft) 100 %
13.02.2018 12:15 0,7 C 84 % 1014,5 hPa 0,0 l/m 3,0 km/h (1 Bft) W-NW 297 -1,7 C 6,3 km/h (2 Bft) 96 %
13.02.2018 12:16 0,7 C 83 % 1014,5 hPa 0,0 l/m 4,1 km/h (1 Bft) NW 309 -1,8 C 6,3 km/h (2 Bft) 100 %
13.02.2018 12:17 0,7 C 83 % 1014,5 hPa 0,0 l/m 1,5 km/h (1 Bft) W 266 -1,8 C 6,3 km/h (2 Bft) 99 %
13.02.2018 12:18 0,8 C 84 % 1014,5 hPa 0,0 l/m 0,0 km/h (0 Bft) W-SW 252 -1,6 C 0,0 km/h (0 Bft) 100 %
13.02.2018 12:19 0,8 C 84 % 1014,4 hPa 0,0 l/m 2,1 km/h (1 Bft) SW 236 -1,6 C 3,1 km/h (1 Bft) 100 %
13.02.2018 12:20 0,8 C 83 % 1014,4 hPa 0,0 l/m 1,8 km/h (1 Bft) W-SW 254 -1,8 C 6,3 km/h (2 Bft) 100 %
13.02.2018 12:21 0,8 C 83 % 1014,4 hPa 0,0 l/m 2,4 km/h (1 Bft) SW 224 -1,8 C 6,3 km/h (2 Bft) 100 %
13.02.2018 12:22 0,9 C 83 % 1014,4 hPa 0,0 l/m 1,3 km/h (1 Bft) W 260 -1,7 C 6,3 km/h (2 Bft) 100 %
13.02.2018 12:23 0,9 C 83 % 1014,4 hPa 0,0 l/m 3,7 km/h (1 Bft) SW 231 -1,7 C 15,7 km/h (3 Bft) 100 %
13.02.2018 12:24 0,9 C 82 % 1014,3 hPa 0,0 l/m 1,2 km/h (1 Bft) N-NW 335 -1,8 C 9,4 km/h (2 Bft) 100 %
13.02.2018 12:25 0,9 C 83 % 1014,3 hPa 0,0 l/m 0,2 km/h (0 Bft) W-SW 257 -1,7 C 3,1 km/h (1 Bft) 100 %
13.02.2018 12:26 0,9 C 83 % 1014,3 hPa 0,0 l/m 0,7 km/h (0 Bft) W 267 -1,7 C 3,1 km/h (1 Bft) 100 %
13.02.2018 12:27 1,0 C 82 % 1014,3 hPa 0,0 l/m 7,1 km/h (2 Bft) W-NW 282 -1,7 C 15,7 km/h (3 Bft) 100 %
13.02.2018 12:28 1,0 C 82 % 1014,2 hPa 0,0 l/m 7,3 km/h (2 Bft) SW 219 -1,7 C 12,6 km/h (3 Bft) 100 %
13.02.2018 12:29 1,0 C 82 % 1014,3 hPa 0,0 l/m 3,4 km/h (1 Bft) W-NW 296 -1,7 C 9,4 km/h (2 Bft) 100 %
13.02.2018 12:30 1,0 C 82 % 1014,2 hPa 0,0 l/m 3,0 km/h (1 Bft) SW 214 -1,7 C 3,1 km/h (1 Bft) 100 %
13.02.2018 12:31 1,1 C 82 % 1014,2 hPa 0,0 l/m 2,2 km/h (1 Bft) W-SW 240 -1,6 C 6,3 km/h (2 Bft) 100 %
13.02.2018 12:32 1,1 C 82 % 1014,2 hPa 0,0 l/m 0,9 km/h (0 Bft) SW 233 -1,6 C 3,1 km/h (1 Bft) 100 %
13.02.2018 12:33 1,1 C 82 % 1014,2 hPa 0,0 l/m 0,4 km/h (0 Bft) W 279 -1,6 C 3,1 km/h (1 Bft) 100 %
13.02.2018 12:34 1,2 C 82 % 1014,2 hPa 0,0 l/m 3,1 km/h (1 Bft) SW 214 -1,5 C 9,4 km/h (2 Bft) 100 %
13.02.2018 12:35 1,2 C 82 % 1014,2 hPa 0,0 l/m 2,4 km/h (1 Bft) W 281 -1,5 C 6,3 km/h (2 Bft) 100 %
13.02.2018 12:36 1,2 C 82 % 1014,1 hPa 0,0 l/m 1,6 km/h (1 Bft) S-SW 206 -1,5 C 9,4 km/h (2 Bft) 100 %
13.02.2018 12:37 1,3 C 82 % 1014,2 hPa 0,0 l/m 0,0 km/h (0 Bft) SW 224 -1,4 C 0,0 km/h (0 Bft) 100 %
13.02.2018 12:38 1,3 C 82 % 1014,2 hPa 0,0 l/m 1,7 km/h (1 Bft) W-SW 238 -1,4 C 6,3 km/h (2 Bft) 100 %
13.02.2018 12:39 1,4 C 81 % 1014,1 hPa 0,0 l/m 3,0 km/h (1 Bft) S-SW 212 -1,5 C 6,3 km/h (2 Bft) 100 %
13.02.2018 12:40 1,4 C 81 % 1014,1 hPa 0,0 l/m 2,2 km/h (1 Bft) W-SW 255 -1,5 C 6,3 km/h (2 Bft) 100 %
13.02.2018 12:41 1,4 C 81 % 1014,1 hPa 0,0 l/m 0,5 km/h (0 Bft) NW 305 -1,5 C 3,1 km/h (1 Bft) 100 %
13.02.2018 12:42 1,4 C 81 % 1014,1 hPa 0,0 l/m 1,4 km/h (1 Bft) NW 308 -1,5 C 3,1 km/h (1 Bft) 100 %
13.02.2018 12:43 1,5 C 82 % 1014,0 hPa 0,0 l/m 1,0 km/h (0 Bft) SW 219 -1,2 C 3,1 km/h (1 Bft) 100 %
13.02.2018 12:44 1,6 C 81 % 1014,1 hPa 0,0 l/m 0,1 km/h (0 Bft) SW 219 -1,3 C 3,1 km/h (1 Bft) 100 %
13.02.2018 12:45 1,6 C 81 % 1014,1 hPa 0,0 l/m 0,8 km/h (0 Bft) W 281 -1,3 C 3,1 km/h (1 Bft) 100 %
13.02.2018 12:46 1,6 C 81 % 1014,0 hPa 0,0 l/m 0,0 km/h (0 Bft) W 281 -1,3 C 0,0 km/h (0 Bft) 100 %
13.02.2018 12:47 1,7 C 81 % 1014,0 hPa 0,0 l/m 0,0 km/h (0 Bft) NO 36 -1,2 C 0,0 km/h (0 Bft) 100 %
13.02.2018 12:48 1,7 C 81 % 1014,0 hPa 0,0 l/m 1,4 km/h (1 Bft) SW 217 -1,2 C 6,3 km/h (2 Bft) 100 %
13.02.2018 12:49 1,7 C 80 % 1014,0 hPa 0,0 l/m 0,8 km/h (0 Bft) SW 219 -1,4 C 3,1 km/h (1 Bft) 100 %
13.02.2018 12:50 1,8 C 80 % 1013,9 hPa 0,0 l/m 2,2 km/h (1 Bft) W 272 -1,3 C 6,3 km/h (2 Bft) 100 %
13.02.2018 12:51 1,8 C 80 % 1013,9 hPa 0,0 l/m 7,5 km/h (2 Bft) NW 307 -1,3 C 18,8 km/h (3 Bft) 100 %
13.02.2018 12:52 1,8 C 80 % 1013,9 hPa 0,0 l/m 3,0 km/h (1 Bft) SW 220 -1,3 C 6,3 km/h (2 Bft) 100 %
13.02.2018 12:53 1,8 C 80 % 1013,9 hPa 0,0 l/m 2,5 km/h (1 Bft) W 260 -1,3 C 6,3 km/h (2 Bft) 100 %
13.02.2018 12:54 1,8 C 79 % 1013,9 hPa 0,0 l/m 1,7 km/h (1 Bft) W-SW 243 -1,4 C 3,1 km/h (1 Bft) 100 %
13.02.2018 12:55 1,8 C 79 % 1013,8 hPa 0,0 l/m 1,0 km/h (0 Bft) W 268 -1,4 C 6,3 km/h (2 Bft) 100 %
13.02.2018 12:56 1,9 C 80 % 1013,8 hPa 0,0 l/m 0,1 km/h (0 Bft) O-NO 65 -1,2 C 3,1 km/h (1 Bft) 100 %
13.02.2018 12:57 1,9 C 80 % 1013,7 hPa 0,0 l/m 0,0 km/h (0 Bft) O-NO 65 -1,2 C 0,0 km/h (0 Bft) 100 %
13.02.2018 12:58 2,0 C 80 % 1013,7 hPa 0,0 l/m 0,0 km/h (0 Bft) O-NO 64 -1,1 C 0,0 km/h (0 Bft) 100 %
13.02.2018 12:59 2,1 C 80 % 1013,7 hPa 0,0 l/m 0,7 km/h (0 Bft) SW 230 -1,0 C 3,1 km/h (1 Bft) 99 %
13.02.2018 13:00 2,1 C 80 % 1013,7 hPa 0,0 l/m 3,4 km/h (1 Bft) NW 318 -1,0 C 6,3 km/h (2 Bft) 100 %
13.02.2018 13:01 2,2 C 79 % 1013,7 hPa 0,0 l/m 1,7 km/h (1 Bft) NO 41 -1,1 C 6,3 km/h (2 Bft) 100 %
13.02.2018 13:02 2,2 C 79 % 1013,7 hPa 0,0 l/m 0,5 km/h (0 Bft) W-SW 245 -1,1 C 3,1 km/h (1 Bft) 100 %
13.02.2018 13:03 2,3 C 79 % 1013,7 hPa 0,0 l/m 2,7 km/h (1 Bft) W-NW 288 -1,0 C 12,6 km/h (3 Bft) 100 %
13.02.2018 13:04 2,3 C 78 % 1013,7 hPa 0,0 l/m 6,3 km/h (2 Bft) NW 314 -1,1 C 12,6 km/h (3 Bft) 100 %
13.02.2018 13:05 2,3 C 78 % 1013,7 hPa 0,0 l/m 4,2 km/h (1 Bft) W-NW 295 -1,1 C 9,4 km/h (2 Bft) 100 %
13.02.2018 13:06 2,3 C 78 % 1013,7 hPa 0,0 l/m 2,8 km/h (1 Bft) W-SW 258 -1,1 C 6,3 km/h (2 Bft) 100 %
13.02.2018 13:07 2,3 C 78 % 1013,7 hPa 0,0 l/m 1,4 km/h (1 Bft) N 8 -1,1 C 3,1 km/h (1 Bft) 100 %
13.02.2018 13:08 2,3 C 78 % 1013,7 hPa 0,0 l/m 0,0 km/h (0 Bft) S-SO 163 -1,1 C 0,0 km/h (0 Bft) 100 %
13.02.2018 13:09 2,4 C 78 % 1013,6 hPa 0,0 l/m 0,1 km/h (0 Bft) O 82 -1,0 C 3,1 km/h (1 Bft) 100 %
13.02.2018 13:10 2,4 C 79 % 1013,6 hPa 0,0 l/m 0,0 km/h (0 Bft) O 90 -0,9 C 0,0 km/h (0 Bft) 96 %
13.02.2018 13:11 2,5 C 78 % 1013,6 hPa 0,0 l/m 1,2 km/h (1 Bft) SW 226 -0,9 C 3,1 km/h (1 Bft) 100 %
13.02.2018 13:12 2,6 C 77 % 1013,6 hPa 0,0 l/m 1,4 km/h (1 Bft) NW 311 -1,0 C 6,3 km/h (2 Bft) 100 %
13.02.2018 13:13 2,6 C 77 % 1013,6 hPa 0,0 l/m 5,2 km/h (1 Bft) W-NW 297 -1,0 C 9,4 km/h (2 Bft) 100 %
13.02.2018 13:14 2,6 C 77 % 1013,6 hPa 0,0 l/m 5,4 km/h (1 Bft) SW 218 -1,0 C 9,4 km/h (2 Bft) 100 %
13.02.2018 13:15 2,6 C 77 % 1013,6 hPa 0,0 l/m 0,5 km/h (0 Bft) SW 224 -1,0 C 3,1 km/h (1 Bft) 100 %
13.02.2018 13:16 2,6 C 77 % 1013,6 hPa 0,0 l/m 3,5 km/h (1 Bft) W 276 -1,0 C 6,3 km/h (2 Bft) 100 %
13.02.2018 13:17 2,6 C 77 % 1013,6 hPa 0,0 l/m 5,1 km/h (1 Bft) W-SW 250 -1,0 C 9,4 km/h (2 Bft) 100 %
13.02.2018 13:18 2,6 C 76 % 1013,6 hPa 0,0 l/m 3,5 km/h (1 Bft) W-SW 241 -1,2 C 6,3 km/h (2 Bft) 100 %
13.02.2018 13:19 2,6 C 77 % 1013,6 hPa 0,0 l/m 4,6 km/h (1 Bft) W 273 -1,0 C 6,3 km/h (2 Bft) 100 %
13.02.2018 13:20 2,6 C 77 % 1013,6 hPa 0,0 l/m 1,7 km/h (1 Bft) W-SW 257 -1,0 C 3,1 km/h (1 Bft) 100 %
13.02.2018 13:21 2,6 C 77 % 1013,6 hPa 0,0 l/m 5,1 km/h (1 Bft) NW 304 -1,0 C 9,4 km/h (2 Bft) 100 %
13.02.2018 13:22 2,6 C 76 % 1013,6 hPa 0,0 l/m 3,4 km/h (1 Bft) NW 306 -1,2 C 9,4 km/h (2 Bft) 100 %
13.02.2018 13:23 2,6 C 76 % 1013,5 hPa 0,0 l/m 2,8 km/h (1 Bft) N-NW 347 -1,2 C 6,3 km/h (2 Bft) 100 %
13.02.2018 13:24 2,7 C 77 % 1013,6 hPa 0,0 l/m 0,3 km/h (0 Bft) N-NO 20 -0,9 C 3,1 km/h (1 Bft) 100 %
13.02.2018 13:25 2,7 C 77 % 1013,5 hPa 0,0 l/m 1,4 km/h (1 Bft) SW 221 -0,9 C 3,1 km/h (1 Bft) 100 %
13.02.2018 13:26 2,8 C 77 % 1013,5 hPa 0,0 l/m 1,2 km/h (1 Bft) SW 214 -0,8 C 6,3 km/h (2 Bft) 100 %
13.02.2018 13:27 2,8 C 76 % 1013,5 hPa 0,0 l/m 6,1 km/h (2 Bft) W 273 -1,0 C 9,4 km/h (2 Bft) 100 %
13.02.2018 13:28 2,8 C 75 % 1013,5 hPa 0,0 l/m 4,2 km/h (1 Bft) W 276 -1,2 C 6,3 km/h (2 Bft) 100 %
13.02.2018 13:29 2,9 C 75 % 1013,5 hPa 0,0 l/m 2,1 km/h (1 Bft) N-NW 332 -1,1 C 6,3 km/h (2 Bft) 100 %
13.02.2018 13:30 2,9 C 75 % 1013,5 hPa 0,0 l/m 6,5 km/h (2 Bft) S-SW 205 -1,1 C 12,6 km/h (3 Bft) 100 %
13.02.2018 13:31 2,9 C 75 % 1013,5 hPa 0,0 l/m 4,9 km/h (1 Bft) SO 136 -1,1 C 9,4 km/h (2 Bft) 100 %
13.02.2018 13:32 3,0 C 75 % 1013,5 hPa 0,0 l/m 6,3 km/h (2 Bft) W-SW 249 -1,0 C 12,6 km/h (3 Bft) 100 %
13.02.2018 13:33 3,1 C 74 % 1013,5 hPa 0,0 l/m 0,7 km/h (0 Bft) S-SW 209 -1,1 C 3,1 km/h (1 Bft) 100 %
13.02.2018 13:34 3,1 C 75 % 1013,5 hPa 0,0 l/m 0,0 km/h (0 Bft) S-SW 210 -0,9 C 0,0 km/h (0 Bft) 100 %
13.02.2018 13:35 3,1 C 75 % 1013,4 hPa 0,0 l/m 2,1 km/h (1 Bft) W-SW 237 -0,9 C 9,4 km/h (2 Bft) 100 %
13.02.2018 13:36 3,1 C 74 % 1013,5 hPa 0,0 l/m 3,6 km/h (1 Bft) S 174 -1,1 C 9,4 km/h (2 Bft) 100 %
13.02.2018 13:37 3,2 C 74 % 1013,5 hPa 0,0 l/m 0,3 km/h (0 Bft) W-SW 252 -1,0 C 3,1 km/h (1 Bft) 100 %
13.02.2018 13:38 3,2 C 74 % 1013,5 hPa 0,0 l/m 3,6 km/h (1 Bft) W-NW 285 -1,0 C 9,4 km/h (2 Bft) 100 %
13.02.2018 13:39 3,2 C 72 % 1013,4 hPa 0,0 l/m 2,5 km/h (1 Bft) O-NO 74 -1,3 C 9,4 km/h (2 Bft) 100 %
13.02.2018 13:40 3,2 C 73 % 1013,4 hPa 0,0 l/m 1,4 km/h (1 Bft) O 89 -1,2 C 3,1 km/h (1 Bft) 100 %
13.02.2018 13:41 3,2 C 73 % 1013,4 hPa 0,0 l/m 0,8 km/h (0 Bft) W 265 -1,2 C 6,3 km/h (2 Bft) 96 %
13.02.2018 13:42 3,3 C 72 % 1013,4 hPa 0,0 l/m 3,7 km/h (1 Bft) W-SW 251 -1,3 C 6,3 km/h (2 Bft) 100 %
13.02.2018 13:43 3,3 C 72 % 1013,4 hPa 0,0 l/m 3,7 km/h (1 Bft) NO 53 -1,3 C 9,4 km/h (2 Bft) 100 %
13.02.2018 13:44 3,3 C 72 % 1013,4 hPa 0,0 l/m 4,2 km/h (1 Bft) S 170 -1,3 C 9,4 km/h (2 Bft) 96 %
13.02.2018 13:45 3,3 C 72 % 1013,4 hPa 0,0 l/m 0,0 km/h (0 Bft) W 278 -1,3 C 0,0 km/h (0 Bft) 100 %
13.02.2018 13:46 3,4 C 72 % 1013,3 hPa 0,0 l/m 5,5 km/h (1 Bft) W-SW 250 -1,2 C 9,4 km/h (2 Bft) 80 %
13.02.2018 13:47 3,4 C 71 % 1013,3 hPa 0,0 l/m 2,5 km/h (1 Bft) W-SW 247 -1,3 C 9,4 km/h (2 Bft) 92 %
13.02.2018 13:48 3,4 C 71 % 1013,3 hPa 0,0 l/m 0,1 km/h (0 Bft) N-NO 13 -1,3 C 3,1 km/h (1 Bft) 58 %
13.02.2018 13:49 3,3 C 71 % 1013,3 hPa 0,0 l/m 4,4 km/h (1 Bft) S 182 -1,4 C 9,4 km/h (2 Bft) 87 %
13.02.2018 13:50 3,3 C 70 % 1013,3 hPa 0,0 l/m 4,8 km/h (1 Bft) SW 225 -1,6 C 9,4 km/h (2 Bft) 78 %
13.02.2018 13:51 3,3 C 70 % 1013,3 hPa 0,0 l/m 5,8 km/h (2 Bft) NW 315 -1,6 C 12,6 km/h (3 Bft) 79 %
13.02.2018 13:52 3,3 C 70 % 1013,3 hPa 0,0 l/m 1,3 km/h (1 Bft) SW 217 -1,6 C 3,1 km/h (1 Bft) 52 %
13.02.2018 13:53 3,3 C 71 % 1013,3 hPa 0,0 l/m 0,1 km/h (0 Bft) SW 220 -1,4 C 3,1 km/h (1 Bft) 92 %
13.02.2018 13:54 3,3 C 71 % 1013,3 hPa 0,0 l/m 3,1 km/h (1 Bft) S-SW 205 -1,4 C 6,3 km/h (2 Bft) 78 %
13.02.2018 13:55 3,3 C 70 % 1013,3 hPa 0,0 l/m 3,3 km/h (1 Bft) SW 221 -1,6 C 9,4 km/h (2 Bft) 42 %
13.02.2018 13:56 3,3 C 70 % 1013,3 hPa 0,0 l/m 0,0 km/h (0 Bft) SW 232 -1,6 C 0,0 km/h (0 Bft) 43 %
13.02.2018 13:57 3,3 C 71 % 1013,3 hPa 0,0 l/m 0,0 km/h (0 Bft) W-NW 302 -1,4 C 0,0 km/h (0 Bft) 35 %
13.02.2018 13:58 3,3 C 71 % 1013,3 hPa 0,0 l/m 2,4 km/h (1 Bft) SW 231 -1,4 C 9,4 km/h (2 Bft) 29 %
13.02.2018 13:59 3,3 C 70 % 1013,2 hPa 0,2 l/m 2,0 km/h (1 Bft) W 269 -1,6 C 9,4 km/h (2 Bft) 30 %
13.02.2018 14:00 3,2 C 70 % 1013,3 hPa 0,0 l/m 1,4 km/h (1 Bft) SW 225 -1,7 C 6,3 km/h (2 Bft) 21 %
13.02.2018 14:01 3,2 C 71 % 1013,3 hPa 0,0 l/m 0,8 km/h (0 Bft) SW 225 -1,5 C 3,1 km/h (1 Bft) 35 %
13.02.2018 14:02 3,3 C 71 % 1013,2 hPa 0,0 l/m 1,4 km/h (1 Bft) W 270 -1,4 C 6,3 km/h (2 Bft) 96 %
13.02.2018 14:03 3,3 C 71 % 1013,2 hPa 0,0 l/m 2,6 km/h (1 Bft) W-NW 300 -1,4 C 6,3 km/h (2 Bft) 96 %
13.02.2018 14:04 3,2 C 71 % 1013,2 hPa 0,0 l/m 3,8 km/h (1 Bft) SW 221 -1,5 C 9,4 km/h (2 Bft) 91 %
13.02.2018 14:05 3,2 C 70 % 1013,2 hPa 0,0 l/m 2,1 km/h (1 Bft) S-SW 203 -1,7 C 6,3 km/h (2 Bft) 92 %
13.02.2018 14:06 3,3 C 70 % 1013,2 hPa 0,0 l/m 4,4 km/h (1 Bft) W 269 -1,6 C 9,4 km/h (2 Bft) 39 %
13.02.2018 14:07 3,3 C 70 % 1013,2 hPa 0,0 l/m 1,1 km/h (1 Bft) W-NW 288 -1,6 C 3,1 km/h (1 Bft) 69 %
13.02.2018 14:08 3,3 C 70 % 1013,2 hPa 0,0 l/m 2,9 km/h (1 Bft) W-NW 283 -1,6 C 6,3 km/h (2 Bft) 96 %
13.02.2018 14:09 3,2 C 70 % 1013,2 hPa 0,0 l/m 1,2 km/h (1 Bft) SW 217 -1,7 C 6,3 km/h (2 Bft) 100 %
13.02.2018 14:10 3,2 C 70 % 1013,1 hPa 0,0 l/m 3,1 km/h (1 Bft) W-SW 245 -1,7 C 9,4 km/h (2 Bft) 100 %
13.02.2018 14:11 3,2 C 71 % 1013,1 hPa 0,0 l/m 0,5 km/h (0 Bft) W-SW 245 -1,5 C 3,1 km/h (1 Bft) 83 %
13.02.2018 14:12 3,3 C 70 % 1013,1 hPa 0,0 l/m 2,2 km/h (1 Bft) W-NW 289 -1,6 C 6,3 km/h (2 Bft) 96 %
13.02.2018 14:13 3,3 C 70 % 1013,1 hPa 0,0 l/m 1,0 km/h (0 Bft) NW 309 -1,6 C 3,1 km/h (1 Bft) 100 %
13.02.2018 14:14 3,3 C 70 % 1013,1 hPa 0,0 l/m 6,0 km/h (2 Bft) W-SW 250 -1,6 C 12,6 km/h (3 Bft) 100 %
13.02.2018 14:15 3,4 C 70 % 1013,1 hPa 0,0 l/m 4,1 km/h (1 Bft) SO 127 -1,5 C 9,4 km/h (2 Bft) 100 %
13.02.2018 14:16 3,4 C 70 % 1013,0 hPa 0,0 l/m 5,8 km/h (2 Bft) SW 214 -1,5 C 9,4 km/h (2 Bft) 100 %
13.02.2018 14:17 3,4 C 69 % 1013,0 hPa 0,0 l/m 4,7 km/h (1 Bft) SW 226 -1,7 C 9,4 km/h (2 Bft) 100 %
13.02.2018 14:18 3,5 C 67 % 1013,1 hPa 0,0 l/m 5,5 km/h (1 Bft) SW 233 -2,0 C 9,4 km/h (2 Bft) 100 %
13.02.2018 14:19 3,6 C 67 % 1013,1 hPa 0,0 l/m 1,3 km/h (1 Bft) S-SW 199 -1,9 C 6,3 km/h (2 Bft) 100 %
13.02.2018 14:20 3,6 C 68 % 1013,0 hPa 0,0 l/m 2,4 km/h (1 Bft) SO 138 -1,7 C 6,3 km/h (2 Bft) 100 %
13.02.2018 14:21 3,7 C 68 % 1013,0 hPa 0,0 l/m 2,7 km/h (1 Bft) O-SO 102 -1,6 C 9,4 km/h (2 Bft) 100 %
13.02.2018 14:22 3,8 C 68 % 1013,0 hPa 0,0 l/m 3,5 km/h (1 Bft) SO 146 -1,6 C 6,3 km/h (2 Bft) 100 %
13.02.2018 14:23 3,8 C 67 % 1013,0 hPa 0,0 l/m 2,6 km/h (1 Bft) SW 236 -1,8 C 6,3 km/h (2 Bft) 100 %
13.02.2018 14:24 3,9 C 66 % 1013,0 hPa 0,0 l/m 8,0 km/h (2 Bft) W 275 -1,9 C 15,7 km/h (3 Bft) 100 %
13.02.2018 14:25 3,9 C 66 % 1013,0 hPa 0,0 l/m 4,3 km/h (1 Bft) SW 235 -1,9 C 15,7 km/h (3 Bft) 92 %
13.02.2018 14:26 3,9 C 64 % 1012,9 hPa 0,0 l/m 7,7 km/h (2 Bft) S 191 -2,3 C 15,7 km/h (3 Bft) 92 %
13.02.2018 14:27 3,9 C 64 % 1012,9 hPa 0,0 l/m 3,9 km/h (1 Bft) SW 231 -2,3 C 9,4 km/h (2 Bft) 88 %
13.02.2018 14:28 3,9 C 64 % 1012,9 hPa 0,0 l/m 0,0 km/h (0 Bft) SW 231 -2,3 C 0,0 km/h (0 Bft) 77 %
13.02.2018 14:29 3,9 C 65 % 1012,9 hPa 0,0 l/m 0,3 km/h (0 Bft) N-NW 340 -2,1 C 3,1 km/h (1 Bft) 67 %
13.02.2018 14:30 4,0 C 65 % 1012,9 hPa 0,0 l/m 7,7 km/h (2 Bft) SW 231 -2,0 C 12,6 km/h (3 Bft) 31 %
13.02.2018 14:31 4,0 C 65 % 1012,9 hPa 0,0 l/m 2,1 km/h (1 Bft) O-SO 105 -2,0 C 6,3 km/h (2 Bft) 26 %
13.02.2018 14:32 4,1 C 63 % 1012,9 hPa 0,0 l/m 0,4 km/h (0 Bft) O-SO 114 -2,3 C 3,1 km/h (1 Bft) 75 %
13.02.2018 14:33 4,2 C 62 % 1012,9 hPa 0,0 l/m 0,9 km/h (0 Bft) S-SW 210 -2,4 C 3,1 km/h (1 Bft) 100 %
13.02.2018 14:34 4,2 C 62 % 1012,9 hPa 0,0 l/m 4,6 km/h (1 Bft) O-SO 105 -2,4 C 9,4 km/h (2 Bft) 100 %
13.02.2018 14:35 4,2 C 61 % 1012,9 hPa 0,0 l/m 4,8 km/h (1 Bft) W-NW 297 -2,6 C 9,4 km/h (2 Bft) 100 %
13.02.2018 14:36 4,2 C 60 % 1012,9 hPa 0,0 l/m 4,6 km/h (1 Bft) W 269 -2,9 C 12,6 km/h (3 Bft) 100 %
13.02.2018 14:37 4,2 C 62 % 1012,8 hPa 0,0 l/m 2,5 km/h (1 Bft) W-NW 293 -2,4 C 9,4 km/h (2 Bft) 100 %
13.02.2018 14:38 4,2 C 61 % 1012,8 hPa 0,0 l/m 9,4 km/h (2 Bft) SW 217 -2,6 C 22,0 km/h (4 Bft) 100 %
13.02.2018 14:39 4,2 C 61 % 1012,9 hPa 0,0 l/m 10,6 km/h (2 Bft) SW 230 -2,6 C 22,0 km/h (4 Bft) 100 %
13.02.2018 14:40 4,1 C 62 % 1012,8 hPa 0,0 l/m 0,3 km/h (0 Bft) NO 39 -2,5 C 3,1 km/h (1 Bft) 92 %
13.02.2018 14:41 4,2 C 62 % 1012,8 hPa 0,0 l/m 2,5 km/h (1 Bft) SW 222 -2,4 C 6,3 km/h (2 Bft) 92 %
13.02.2018 14:42 4,2 C 63 % 1012,8 hPa 0,0 l/m 1,3 km/h (1 Bft) W-SW 245 -2,2 C 9,4 km/h (2 Bft) 94 %
13.02.2018 14:43 4,2 C 62 % 1012,8 hPa 0,0 l/m 3,3 km/h (1 Bft) W-SW 246 -2,4 C 12,6 km/h (3 Bft) 100 %
13.02.2018 14:44 4,2 C 62 % 1012,8 hPa 0,0 l/m 0,4 km/h (0 Bft) W-NW 291 -2,4 C 3,1 km/h (1 Bft) 100 %
13.02.2018 14:45 4,2 C 62 % 1012,8 hPa 0,0 l/m 3,3 km/h (1 Bft) SW 223 -2,4 C 9,4 km/h (2 Bft) 96 %
13.02.2018 14:46 4,3 C 62 % 1012,8 hPa 0,0 l/m 4,3 km/h (1 Bft) SW 219 -2,3 C 12,6 km/h (3 Bft) 100 %
13.02.2018 14:47 4,3 C 62 % 1012,7 hPa 0,2 l/m 7,4 km/h (2 Bft) S-SW 210 -2,3 C 12,6 km/h (3 Bft) 100 %
13.02.2018 14:48 4,3 C 62 % 1012,8 hPa 0,0 l/m 10,7 km/h (2 Bft) W-NW 303 -2,3 C 18,8 km/h (3 Bft) 96 %
13.02.2018 14:49 4,3 C 62 % 1012,8 hPa 0,0 l/m 5,6 km/h (1 Bft) W 267 -2,3 C 9,4 km/h (2 Bft) 92 %
13.02.2018 14:50 4,3 C 63 % 1012,8 hPa 0,0 l/m 3,1 km/h (1 Bft) SW 234 -2,1 C 6,3 km/h (2 Bft) 100 %
13.02.2018 14:51 4,3 C 63 % 1012,7 hPa 0,0 l/m 3,4 km/h (1 Bft) W-SW 255 -2,1 C 9,4 km/h (2 Bft) 100 %
13.02.2018 14:52 4,3 C 62 % 1012,8 hPa 0,0 l/m 6,7 km/h (2 Bft) W 267 -2,3 C 12,6 km/h (3 Bft) 100 %
13.02.2018 14:53 4,4 C 63 % 1012,7 hPa 0,0 l/m 3,6 km/h (1 Bft) W 272 -2,0 C 12,6 km/h (3 Bft) 100 %
13.02.2018 14:54 4,4 C 63 % 1012,7 hPa 0,0 l/m 5,9 km/h (2 Bft) NW 307 -2,0 C 12,6 km/h (3 Bft) 100 %
13.02.2018 14:55 4,4 C 62 % 1012,7 hPa 0,0 l/m 6,1 km/h (2 Bft) SW 231 -2,2 C 15,7 km/h (3 Bft) 100 %
13.02.2018 14:56 4,4 C 63 % 1012,7 hPa 0,0 l/m 5,9 km/h (2 Bft) SW 214 -2,0 C 18,8 km/h (3 Bft) 100 %
13.02.2018 14:57 4,3 C 63 % 1012,7 hPa 0,0 l/m 7,1 km/h (2 Bft) W-NW 288 -2,1 C 18,8 km/h (3 Bft) 100 %
13.02.2018 14:58 4,3 C 62 % 1012,6 hPa 0,0 l/m 7,1 km/h (2 Bft) SW 218 -2,3 C 15,7 km/h (3 Bft) 100 %
13.02.2018 14:59 4,3 C 63 % 1012,6 hPa 0,0 l/m 3,3 km/h (1 Bft) W-SW 248 -2,1 C 6,3 km/h (2 Bft) 73 %
13.02.2018 15:00 4,3 C 63 % 1012,6 hPa 0,0 l/m 7,2 km/h (2 Bft) SW 235 -2,1 C 18,8 km/h (3 Bft) 88 %
13.02.2018 15:01 4,3 C 62 % 1012,6 hPa 0,0 l/m 3,4 km/h (1 Bft) NO 41 -2,3 C 12,6 km/h (3 Bft) 63 %
13.02.2018 15:02 4,3 C 63 % 1012,6 hPa 0,0 l/m 0,2 km/h (0 Bft) O-NO 68 -2,1 C 3,1 km/h (1 Bft) 54 %
13.02.2018 15:03 4,3 C 63 % 1012,6 hPa 0,0 l/m 1,7 km/h (1 Bft) S-SW 210 -2,1 C 3,1 km/h (1 Bft) 58 %
13.02.2018 15:04 4,4 C 62 % 1012,6 hPa 0,0 l/m 4,3 km/h (1 Bft) W 259 -2,2 C 6,3 km/h (2 Bft) 95 %
13.02.2018 15:05 4,4 C 62 % 1012,6 hPa 0,0 l/m 0,5 km/h (0 Bft) W 276 -2,2 C 3,1 km/h (1 Bft) 95 %
13.02.2018 15:06 4,4 C 62 % 1012,6 hPa 0,0 l/m 5,7 km/h (1 Bft) W-SW 243 -2,2 C 9,4 km/h (2 Bft) 71 %
13.02.2018 15:07 4,5 C 63 % 1012,6 hPa 0,0 l/m 0,9 km/h (0 Bft) SW 220 -1,9 C 3,1 km/h (1 Bft) 94 %
13.02.2018 15:08 4,6 C 61 % 1012,6 hPa 0,0 l/m 5,5 km/h (1 Bft) SW 217 -2,3 C 12,6 km/h (3 Bft) 100 %
13.02.2018 15:09 4,6 C 60 % 1012,6 hPa 0,0 l/m 2,8 km/h (1 Bft) O 94 -2,5 C 9,4 km/h (2 Bft) 96 %
13.02.2018 15:10 4,5 C 59 % 1012,6 hPa 0,0 l/m 0,8 km/h (0 Bft) S 169 -2,8 C 6,3 km/h (2 Bft) 92 %
13.02.2018 15:11 4,5 C 59 % 1012,6 hPa 0,0 l/m 2,2 km/h (1 Bft) O-SO 118 -2,8 C 6,3 km/h (2 Bft) 42 %
13.02.2018 15:12 4,5 C 59 % 1012,5 hPa 0,0 l/m 3,1 km/h (1 Bft) O-SO 118 -2,8 C 3,1 km/h (1 Bft) 95 %
13.02.2018 15:13 4,5 C 59 % 1012,6 hPa 0,0 l/m 3,1 km/h (1 Bft) O-SO 118 -2,8 C 3,1 km/h (1 Bft) 95 %
13.02.2018 15:14 4,5 C 59 % 1012,5 hPa 0,0 l/m 3,1 km/h (1 Bft) O-SO 118 -2,8 C 3,1 km/h (1 Bft) 95 %
13.02.2018 15:15 4,5 C 59 % 1012,5 hPa 0,0 l/m 3,1 km/h (1 Bft) O-SO 118 -2,8 C 3,1 km/h (1 Bft) 95 %
13.02.2018 15:16 4,5 C 59 % 1012,5 hPa 0,0 l/m 1,9 km/h (1 Bft) N 360 -2,8 C 3,1 km/h (1 Bft) 33 %
13.02.2018 15:17 4,5 C 59 % 1012,5 hPa 0,0 l/m 3,1 km/h (1 Bft) N 360 -2,8 C 3,1 km/h (1 Bft) 95 %
13.02.2018 15:18 4,6 C 62 % 1012,5 hPa 0,0 l/m 1,3 km/h (1 Bft) O 94 -2,0 C 3,1 km/h (1 Bft) 100 %
13.02.2018 15:19 4,7 C 61 % 1012,4 hPa 0,0 l/m 0,1 km/h (0 Bft) O-NO 77 -2,2 C 3,1 km/h (1 Bft) 96 %
13.02.2018 15:20 4,7 C 62 % 1012,4 hPa 0,0 l/m 1,3 km/h (1 Bft) W-SW 238 -1,9 C 6,3 km/h (2 Bft) 96 %
13.02.2018 15:21 4,7 C 60 % 1012,4 hPa 0,0 l/m 1,3 km/h (1 Bft) O 95 -2,4 C 3,1 km/h (1 Bft) 43 %
13.02.2018 15:22 4,7 C 60 % 1012,5 hPa 0,0 l/m 3,1 km/h (1 Bft) O 95 -2,4 C 3,1 km/h (1 Bft) 5 %
13.02.2018 15:23 4,7 C 60 % 1012,5 hPa 0,0 l/m 3,1 km/h (1 Bft) O 95 -2,4 C 3,1 km/h (1 Bft) 94 %
13.02.2018 15:24 4,7 C 60 % 1012,4 hPa 0,0 l/m 3,1 km/h (1 Bft) O 95 -2,4 C 3,1 km/h (1 Bft) 94 %
13.02.2018 15:25 4,7 C 60 % 1012,4 hPa 0,0 l/m 3,1 km/h (1 Bft) O 95 -2,4 C 3,1 km/h (1 Bft) 94 %
13.02.2018 15:26 4,7 C 60 % 1012,4 hPa 0,0 l/m 3,1 km/h (1 Bft) O 95 -2,4 C 3,1 km/h (1 Bft) 94 %
13.02.2018 15:27 4,7 C 60 % 1012,4 hPa 0,0 l/m 3,1 km/h (1 Bft) O 95 -2,4 C 3,1 km/h (1 Bft) 94 %
13.02.2018 15:28 4,7 C 60 % 1012,4 hPa 0,0 l/m 3,1 km/h (1 Bft) O 95 -2,4 C 3,1 km/h (1 Bft) 94 %
13.02.2018 15:29 4,7 C 60 % 1012,4 hPa 0,0 l/m 3,1 km/h (1 Bft) O 95 -2,4 C 3,1 km/h (1 Bft) 94 %
13.02.2018 15:30 4,6 C 60 % 1012,4 hPa 0,2 l/m 1,3 km/h (1 Bft) N-NO 27 -2,5 C 3,1 km/h (1 Bft) 100 %
13.02.2018 15:31 4,6 C 60 % 1012,4 hPa 0,0 l/m 0,6 km/h (0 Bft) N-NO 25 -2,5 C 3,1 km/h (1 Bft) 100 %
13.02.2018 15:32 4,6 C 60 % 1012,4 hPa 0,0 l/m 1,3 km/h (1 Bft) O-NO 60 -2,5 C 3,1 km/h (1 Bft) 100 %
13.02.2018 15:33 4,5 C 60 % 1012,4 hPa 0,0 l/m 0,3 km/h (0 Bft) O-NO 65 -2,6 C 3,1 km/h (1 Bft) 100 %
13.02.2018 15:34 4,6 C 61 % 1012,4 hPa 0,0 l/m 0,0 km/h (0 Bft) N-NW 336 -2,3 C 0,0 km/h (0 Bft) 100 %
13.02.2018 15:35 4,6 C 61 % 1012,5 hPa 0,0 l/m 0,5 km/h (0 Bft) N 353 -2,3 C 3,1 km/h (1 Bft) 100 %
13.02.2018 15:36 4,7 C 61 % 1012,5 hPa 0,0 l/m 1,7 km/h (1 Bft) NO 49 -2,2 C 6,3 km/h (2 Bft) 100 %
13.02.2018 15:37 4,7 C 61 % 1012,4 hPa 0,0 l/m 2,9 km/h (1 Bft) NO 44 -2,2 C 6,3 km/h (2 Bft) 100 %
13.02.2018 15:38 4,7 C 61 % 1012,4 hPa 0,0 l/m 2,6 km/h (1 Bft) NO 53 -2,2 C 12,6 km/h (3 Bft) 100 %
13.02.2018 15:39 4,6 C 60 % 1012,4 hPa 0,0 l/m 3,3 km/h (1 Bft) O-NO 72 -2,5 C 9,4 km/h (2 Bft) 96 %
13.02.2018 15:40 4,6 C 60 % 1012,4 hPa 0,0 l/m 0,0 km/h (0 Bft) W-SW 240 -2,5 C 0,0 km/h (0 Bft) 91 %
13.02.2018 15:41 4,6 C 61 % 1012,4 hPa 0,0 l/m 2,7 km/h (1 Bft) SW 218 -2,3 C 9,4 km/h (2 Bft) 96 %
13.02.2018 15:42 4,6 C 60 % 1012,4 hPa 0,0 l/m 0,1 km/h (0 Bft) SO 125 -2,5 C 3,1 km/h (1 Bft) 88 %
13.02.2018 15:43 4,6 C 61 % 1012,4 hPa 0,0 l/m 0,8 km/h (0 Bft) O-NO 78 -2,3 C 6,3 km/h (2 Bft) 88 %
13.02.2018 15:44 4,6 C 61 % 1012,4 hPa 0,0 l/m 2,4 km/h (1 Bft) O-NO 72 -2,3 C 3,1 km/h (1 Bft) 67 %
13.02.2018 15:45 4,6 C 60 % 1012,5 hPa 0,0 l/m 0,1 km/h (0 Bft) O 79 -2,5 C 3,1 km/h (1 Bft) 70 %
13.02.2018 15:46 4,6 C 61 % 1012,5 hPa 0,0 l/m 2,7 km/h (1 Bft) O-NO 65 -2,3 C 12,6 km/h (3 Bft) 92 %
13.02.2018 15:47 4,5 C 60 % 1012,4 hPa 0,0 l/m 2,9 km/h (1 Bft) O-SO 103 -2,6 C 6,3 km/h (2 Bft) 100 %
13.02.2018 15:48 4,4 C 60 % 1012,4 hPa 0,0 l/m 2,2 km/h (1 Bft) N 7 -2,7 C 6,3 km/h (2 Bft) 81 %
13.02.2018 15:49 4,4 C 60 % 1012,4 hPa 0,0 l/m 0,5 km/h (0 Bft) O-NO 68 -2,7 C 3,1 km/h (1 Bft) 88 %
13.02.2018 15:50 4,4 C 60 % 1012,4 hPa 0,0 l/m 1,4 km/h (1 Bft) NO 50 -2,7 C 3,1 km/h (1 Bft) 100 %
13.02.2018 15:51 4,4 C 60 % 1012,4 hPa 0,0 l/m 0,3 km/h (0 Bft) NO 41 -2,7 C 3,1 km/h (1 Bft) 100 %
13.02.2018 15:52 4,3 C 60 % 1012,4 hPa 0,0 l/m 1,4 km/h (1 Bft) O 98 -2,8 C 3,1 km/h (1 Bft) 100 %
13.02.2018 15:53 4,3 C 60 % 1012,4 hPa 0,0 l/m 0,2 km/h (0 Bft) O 93 -2,8 C 3,1 km/h (1 Bft) 100 %
13.02.2018 15:54 4,3 C 61 % 1012,4 hPa 0,0 l/m 1,9 km/h (1 Bft) SW 233 -2,5 C 6,3 km/h (2 Bft) 93 %
13.02.2018 15:55 4,2 C 60 % 1012,4 hPa 0,0 l/m 1,4 km/h (1 Bft) O-NO 71 -2,9 C 9,4 km/h (2 Bft) 88 %
13.02.2018 15:56 4,2 C 60 % 1012,4 hPa 0,0 l/m 1,2 km/h (1 Bft) O-NO 78 -2,9 C 6,3 km/h (2 Bft) 100 %
13.02.2018 15:57 4,2 C 60 % 1012,4 hPa 0,0 l/m 1,7 km/h (1 Bft) NO 39 -2,9 C 6,3 km/h (2 Bft) 100 %
13.02.2018 15:58 4,1 C 60 % 1012,4 hPa 0,0 l/m 1,3 km/h (1 Bft) N-NO 14 -3,0 C 6,3 km/h (2 Bft) 100 %
13.02.2018 15:59 4,1 C 60 % 1012,4 hPa 0,0 l/m 0,1 km/h (0 Bft) O-NO 77 -3,0 C 3,1 km/h (1 Bft) 96 %
13.02.2018 16:00 4,1 C 60 % 1012,4 hPa 0,0 l/m 1,7 km/h (1 Bft) O 79 -3,0 C 6,3 km/h (2 Bft) 96 %
13.02.2018 16:01 4,1 C 60 % 1012,4 hPa 0,0 l/m 4,7 km/h (1 Bft) O 86 -3,0 C 12,6 km/h (3 Bft) 96 %
13.02.2018 16:02 4,0 C 60 % 1012,3 hPa 0,0 l/m 0,5 km/h (0 Bft) NO 56 -3,0 C 6,3 km/h (2 Bft) 100 %
13.02.2018 16:03 3,9 C 61 % 1012,4 hPa 0,0 l/m 0,0 km/h (0 Bft) NO 56 -2,9 C 0,0 km/h (0 Bft) 100 %
13.02.2018 16:04 3,9 C 61 % 1012,4 hPa 0,0 l/m 0,0 km/h (0 Bft) NO 56 -2,9 C 0,0 km/h (0 Bft) 100 %
13.02.2018 16:05 3,9 C 61 % 1012,4 hPa 0,0 l/m 3,9 km/h (1 Bft) NO 35 -2,9 C 12,6 km/h (3 Bft) 100 %
13.02.2018 16:06 3,9 C 61 % 1012,4 hPa 0,0 l/m 0,1 km/h (0 Bft) NW 316 -2,9 C 3,1 km/h (1 Bft) 100 %
13.02.2018 16:07 3,9 C 61 % 1012,4 hPa 0,0 l/m 2,1 km/h (1 Bft) O-NO 60 -2,9 C 6,3 km/h (2 Bft) 100 %
13.02.2018 16:08 3,9 C 60 % 1012,5 hPa 0,0 l/m 6,8 km/h (2 Bft) O 86 -3,1 C 15,7 km/h (3 Bft) 100 %
13.02.2018 16:09 3,8 C 60 % 1012,4 hPa 0,0 l/m 4,3 km/h (1 Bft) O-SO 114 -3,2 C 9,4 km/h (2 Bft) 100 %
13.02.2018 16:10 3,8 C 61 % 1012,4 hPa 0,0 l/m 0,3 km/h (0 Bft) N-NW 347 -3,0 C 3,1 km/h (1 Bft) 100 %
13.02.2018 16:11 3,7 C 62 % 1012,4 hPa 0,0 l/m 0,3 km/h (0 Bft) W 280 -2,9 C 3,1 km/h (1 Bft) 100 %
13.02.2018 16:12 3,7 C 61 % 1012,4 hPa 0,0 l/m 0,4 km/h (0 Bft) O 87 -3,1 C 3,1 km/h (1 Bft) 100 %
13.02.2018 16:13 3,7 C 62 % 1012,4 hPa 0,0 l/m 0,1 km/h (0 Bft) NO 56 -2,9 C 3,1 km/h (1 Bft) 88 %
13.02.2018 16:14 3,7 C 62 % 1012,4 hPa 0,0 l/m 0,1 km/h (0 Bft) N-NO 21 -2,9 C 3,1 km/h (1 Bft) 78 %
13.02.2018 16:15 3,7 C 62 % 1012,4 hPa 0,0 l/m 0,0 km/h (0 Bft) N-NO 23 -2,9 C 0,0 km/h (0 Bft) 23 %
13.02.2018 16:16 3,8 C 62 % 1012,4 hPa 0,0 l/m 0,0 km/h (0 Bft) O 80 -2,8 C 0,0 km/h (0 Bft) 25 %
13.02.2018 16:17 3,8 C 62 % 1012,4 hPa 0,0 l/m 0,0 km/h (0 Bft) O 81 -2,8 C 0,0 km/h (0 Bft) 23 %
13.02.2018 16:18 3,7 C 62 % 1012,4 hPa 0,0 l/m 0,0 km/h (0 Bft) O-NO 75 -2,9 C 0,0 km/h (0 Bft) 29 %
13.02.2018 16:19 3,7 C 62 % 1012,4 hPa 0,0 l/m 0,0 km/h (0 Bft) O-NO 75 -2,9 C 0,0 km/h (0 Bft) 26 %
13.02.2018 16:20 3,7 C 62 % 1012,4 hPa 0,0 l/m 0,0 km/h (0 Bft) O-NO 66 -2,9 C 0,0 km/h (0 Bft) 25 %
13.02.2018 16:21 3,7 C 62 % 1012,4 hPa 0,0 l/m 3,3 km/h (1 Bft) O 101 -2,9 C 6,3 km/h (2 Bft) 22 %
13.02.2018 16:22 3,7 C 62 % 1012,4 hPa 0,0 l/m 3,1 km/h (1 Bft) O-NO 70 -2,9 C 3,1 km/h (1 Bft) 5 %
13.02.2018 16:23 3,6 C 62 % 1012,4 hPa 0,0 l/m 0,7 km/h (0 Bft) O-NO 70 -3,0 C 3,1 km/h (1 Bft) 17 %
13.02.2018 16:24 3,6 C 62 % 1012,4 hPa 0,0 l/m 0,0 km/h (0 Bft) NO 53 -3,0 C 0,0 km/h (0 Bft) 17 %
13.02.2018 16:25 3,6 C 62 % 1012,4 hPa 0,0 l/m 0,4 km/h (0 Bft) O-NO 68 -3,0 C 3,1 km/h (1 Bft) 17 %
13.02.2018 16:26 3,6 C 61 % 1012,4 hPa 0,0 l/m 0,1 km/h (0 Bft) N 356 -3,2 C 3,1 km/h (1 Bft) 26 %
13.02.2018 16:27 3,6 C 61 % 1012,4 hPa 0,0 l/m 0,0 km/h (0 Bft) N 356 -3,2 C 0,0 km/h (0 Bft) 92 %
13.02.2018 16:28 3,6 C 61 % 1012,4 hPa 0,0 l/m 0,0 km/h (0 Bft) N 356 -3,2 C 0,0 km/h (0 Bft) 92 %
13.02.2018 16:29 3,4 C 61 % 1012,4 hPa 0,0 l/m 0,0 km/h (0 Bft) O 89 -3,4 C 0,0 km/h (0 Bft) 92 %
13.02.2018 16:30 3,4 C 61 % 1012,4 hPa 0,2 l/m 0,8 km/h (0 Bft) O 89 -3,4 C 3,1 km/h (1 Bft) 32 %
13.02.2018 16:31 3,4 C 61 % 1012,4 hPa 0,0 l/m 2,4 km/h (1 Bft) O-NO 78 -3,4 C 6,3 km/h (2 Bft) 26 %
13.02.2018 16:32 3,3 C 62 % 1012,4 hPa 0,0 l/m 3,7 km/h (1 Bft) NO 46 -3,3 C 6,3 km/h (2 Bft) 21 %
13.02.2018 16:33 3,3 C 62 % 1012,4 hPa 0,0 l/m 0,3 km/h (0 Bft) NO 46 -3,3 C 3,1 km/h (1 Bft) 39 %
13.02.2018 16:34 3,2 C 63 % 1012,4 hPa 0,0 l/m 0,0 km/h (0 Bft) NO 46 -3,1 C 0,0 km/h (0 Bft) 70 %
13.02.2018 16:35 3,2 C 63 % 1012,4 hPa 0,0 l/m 0,7 km/h (0 Bft) NO 56 -3,1 C 3,1 km/h (1 Bft) 100 %
13.02.2018 16:36 3,2 C 63 % 1012,4 hPa 0,0 l/m 0,4 km/h (0 Bft) SW 218 -3,1 C 3,1 km/h (1 Bft) 96 %
13.02.2018 16:37 3,2 C 63 % 1012,4 hPa 0,0 l/m 0,0 km/h (0 Bft) SW 221 -3,1 C 0,0 km/h (0 Bft) 100 %
13.02.2018 16:38 3,2 C 62 % 1012,4 hPa 0,0 l/m 0,8 km/h (0 Bft) O-SO 115 -3,4 C 6,3 km/h (2 Bft) 96 %
13.02.2018 16:39 3,2 C 63 % 1012,4 hPa 0,0 l/m 0,2 km/h (0 Bft) O-SO 114 -3,1 C 3,1 km/h (1 Bft) 96 %
13.02.2018 16:40 3,1 C 62 % 1012,5 hPa 0,0 l/m 2,2 km/h (1 Bft) O-NO 65 -3,5 C 6,3 km/h (2 Bft) 100 %
13.02.2018 16:41 3,1 C 62 % 1012,5 hPa 0,0 l/m 2,7 km/h (1 Bft) O-SO 105 -3,5 C 6,3 km/h (2 Bft) 94 %
13.02.2018 16:42 3,1 C 62 % 1012,5 hPa 0,0 l/m 0,1 km/h (0 Bft) O 91 -3,5 C 3,1 km/h (1 Bft) 96 %
13.02.2018 16:43 3,0 C 63 % 1012,5 hPa 0,0 l/m 1,4 km/h (1 Bft) N-NO 17 -3,3 C 6,3 km/h (2 Bft) 96 %
13.02.2018 16:44 2,9 C 63 % 1012,5 hPa 0,0 l/m 0,2 km/h (0 Bft) NO 56 -3,4 C 3,1 km/h (1 Bft) 96 %
13.02.2018 16:45 2,9 C 63 % 1012,6 hPa 0,0 l/m 0,0 km/h (0 Bft) NO 46 -3,4 C 0,0 km/h (0 Bft) 93 %
13.02.2018 16:46 2,9 C 63 % 1012,5 hPa 0,0 l/m 0,8 km/h (0 Bft) O-SO 109 -3,4 C 3,1 km/h (1 Bft) 96 %
13.02.2018 16:47 2,8 C 63 % 1012,5 hPa 0,0 l/m 0,3 km/h (0 Bft) O-NO 58 -3,5 C 3,1 km/h (1 Bft) 100 %
13.02.2018 16:48 2,8 C 63 % 1012,5 hPa 0,0 l/m 2,9 km/h (1 Bft) O-NO 59 -3,5 C 9,4 km/h (2 Bft) 100 %
13.02.2018 16:49 2,7 C 63 % 1012,5 hPa 0,0 l/m 1,4 km/h (1 Bft) N-NW 330 -3,6 C 3,1 km/h (1 Bft) 100 %
13.02.2018 16:50 2,7 C 63 % 1012,6 hPa 0,0 l/m 1,6 km/h (1 Bft) S-SO 156 -3,6 C 6,3 km/h (2 Bft) 100 %
13.02.2018 16:51 2,6 C 64 % 1012,6 hPa 0,0 l/m 0,0 km/h (0 Bft) O-SO 105 -3,5 C 0,0 km/h (0 Bft) 100 %
13.02.2018 16:52 2,6 C 64 % 1012,6 hPa 0,0 l/m 0,3 km/h (0 Bft) O 84 -3,5 C 3,1 km/h (1 Bft) 96 %
13.02.2018 16:53 2,5 C 64 % 1012,6 hPa 0,0 l/m 0,8 km/h (0 Bft) O-NO 64 -3,6 C 3,1 km/h (1 Bft) 100 %
13.02.2018 16:54 2,4 C 64 % 1012,6 hPa 0,0 l/m 0,0 km/h (0 Bft) O-NO 66 -3,7 C 0,0 km/h (0 Bft) 100 %
13.02.2018 16:55 2,3 C 65 % 1012,5 hPa 0,0 l/m 0,0 km/h (0 Bft) O-NO 67 -3,6 C 0,0 km/h (0 Bft) 96 %
13.02.2018 16:56 2,3 C 65 % 1012,5 hPa 0,0 l/m 4,2 km/h (1 Bft) O 79 -3,6 C 9,4 km/h (2 Bft) 100 %
13.02.2018 16:57 2,2 C 65 % 1012,5 hPa 0,0 l/m 0,0 km/h (0 Bft) O 79 -3,7 C 0,0 km/h (0 Bft) 100 %
13.02.2018 16:58 2,2 C 65 % 1012,6 hPa 0,0 l/m 0,0 km/h (0 Bft) O 79 -3,7 C 0,0 km/h (0 Bft) 97 %
13.02.2018 16:59 2,1 C 66 % 1012,5 hPa 0,0 l/m 0,0 km/h (0 Bft) O-NO 77 -3,6 C 0,0 km/h (0 Bft) 52 %
13.02.2018 17:00 2,1 C 66 % 1012,6 hPa 0,0 l/m 0,0 km/h (0 Bft) O-NO 64 -3,6 C 0,0 km/h (0 Bft) 29 %
13.02.2018 17:01 2,1 C 66 % 1012,5 hPa 0,0 l/m 0,2 km/h (0 Bft) NO 54 -3,6 C 3,1 km/h (1 Bft) 67 %
13.02.2018 17:02 2,0 C 66 % 1012,5 hPa 0,0 l/m 0,0 km/h (0 Bft) O-NO 72 -3,7 C 0,0 km/h (0 Bft) 27 %
13.02.2018 17:03 1,9 C 66 % 1012,6 hPa 0,0 l/m 0,0 km/h (0 Bft) NO 56 -3,8 C 0,0 km/h (0 Bft) 66 %
13.02.2018 17:04 1,9 C 66 % 1012,6 hPa 0,0 l/m 0,0 km/h (0 Bft) NO 56 -3,8 C 0,0 km/h (0 Bft) 13 %
13.02.2018 17:05 1,8 C 67 % 1012,5 hPa 0,0 l/m 0,0 km/h (0 Bft) NO 46 -3,7 C 0,0 km/h (0 Bft) 100 %
13.02.2018 17:06 1,8 C 67 % 1012,6 hPa 0,0 l/m 0,0 km/h (0 Bft) NO 48 -3,7 C 0,0 km/h (0 Bft) 100 %
13.02.2018 17:07 1,7 C 67 % 1012,6 hPa 0,0 l/m 0,0 km/h (0 Bft) O-NO 71 -3,8 C 0,0 km/h (0 Bft) 96 %
13.02.2018 17:08 1,7 C 67 % 1012,6 hPa 0,0 l/m 0,0 km/h (0 Bft) O-NO 77 -3,8 C 0,0 km/h (0 Bft) 100 %
13.02.2018 17:09 1,6 C 67 % 1012,6 hPa 0,0 l/m 0,0 km/h (0 Bft) O-NO 72 -3,9 C 0,0 km/h (0 Bft) 100 %
13.02.2018 17:10 1,6 C 67 % 1012,6 hPa 0,0 l/m 0,0 km/h (0 Bft) NO 37 -3,9 C 0,0 km/h (0 Bft) 100 %
13.02.2018 17:11 1,6 C 67 % 1012,6 hPa 0,0 l/m 1,0 km/h (0 Bft) NO 56 -3,9 C 3,1 km/h (1 Bft) 100 %
13.02.2018 17:12 1,5 C 67 % 1012,6 hPa 0,0 l/m 0,4 km/h (0 Bft) O-SO 110 -3,9 C 3,1 km/h (1 Bft) 100 %
13.02.2018 17:13 1,4 C 67 % 1012,6 hPa 0,0 l/m 0,0 km/h (0 Bft) O 80 -4,0 C 0,0 km/h (0 Bft) 100 %
13.02.2018 17:14 1,4 C 67 % 1012,6 hPa 0,0 l/m 0,1 km/h (0 Bft) O 94 -4,0 C 3,1 km/h (1 Bft) 100 %
13.02.2018 17:15 1,4 C 67 % 1012,6 hPa 0,0 l/m 0,0 km/h (0 Bft) O-NO 62 -4,0 C 0,0 km/h (0 Bft) 100 %
13.02.2018 17:16 1,3 C 67 % 1012,6 hPa 0,0 l/m 0,0 km/h (0 Bft) O-NO 77 -4,1 C 0,0 km/h (0 Bft) 74 %
13.02.2018 17:17 1,3 C 67 % 1012,5 hPa 0,0 l/m 0,0 km/h (0 Bft) O 79 -4,1 C 0,0 km/h (0 Bft) 100 %
13.02.2018 17:18 1,3 C 67 % 1012,6 hPa 0,0 l/m 0,0 km/h (0 Bft) O 79 -4,1 C 0,0 km/h (0 Bft) 100 %
13.02.2018 17:19 1,2 C 67 % 1012,5 hPa 0,0 l/m 0,0 km/h (0 Bft) O-NO 58 -4,2 C 0,0 km/h (0 Bft) 100 %
13.02.2018 17:20 1,2 C 67 % 1012,6 hPa 0,0 l/m 0,0 km/h (0 Bft) NO 56 -4,2 C 0,0 km/h (0 Bft) 100 %
13.02.2018 17:21 1,2 C 68 % 1012,6 hPa 0,0 l/m 0,0 km/h (0 Bft) NO 56 -4,0 C 0,0 km/h (0 Bft) 100 %
13.02.2018 17:22 1,2 C 68 % 1012,6 hPa 0,0 l/m 0,0 km/h (0 Bft) NO 56 -4,0 C 0,0 km/h (0 Bft) 100 %
13.02.2018 17:23 1,1 C 68 % 1012,5 hPa 0,0 l/m 0,0 km/h (0 Bft) O-NO 57 -4,1 C 0,0 km/h (0 Bft) 100 %
13.02.2018 17:24 1,1 C 68 % 1012,5 hPa 0,0 l/m 0,0 km/h (0 Bft) O-NO 57 -4,1 C 0,0 km/h (0 Bft) 100 %
13.02.2018 17:25 1,1 C 68 % 1012,5 hPa 0,0 l/m 0,0 km/h (0 Bft) O-NO 62 -4,1 C 0,0 km/h (0 Bft) 100 %
13.02.2018 17:26 1,0 C 68 % 1012,5 hPa 0,0 l/m 0,0 km/h (0 Bft) O-NO 62 -4,2 C 0,0 km/h (0 Bft) 100 %
13.02.2018 17:27 0,9 C 68 % 1012,6 hPa 0,0 l/m 0,0 km/h (0 Bft) O-NO 62 -4,3 C 0,0 km/h (0 Bft) 100 %
13.02.2018 17:28 0,9 C 69 % 1012,5 hPa 0,0 l/m 0,0 km/h (0 Bft) O-NO 62 -4,1 C 0,0 km/h (0 Bft) 100 %
13.02.2018 17:29 0,9 C 69 % 1012,6 hPa 0,0 l/m 0,0 km/h (0 Bft) O-NO 62 -4,1 C 0,0 km/h (0 Bft) 100 %
13.02.2018 17:30 0,8 C 69 % 1012,5 hPa 0,0 l/m 0,0 km/h (0 Bft) O-NO 62 -4,2 C 0,0 km/h (0 Bft) 100 %
13.02.2018 17:31 0,8 C 69 % 1012,5 hPa 0,0 l/m 0,0 km/h (0 Bft) O-NO 63 -4,2 C 0,0 km/h (0 Bft) 92 %
13.02.2018 17:32 0,7 C 69 % 1012,6 hPa 0,0 l/m 0,0 km/h (0 Bft) N-NO 28 -4,3 C 0,0 km/h (0 Bft) 100 %
13.02.2018 17:33 0,7 C 69 % 1012,5 hPa 0,0 l/m 0,0 km/h (0 Bft) N-NO 29 -4,3 C 0,0 km/h (0 Bft) 70 %
13.02.2018 17:34 0,7 C 70 % 1012,6 hPa 0,0 l/m 0,9 km/h (0 Bft) O 86 -4,1 C 3,1 km/h (1 Bft) 94 %
13.02.2018 17:35 0,7 C 70 % 1012,5 hPa 0,0 l/m 0,6 km/h (0 Bft) O 86 -4,1 C 3,1 km/h (1 Bft) 62 %
13.02.2018 17:36 0,6 C 70 % 1012,6 hPa 0,0 l/m 0,0 km/h (0 Bft) O 86 -4,2 C 0,0 km/h (0 Bft) 45 %
13.02.2018 17:37 0,6 C 70 % 1012,6 hPa 0,0 l/m 0,0 km/h (0 Bft) O-NO 77 -4,2 C 0,0 km/h (0 Bft) 59 %
13.02.2018 17:38 0,6 C 70 % 1012,6 hPa 0,0 l/m 0,0 km/h (0 Bft) O-NO 77 -4,2 C 0,0 km/h (0 Bft) 15 %
13.02.2018 17:39 0,6 C 70 % 1012,6 hPa 0,0 l/m 0,0 km/h (0 Bft) O-NO 77 -4,2 C 0,0 km/h (0 Bft) 54 %
13.02.2018 17:40 0,5 C 70 % 1012,6 hPa 0,0 l/m 0,0 km/h (0 Bft) O-NO 77 -4,3 C 0,0 km/h (0 Bft) 73 %
13.02.2018 17:41 0,5 C 70 % 1012,6 hPa 0,0 l/m 0,0 km/h (0 Bft) O-NO 77 -4,3 C 0,0 km/h (0 Bft) 96 %
13.02.2018 17:42 0,4 C 71 % 1012,6 hPa 0,0 l/m 0,4 km/h (0 Bft) O-NO 70 -4,2 C 3,1 km/h (1 Bft) 47 %
13.02.2018 17:43 0,4 C 71 % 1012,6 hPa 0,0 l/m 0,6 km/h (0 Bft) O 92 -4,2 C 3,1 km/h (1 Bft) 90 %
13.02.2018 17:44 0,4 C 71 % 1012,6 hPa 0,0 l/m 0,0 km/h (0 Bft) O 92 -4,2 C 0,0 km/h (0 Bft) 71 %
13.02.2018 17:45 0,4 C 71 % 1012,6 hPa 0,0 l/m 0,0 km/h (0 Bft) O 89 -4,2 C 0,0 km/h (0 Bft) 67 %
13.02.2018 17:46 0,4 C 71 % 1012,6 hPa 0,0 l/m 0,0 km/h (0 Bft) O 90 -4,2 C 0,0 km/h (0 Bft) 100 %
13.02.2018 17:47 0,4 C 71 % 1012,6 hPa 0,0 l/m 0,4 km/h (0 Bft) O 88 -4,2 C 3,1 km/h (1 Bft) 96 %
13.02.2018 17:48 0,3 C 71 % 1012,6 hPa 0,0 l/m 0,0 km/h (0 Bft) O 88 -4,3 C 0,0 km/h (0 Bft) 92 %
13.02.2018 17:49 0,3 C 71 % 1012,5 hPa 0,0 l/m 0,0 km/h (0 Bft) O 88 -4,3 C 0,0 km/h (0 Bft) 78 %
13.02.2018 17:50 0,3 C 71 % 1012,6 hPa 0,0 l/m 0,0 km/h (0 Bft) O-NO 78 -4,3 C 0,0 km/h (0 Bft) 93 %
13.02.2018 17:51 0,2 C 71 % 1012,6 hPa 0,0 l/m 0,0 km/h (0 Bft) O-NO 78 -4,4 C 0,0 km/h (0 Bft) 87 %
13.02.2018 17:52 0,2 C 72 % 1012,6 hPa 0,0 l/m 0,1 km/h (0 Bft) O 84 -4,2 C 3,1 km/h (1 Bft) 100 %
13.02.2018 17:53 0,2 C 72 % 1012,6 hPa 0,0 l/m 0,0 km/h (0 Bft) O 84 -4,2 C 0,0 km/h (0 Bft) 96 %
13.02.2018 17:54 0,2 C 72 % 1012,6 hPa 0,0 l/m 0,0 km/h (0 Bft) O-NO 60 -4,2 C 0,0 km/h (0 Bft) 92 %
13.02.2018 17:55 0,2 C 72 % 1012,6 hPa 0,0 l/m 0,3 km/h (0 Bft) O-NO 60 -4,2 C 3,1 km/h (1 Bft) 92 %
13.02.2018 17:56 0,2 C 72 % 1012,5 hPa 0,0 l/m 0,0 km/h (0 Bft) O-NO 75 -4,2 C 0,0 km/h (0 Bft) 69 %
13.02.2018 17:57 0,1 C 72 % 1012,5 hPa 0,0 l/m 0,0 km/h (0 Bft) O-NO 75 -4,3 C 0,0 km/h (0 Bft) 83 %
13.02.2018 17:58 0,1 C 72 % 1012,6 hPa 0,0 l/m 0,0 km/h (0 Bft) O-NO 75 -4,3 C 0,0 km/h (0 Bft) 83 %
13.02.2018 17:59 0,1 C 72 % 1012,6 hPa 0,0 l/m 0,0 km/h (0 Bft) O-NO 75 -4,3 C 0,0 km/h (0 Bft) 70 %
13.02.2018 18:00 0,1 C 72 % 1012,6 hPa 0,0 l/m 0,0 km/h (0 Bft) O-NO 75 -4,3 C 0,0 km/h (0 Bft) 46 %
13.02.2018 18:01 0,1 C 72 % 1012,6 hPa 0,0 l/m 0,0 km/h (0 Bft) O-NO 75 -4,3 C 0,0 km/h (0 Bft) 30 %
13.02.2018 18:02 0,0 C 72 % 1012,6 hPa 0,0 l/m 0,0 km/h (0 Bft) O-NO 75 -4,4 C 0,0 km/h (0 Bft) 75 %
13.02.2018 18:03 -0,1 C 73 % 1012,5 hPa 0,0 l/m 0,1 km/h (0 Bft) O-NO 75 -4,3 C 3,1 km/h (1 Bft) 100 %
13.02.2018 18:04 -0,1 C 73 % 1012,6 hPa 0,0 l/m 0,0 km/h (0 Bft) O-NO 75 -4,3 C 0,0 km/h (0 Bft) 100 %
13.02.2018 18:05 -0,1 C 73 % 1012,6 hPa 0,0 l/m 0,0 km/h (0 Bft) O-NO 75 -4,3 C 0,0 km/h (0 Bft) 100 %
13.02.2018 18:06 -0,1 C 73 % 1012,5 hPa 0,0 l/m 0,0 km/h (0 Bft) O-NO 75 -4,3 C 0,0 km/h (0 Bft) 35 %
13.02.2018 18:07 -0,2 C 73 % 1012,6 hPa 0,0 l/m 0,0 km/h (0 Bft) O-NO 75 -4,4 C 0,0 km/h (0 Bft) 25 %
13.02.2018 18:08 -0,2 C 73 % 1012,6 hPa 0,0 l/m 0,0 km/h (0 Bft) O-NO 75 -4,4 C 0,0 km/h (0 Bft) 17 %
13.02.2018 18:09 -0,2 C 73 % 1012,6 hPa 0,0 l/m 0,0 km/h (0 Bft) O-NO 75 -4,4 C 0,0 km/h (0 Bft) 83 %
13.02.2018 18:10 -0,3 C 73 % 1012,5 hPa 0,0 l/m 0,7 km/h (0 Bft) O-SO 115 -4,5 C 3,1 km/h (1 Bft) 96 %
13.02.2018 18:11 -0,3 C 73 % 1012,5 hPa 0,0 l/m 0,0 km/h (0 Bft) O-SO 115 -4,5 C 0,0 km/h (0 Bft) 100 %
13.02.2018 18:12 -0,3 C 73 % 1012,5 hPa 0,0 l/m 0,0 km/h (0 Bft) O-SO 115 -4,5 C 0,0 km/h (0 Bft) 83 %
13.02.2018 18:13 -0,3 C 73 % 1012,5 hPa 0,0 l/m 0,0 km/h (0 Bft) O-SO 115 -4,5 C 0,0 km/h (0 Bft) 52 %
13.02.2018 18:14 -0,3 C 73 % 1012,5 hPa 0,0 l/m 0,0 km/h (0 Bft) O-SO 115 -4,5 C 0,0 km/h (0 Bft) 17 %
13.02.2018 18:15 -0,3 C 73 % 1012,5 hPa 0,0 l/m 0,0 km/h (0 Bft) O-SO 115 -4,5 C 0,0 km/h (0 Bft) 42 %
13.02.2018 18:16 -0,3 C 74 % 1012,5 hPa 0,0 l/m 0,2 km/h (0 Bft) O-SO 115 -4,4 C 3,1 km/h (1 Bft) 67 %
13.02.2018 18:17 -0,4 C 74 % 1012,5 hPa 0,0 l/m 0,0 km/h (0 Bft) O-SO 115 -4,5 C 0,0 km/h (0 Bft) 76 %
13.02.2018 18:18 -0,4 C 74 % 1012,5 hPa 0,0 l/m 0,0 km/h (0 Bft) O-SO 115 -4,5 C 0,0 km/h (0 Bft) 83 %
13.02.2018 18:19 -0,4 C 74 % 1012,6 hPa 0,0 l/m 0,0 km/h (0 Bft) O-SO 115 -4,5 C 0,0 km/h (0 Bft) 96 %
13.02.2018 18:20 -0,4 C 74 % 1012,5 hPa 0,0 l/m 1,0 km/h (0 Bft) O-SO 113 -4,5 C 6,3 km/h (2 Bft) 100 %
13.02.2018 18:21 -0,4 C 74 % 1012,5 hPa 0,0 l/m 0,0 km/h (0 Bft) O-NO 63 -4,5 C 0,0 km/h (0 Bft) 96 %
13.02.2018 18:22 -0,4 C 74 % 1012,5 hPa 0,0 l/m 0,0 km/h (0 Bft) O-NO 63 -4,5 C 0,0 km/h (0 Bft) 91 %
13.02.2018 18:23 -0,4 C 74 % 1012,5 hPa 0,0 l/m 0,0 km/h (0 Bft) O-NO 63 -4,5 C 0,0 km/h (0 Bft) 91 %
13.02.2018 18:24 -0,4 C 74 % 1012,6 hPa 0,0 l/m 0,0 km/h (0 Bft) O-NO 63 -4,5 C 0,0 km/h (0 Bft) 88 %
13.02.2018 18:25 -0,4 C 74 % 1012,6 hPa 0,0 l/m 0,0 km/h (0 Bft) O-NO 63 -4,5 C 0,0 km/h (0 Bft) 100 %
13.02.2018 18:26 -0,5 C 74 % 1012,6 hPa 0,0 l/m 0,0 km/h (0 Bft) O-NO 63 -4,5 C 0,0 km/h (0 Bft) 100 %
13.02.2018 18:27 -0,6 C 74 % 1012,6 hPa 0,0 l/m 0,0 km/h (0 Bft) O-NO 63 -4,6 C 0,0 km/h (0 Bft) 100 %
13.02.2018 18:28 -0,6 C 74 % 1012,6 hPa 0,0 l/m 0,0 km/h (0 Bft) O-NO 63 -4,6 C 0,0 km/h (0 Bft) 100 %
13.02.2018 18:29 -0,6 C 74 % 1012,6 hPa 0,0 l/m 0,1 km/h (0 Bft) O-NO 63 -4,6 C 3,1 km/h (1 Bft) 100 %
13.02.2018 18:30 -0,6 C 74 % 1012,6 hPa 0,0 l/m 0,0 km/h (0 Bft) O-NO 63 -4,6 C 0,0 km/h (0 Bft) 100 %
13.02.2018 18:31 -0,7 C 74 % 1012,6 hPa 0,0 l/m 0,0 km/h (0 Bft) O-NO 64 -4,7 C 0,0 km/h (0 Bft) 100 %
13.02.2018 18:32 -0,7 C 74 % 1012,6 hPa 0,0 l/m 0,0 km/h (0 Bft) O-NO 64 -4,7 C 0,0 km/h (0 Bft) 100 %
13.02.2018 18:33 -0,7 C 75 % 1012,6 hPa 0,0 l/m 0,0 km/h (0 Bft) O 87 -4,6 C 0,0 km/h (0 Bft) 100 %
13.02.2018 18:34 -0,7 C 75 % 1012,6 hPa 0,0 l/m 0,0 km/h (0 Bft) O 86 -4,6 C 0,0 km/h (0 Bft) 96 %
13.02.2018 18:35 -0,7 C 75 % 1012,6 hPa 0,0 l/m 0,0 km/h (0 Bft) O 86 -4,6 C 0,0 km/h (0 Bft) 100 %
13.02.2018 18:36 -0,7 C 74 % 1012,6 hPa 0,0 l/m 0,0 km/h (0 Bft) O 86 -4,7 C 0,0 km/h (0 Bft) 100 %
13.02.2018 18:37 -0,7 C 75 % 1012,6 hPa 0,0 l/m 0,0 km/h (0 Bft) O 86 -4,6 C 0,0 km/h (0 Bft) 100 %
13.02.2018 18:38 -0,7 C 75 % 1012,6 hPa 0,0 l/m 0,0 km/h (0 Bft) O-NO 72 -4,6 C 0,0 km/h (0 Bft) 100 %
13.02.2018 18:39 -0,7 C 75 % 1012,6 hPa 0,0 l/m 0,0 km/h (0 Bft) O-NO 72 -4,6 C 0,0 km/h (0 Bft) 100 %
13.02.2018 18:40 -0,8 C 75 % 1012,6 hPa 0,0 l/m 0,0 km/h (0 Bft) O-NO 72 -4,7 C 0,0 km/h (0 Bft) 100 %
13.02.2018 18:41 -0,8 C 75 % 1012,6 hPa 0,0 l/m 0,0 km/h (0 Bft) O-NO 72 -4,7 C 0,0 km/h (0 Bft) 100 %
13.02.2018 18:42 -0,8 C 75 % 1012,6 hPa 0,0 l/m 0,0 km/h (0 Bft) O-NO 72 -4,7 C 0,0 km/h (0 Bft) 100 %
13.02.2018 18:43 -0,8 C 75 % 1012,6 hPa 0,0 l/m 0,0 km/h (0 Bft) O-NO 72 -4,7 C 0,0 km/h (0 Bft) 100 %
13.02.2018 18:44 -0,8 C 75 % 1012,6 hPa 0,0 l/m 0,0 km/h (0 Bft) O-NO 72 -4,7 C 0,0 km/h (0 Bft) 100 %
13.02.2018 18:45 -0,9 C 76 % 1012,7 hPa 0,0 l/m 0,0 km/h (0 Bft) O-NO 72 -4,6 C 0,0 km/h (0 Bft) 100 %
13.02.2018 18:46 -0,9 C 76 % 1012,6 hPa 0,0 l/m 0,7 km/h (0 Bft) SO 126 -4,6 C 6,3 km/h (2 Bft) 100 %
13.02.2018 18:47 -0,9 C 76 % 1012,6 hPa 0,0 l/m 0,0 km/h (0 Bft) O-SO 120 -4,6 C 0,0 km/h (0 Bft) 100 %
13.02.2018 18:48 -0,9 C 76 % 1012,6 hPa 0,0 l/m 0,0 km/h (0 Bft) O-SO 120 -4,6 C 0,0 km/h (0 Bft) 100 %
13.02.2018 18:49 -0,9 C 76 % 1012,7 hPa 0,0 l/m 0,0 km/h (0 Bft) O-SO 120 -4,6 C 0,0 km/h (0 Bft) 100 %
13.02.2018 18:50 -0,9 C 76 % 1012,7 hPa 0,0 l/m 0,0 km/h (0 Bft) O-SO 120 -4,6 C 0,0 km/h (0 Bft) 100 %
13.02.2018 18:51 -0,9 C 76 % 1012,7 hPa 0,0 l/m 0,1 km/h (0 Bft) N-NO 31 -4,6 C 3,1 km/h (1 Bft) 100 %
13.02.2018 18:52 -0,9 C 76 % 1012,7 hPa 0,0 l/m 0,1 km/h (0 Bft) N-NO 30 -4,6 C 3,1 km/h (1 Bft) 100 %
13.02.2018 18:53 -0,9 C 77 % 1012,7 hPa 0,0 l/m 0,0 km/h (0 Bft) N-NO 19 -4,4 C 0,0 km/h (0 Bft) 100 %
13.02.2018 18:54 -1,0 C 77 % 1012,7 hPa 0,0 l/m 0,1 km/h (0 Bft) N-NO 15 -4,5 C 3,1 km/h (1 Bft) 100 %
13.02.2018 18:55 -1,0 C 77 % 1012,8 hPa 0,0 l/m 0,0 km/h (0 Bft) N-NO 15 -4,5 C 0,0 km/h (0 Bft) 100 %
13.02.2018 18:56 -0,9 C 77 % 1012,8 hPa 0,0 l/m 0,3 km/h (0 Bft) N-NO 15 -4,4 C 3,1 km/h (1 Bft) 100 %
13.02.2018 18:57 -0,9 C 77 % 1012,7 hPa 0,0 l/m 0,0 km/h (0 Bft) N-NO 15 -4,4 C 0,0 km/h (0 Bft) 100 %
13.02.2018 18:58 -0,9 C 77 % 1012,8 hPa 0,0 l/m 0,0 km/h (0 Bft) N-NO 15 -4,4 C 0,0 km/h (0 Bft) 100 %
13.02.2018 18:59 -0,9 C 77 % 1012,7 hPa 0,0 l/m 0,0 km/h (0 Bft) N-NO 15 -4,4 C 0,0 km/h (0 Bft) 100 %
13.02.2018 19:00 -0,9 C 77 % 1012,7 hPa 0,0 l/m 0,0 km/h (0 Bft) N-NO 15 -4,4 C 0,0 km/h (0 Bft) 100 %
13.02.2018 19:01 -1,0 C 77 % 1012,8 hPa 0,0 l/m 0,0 km/h (0 Bft) N-NO 15 -4,5 C 0,0 km/h (0 Bft) 100 %
13.02.2018 19:02 -1,0 C 77 % 1012,8 hPa 0,0 l/m 0,0 km/h (0 Bft) N-NO 17 -4,5 C 0,0 km/h (0 Bft) 100 %
13.02.2018 19:03 -1,0 C 77 % 1012,7 hPa 0,0 l/m 0,0 km/h (0 Bft) N-NO 17 -4,5 C 0,0 km/h (0 Bft) 100 %
13.02.2018 19:04 -1,0 C 77 % 1012,8 hPa 0,0 l/m 0,0 km/h (0 Bft) N-NO 17 -4,5 C 0,0 km/h (0 Bft) 100 %
13.02.2018 19:05 -1,1 C 77 % 1012,8 hPa 0,0 l/m 0,0 km/h (0 Bft) N-NO 17 -4,6 C 0,0 km/h (0 Bft) 100 %
13.02.2018 19:06 -1,1 C 77 % 1012,8 hPa 0,0 l/m 0,4 km/h (0 Bft) O-SO 103 -4,6 C 3,1 km/h (1 Bft) 100 %
13.02.2018 19:07 -1,1 C 77 % 1012,8 hPa 0,0 l/m 0,0 km/h (0 Bft) O-NO 68 -4,6 C 0,0 km/h (0 Bft) 100 %
13.02.2018 19:08 -1,1 C 77 % 1012,8 hPa 0,0 l/m 0,0 km/h (0 Bft) O-NO 68 -4,6 C 0,0 km/h (0 Bft) 100 %
13.02.2018 19:09 -1,1 C 77 % 1012,8 hPa 0,0 l/m 0,1 km/h (0 Bft) O-NO 68 -4,6 C 3,1 km/h (1 Bft) 100 %
13.02.2018 19:10 -1,1 C 77 % 1012,8 hPa 0,0 l/m 0,0 km/h (0 Bft) O-NO 68 -4,6 C 0,0 km/h (0 Bft) 100 %
13.02.2018 19:11 -1,1 C 77 % 1012,8 hPa 0,0 l/m 0,0 km/h (0 Bft) O-NO 68 -4,6 C 0,0 km/h (0 Bft) 100 %
13.02.2018 19:12 -1,1 C 78 % 1012,8 hPa 0,0 l/m 0,1 km/h (0 Bft) O-NO 68 -4,4 C 3,1 km/h (1 Bft) 100 %
13.02.2018 19:13 -1,1 C 78 % 1012,8 hPa 0,0 l/m 0,0 km/h (0 Bft) O-NO 68 -4,4 C 0,0 km/h (0 Bft) 100 %
13.02.2018 19:14 -1,1 C 78 % 1012,8 hPa 0,0 l/m 0,0 km/h (0 Bft) O-NO 68 -4,4 C 0,0 km/h (0 Bft) 100 %
13.02.2018 19:15 -1,1 C 78 % 1012,8 hPa 0,0 l/m 0,0 km/h (0 Bft) O-NO 68 -4,4 C 0,0 km/h (0 Bft) 100 %
13.02.2018 19:16 -1,1 C 78 % 1012,8 hPa 0,0 l/m 0,0 km/h (0 Bft) O-NO 68 -4,4 C 0,0 km/h (0 Bft) 100 %
13.02.2018 19:17 -1,1 C 78 % 1012,8 hPa 0,0 l/m 0,0 km/h (0 Bft) O-NO 68 -4,4 C 0,0 km/h (0 Bft) 100 %
13.02.2018 19:18 -1,1 C 78 % 1012,8 hPa 0,0 l/m 0,0 km/h (0 Bft) O-NO 69 -4,4 C 0,0 km/h (0 Bft) 100 %
13.02.2018 19:19 -1,1 C 78 % 1012,7 hPa 0,0 l/m 0,0 km/h (0 Bft) O-NO 69 -4,4 C 0,0 km/h (0 Bft) 96 %
13.02.2018 19:20 -1,1 C 78 % 1012,8 hPa 0,0 l/m 0,0 km/h (0 Bft) O-NO 69 -4,4 C 0,0 km/h (0 Bft) 100 %
13.02.2018 19:21 -1,2 C 78 % 1012,7 hPa 0,0 l/m 0,0 km/h (0 Bft) O-NO 69 -4,5 C 0,0 km/h (0 Bft) 96 %
13.02.2018 19:22 -1,2 C 78 % 1012,7 hPa 0,0 l/m 0,0 km/h (0 Bft) O-NO 69 -4,5 C 0,0 km/h (0 Bft) 100 %
13.02.2018 19:23 -1,2 C 78 % 1012,8 hPa 0,0 l/m 0,0 km/h (0 Bft) O-NO 69 -4,5 C 0,0 km/h (0 Bft) 96 %
13.02.2018 19:24 -1,1 C 78 % 1012,8 hPa 0,0 l/m 0,2 km/h (0 Bft) O 84 -4,4 C 3,1 km/h (1 Bft) 96 %
13.02.2018 19:25 -1,1 C 78 % 1012,8 hPa 0,0 l/m 0,7 km/h (0 Bft) O 86 -4,4 C 3,1 km/h (1 Bft) 100 %
13.02.2018 19:26 -1,1 C 78 % 1012,8 hPa 0,0 l/m 0,7 km/h (0 Bft) NO 51 -4,4 C 3,1 km/h (1 Bft) 96 %
13.02.2018 19:27 -1,1 C 78 % 1012,8 hPa 0,0 l/m 0,5 km/h (0 Bft) O-NO 66 -4,4 C 3,1 km/h (1 Bft) 100 %
13.02.2018 19:28 -1,1 C 77 % 1012,8 hPa 0,0 l/m 0,6 km/h (0 Bft) O 79 -4,6 C 3,1 km/h (1 Bft) 93 %
13.02.2018 19:29 -1,2 C 77 % 1012,8 hPa 0,0 l/m 3,8 km/h (1 Bft) O-NO 63 -4,7 C 12,6 km/h (3 Bft) 100 %
13.02.2018 19:30 -1,2 C 77 % 1012,9 hPa 0,0 l/m 2,2 km/h (1 Bft) O-NO 71 -4,7 C 6,3 km/h (2 Bft) 96 %
13.02.2018 19:31 -1,3 C 77 % 1012,9 hPa 0,0 l/m 0,4 km/h (0 Bft) NO 56 -4,8 C 3,1 km/h (1 Bft) 100 %
13.02.2018 19:32 -1,4 C 78 % 1012,9 hPa 0,0 l/m 1,1 km/h (1 Bft) O 85 -4,7 C 6,3 km/h (2 Bft) 96 %
13.02.2018 19:33 -1,5 C 78 % 1012,9 hPa 0,0 l/m 0,8 km/h (0 Bft) O 82 -4,8 C 3,1 km/h (1 Bft) 96 %
13.02.2018 19:34 -1,6 C 78 % 1012,9 hPa 0,0 l/m 0,0 km/h (0 Bft) O-SO 102 -4,9 C 0,0 km/h (0 Bft) 100 %
13.02.2018 19:35 -1,6 C 78 % 1012,9 hPa 0,0 l/m 0,0 km/h (0 Bft) O-SO 102 -4,9 C 0,0 km/h (0 Bft) 96 %
13.02.2018 19:36 -1,7 C 78 % 1012,9 hPa 0,0 l/m 0,0 km/h (0 Bft) O-SO 103 -5,0 C 0,0 km/h (0 Bft) 100 %
13.02.2018 19:37 -1,7 C 79 % 1012,9 hPa 0,0 l/m 0,0 km/h (0 Bft) O 93 -4,8 C 0,0 km/h (0 Bft) 94 %
13.02.2018 19:38 -1,7 C 79 % 1012,9 hPa 0,0 l/m 0,0 km/h (0 Bft) O 94 -4,8 C 0,0 km/h (0 Bft) 100 %
13.02.2018 19:39 -1,7 C 79 % 1012,9 hPa 0,0 l/m 0,0 km/h (0 Bft) O-NO 73 -4,8 C 0,0 km/h (0 Bft) 96 %
13.02.2018 19:40 -1,8 C 79 % 1012,9 hPa 0,0 l/m 0,0 km/h (0 Bft) O 87 -4,9 C 0,0 km/h (0 Bft) 96 %
13.02.2018 19:41 -1,8 C 79 % 1012,9 hPa 0,0 l/m 0,0 km/h (0 Bft) O-SO 117 -4,9 C 0,0 km/h (0 Bft) 100 %
13.02.2018 19:42 -1,7 C 79 % 1013,0 hPa 0,0 l/m 0,0 km/h (0 Bft) O-SO 117 -4,8 C 0,0 km/h (0 Bft) 96 %
13.02.2018 19:43 -1,7 C 79 % 1012,9 hPa 0,0 l/m 0,0 km/h (0 Bft) O-NO 77 -4,8 C 0,0 km/h (0 Bft) 100 %
13.02.2018 19:44 -1,7 C 79 % 1013,0 hPa 0,0 l/m 0,0 km/h (0 Bft) O 93 -4,8 C 0,0 km/h (0 Bft) 100 %
13.02.2018 19:45 -1,7 C 79 % 1012,9 hPa 0,0 l/m 0,0 km/h (0 Bft) O 92 -4,8 C 0,0 km/h (0 Bft) 96 %
13.02.2018 19:46 -1,7 C 79 % 1012,9 hPa 0,0 l/m 0,7 km/h (0 Bft) O-SO 104 -4,8 C 3,1 km/h (1 Bft) 100 %
13.02.2018 19:47 -1,7 C 79 % 1012,9 hPa 0,0 l/m 0,5 km/h (0 Bft) SO 128 -4,8 C 3,1 km/h (1 Bft) 97 %
13.02.2018 19:48 -1,7 C 79 % 1013,0 hPa 0,0 l/m 0,1 km/h (0 Bft) SO 127 -4,8 C 3,1 km/h (1 Bft) 100 %
13.02.2018 19:49 -1,7 C 79 % 1013,0 hPa 0,0 l/m 0,2 km/h (0 Bft) SO 127 -4,8 C 3,1 km/h (1 Bft) 90 %
13.02.2018 19:50 -1,7 C 79 % 1013,0 hPa 0,0 l/m 1,2 km/h (1 Bft) O 97 -4,8 C 3,1 km/h (1 Bft) 100 %
13.02.2018 19:51 -1,8 C 79 % 1013,0 hPa 0,0 l/m 0,0 km/h (0 Bft) O-SO 109 -4,9 C 0,0 km/h (0 Bft) 100 %
13.02.2018 19:52 -1,7 C 79 % 1013,0 hPa 0,0 l/m 0,0 km/h (0 Bft) O-SO 109 -4,8 C 0,0 km/h (0 Bft) 100 %
13.02.2018 19:53 -1,8 C 79 % 1013,0 hPa 0,0 l/m 0,0 km/h (0 Bft) O-SO 105 -4,9 C 0,0 km/h (0 Bft) 100 %
13.02.2018 19:54 -1,8 C 79 % 1013,0 hPa 0,0 l/m 0,0 km/h (0 Bft) O-SO 103 -4,9 C 0,0 km/h (0 Bft) 100 %
13.02.2018 19:55 -1,8 C 79 % 1013,0 hPa 0,0 l/m 0,2 km/h (0 Bft) O-SO 111 -4,9 C 3,1 km/h (1 Bft) 100 %
13.02.2018 19:56 -1,8 C 79 % 1013,0 hPa 0,0 l/m 0,5 km/h (0 Bft) O 97 -4,9 C 3,1 km/h (1 Bft) 100 %
13.02.2018 19:57 -1,8 C 79 % 1013,0 hPa 0,0 l/m 0,8 km/h (0 Bft) O-NO 57 -4,9 C 3,1 km/h (1 Bft) 100 %
13.02.2018 19:58 -1,8 C 79 % 1013,0 hPa 0,0 l/m 0,0 km/h (0 Bft) O-NO 62 -4,9 C 0,0 km/h (0 Bft) 100 %
13.02.2018 19:59 -1,8 C 79 % 1013,0 hPa 0,0 l/m 0,1 km/h (0 Bft) O-NO 62 -4,9 C 3,1 km/h (1 Bft) 100 %
13.02.2018 20:00 -1,8 C 79 % 1013,1 hPa 0,0 l/m 0,1 km/h (0 Bft) O 89 -4,9 C 3,1 km/h (1 Bft) 100 %
13.02.2018 20:01 -1,8 C 79 % 1013,1 hPa 0,0 l/m 0,1 km/h (0 Bft) O 89 -4,9 C 3,1 km/h (1 Bft) 100 %
13.02.2018 20:02 -1,8 C 79 % 1013,0 hPa 0,0 l/m 0,0 km/h (0 Bft) O 89 -4,9 C 0,0 km/h (0 Bft) 100 %
13.02.2018 20:03 -1,9 C 79 % 1013,0 hPa 0,0 l/m 0,0 km/h (0 Bft) O 89 -5,0 C 0,0 km/h (0 Bft) 100 %
13.02.2018 20:04 -1,9 C 79 % 1013,1 hPa 0,0 l/m 0,0 km/h (0 Bft) O 89 -5,0 C 0,0 km/h (0 Bft) 100 %
13.02.2018 20:05 -1,9 C 79 % 1013,1 hPa 0,0 l/m 0,0 km/h (0 Bft) O 89 -5,0 C 0,0 km/h (0 Bft) 100 %
13.02.2018 20:06 -1,9 C 79 % 1013,0 hPa 0,0 l/m 0,0 km/h (0 Bft) O 89 -5,0 C 0,0 km/h (0 Bft) 100 %
13.02.2018 20:07 -1,9 C 80 % 1013,0 hPa 0,0 l/m 0,0 km/h (0 Bft) O 89 -4,9 C 0,0 km/h (0 Bft) 96 %
13.02.2018 20:08 -2,0 C 80 % 1013,1 hPa 0,0 l/m 0,1 km/h (0 Bft) O 97 -5,0 C 3,1 km/h (1 Bft) 100 %
13.02.2018 20:09 -2,0 C 80 % 1013,1 hPa 0,0 l/m 0,0 km/h (0 Bft) O 97 -5,0 C 0,0 km/h (0 Bft) 100 %
13.02.2018 20:10 -2,0 C 80 % 1013,1 hPa 0,0 l/m 0,0 km/h (0 Bft) O 89 -5,0 C 0,0 km/h (0 Bft) 100 %
13.02.2018 20:11 -2,0 C 80 % 1013,1 hPa 0,0 l/m 0,0 km/h (0 Bft) O-NO 60 -5,0 C 0,0 km/h (0 Bft) 100 %
13.02.2018 20:12 -2,0 C 80 % 1013,1 hPa 0,0 l/m 0,0 km/h (0 Bft) O-NO 60 -5,0 C 0,0 km/h (0 Bft) 100 %
13.02.2018 20:13 -2,0 C 80 % 1013,1 hPa 0,0 l/m 0,5 km/h (0 Bft) O 86 -5,0 C 3,1 km/h (1 Bft) 100 %
13.02.2018 20:14 -2,0 C 80 % 1013,1 hPa 0,0 l/m 0,2 km/h (0 Bft) NO 42 -5,0 C 3,1 km/h (1 Bft) 100 %
13.02.2018 20:15 -2,0 C 80 % 1013,1 hPa 0,0 l/m 0,1 km/h (0 Bft) O-NO 68 -5,0 C 3,1 km/h (1 Bft) 100 %
13.02.2018 20:16 -2,0 C 80 % 1013,1 hPa 0,0 l/m 0,3 km/h (0 Bft) O-NO 68 -5,0 C 3,1 km/h (1 Bft) 100 %
13.02.2018 20:17 -2,0 C 80 % 1013,1 hPa 0,0 l/m 0,0 km/h (0 Bft) O-NO 68 -5,0 C 0,0 km/h (0 Bft) 100 %
13.02.2018 20:18 -2,0 C 80 % 1013,1 hPa 0,0 l/m 0,0 km/h (0 Bft) O-NO 68 -5,0 C 0,0 km/h (0 Bft) 100 %
13.02.2018 20:19 -2,0 C 80 % 1013,1 hPa 0,0 l/m 0,0 km/h (0 Bft) O-NO 68 -5,0 C 0,0 km/h (0 Bft) 100 %
13.02.2018 20:20 -2,1 C 80 % 1013,1 hPa 0,0 l/m 0,0 km/h (0 Bft) O-NO 68 -5,1 C 0,0 km/h (0 Bft) 100 %
13.02.2018 20:21 -2,1 C 81 % 1013,1 hPa 0,0 l/m 0,4 km/h (0 Bft) O 85 -4,9 C 3,1 km/h (1 Bft) 100 %
13.02.2018 20:22 -2,1 C 81 % 1013,1 hPa 0,0 l/m 0,0 km/h (0 Bft) O 85 -4,9 C 0,0 km/h (0 Bft) 100 %
13.02.2018 20:23 -2,1 C 81 % 1013,1 hPa 0,0 l/m 0,0 km/h (0 Bft) O 85 -4,9 C 0,0 km/h (0 Bft) 100 %
13.02.2018 20:24 -2,1 C 81 % 1013,1 hPa 0,0 l/m 0,1 km/h (0 Bft) O 85 -4,9 C 3,1 km/h (1 Bft) 100 %
13.02.2018 20:25 -2,1 C 81 % 1013,1 hPa 0,0 l/m 0,0 km/h (0 Bft) O 85 -4,9 C 0,0 km/h (0 Bft) 100 %
13.02.2018 20:26 -2,1 C 81 % 1013,1 hPa 0,0 l/m 0,0 km/h (0 Bft) O 85 -4,9 C 0,0 km/h (0 Bft) 100 %
13.02.2018 20:27 -2,1 C 81 % 1013,1 hPa 0,0 l/m 0,0 km/h (0 Bft) O 85 -4,9 C 0,0 km/h (0 Bft) 100 %
13.02.2018 20:28 -2,1 C 81 % 1013,2 hPa 0,0 l/m 0,0 km/h (0 Bft) O 85 -4,9 C 0,0 km/h (0 Bft) 100 %
13.02.2018 20:29 -2,2 C 81 % 1013,1 hPa 0,0 l/m 0,0 km/h (0 Bft) O 85 -5,0 C 0,0 km/h (0 Bft) 100 %
13.02.2018 20:30 -2,2 C 81 % 1013,1 hPa 0,0 l/m 0,0 km/h (0 Bft) O 83 -5,0 C 0,0 km/h (0 Bft) 100 %
13.02.2018 20:31 -2,2 C 81 % 1013,2 hPa 0,0 l/m 0,0 km/h (0 Bft) O-NO 65 -5,0 C 0,0 km/h (0 Bft) 100 %
13.02.2018 20:32 -2,2 C 81 % 1013,2 hPa 0,0 l/m 0,2 km/h (0 Bft) O-NO 60 -5,0 C 3,1 km/h (1 Bft) 100 %
13.02.2018 20:33 -2,2 C 82 % 1013,2 hPa 0,0 l/m 0,3 km/h (0 Bft) O 94 -4,8 C 3,1 km/h (1 Bft) 100 %
13.02.2018 20:34 -2,1 C 82 % 1013,2 hPa 0,0 l/m 0,4 km/h (0 Bft) O 99 -4,7 C 3,1 km/h (1 Bft) 100 %
13.02.2018 20:35 -2,1 C 81 % 1013,2 hPa 0,0 l/m 0,0 km/h (0 Bft) O 99 -4,9 C 0,0 km/h (0 Bft) 100 %
13.02.2018 20:36 -2,0 C 81 % 1013,2 hPa 0,0 l/m 0,0 km/h (0 Bft) O 99 -4,8 C 0,0 km/h (0 Bft) 100 %
13.02.2018 20:37 -2,0 C 81 % 1013,2 hPa 0,0 l/m 0,0 km/h (0 Bft) O 99 -4,8 C 0,0 km/h (0 Bft) 100 %
13.02.2018 20:38 -1,9 C 81 % 1013,2 hPa 0,0 l/m 0,2 km/h (0 Bft) O 98 -4,7 C 3,1 km/h (1 Bft) 100 %
13.02.2018 20:39 -1,9 C 81 % 1013,2 hPa 0,0 l/m 0,0 km/h (0 Bft) O 98 -4,7 C 0,0 km/h (0 Bft) 100 %
13.02.2018 20:40 -1,9 C 81 % 1013,3 hPa 0,0 l/m 0,0 km/h (0 Bft) O 98 -4,7 C 0,0 km/h (0 Bft) 100 %
13.02.2018 20:41 -1,9 C 81 % 1013,3 hPa 0,0 l/m 0,0 km/h (0 Bft) O 98 -4,7 C 0,0 km/h (0 Bft) 100 %
13.02.2018 20:42 -1,9 C 81 % 1013,2 hPa 0,0 l/m 0,0 km/h (0 Bft) O 98 -4,7 C 0,0 km/h (0 Bft) 100 %
13.02.2018 20:43 -2,0 C 81 % 1013,2 hPa 0,0 l/m 0,0 km/h (0 Bft) O-NO 72 -4,8 C 0,0 km/h (0 Bft) 100 %
13.02.2018 20:44 -1,9 C 81 % 1013,2 hPa 0,0 l/m 0,0 km/h (0 Bft) O-NO 69 -4,7 C 0,0 km/h (0 Bft) 100 %
13.02.2018 20:45 -1,9 C 81 % 1013,2 hPa 0,0 l/m 0,3 km/h (0 Bft) O-NO 70 -4,7 C 3,1 km/h (1 Bft) 100 %
13.02.2018 20:46 -1,9 C 81 % 1013,2 hPa 0,0 l/m 0,0 km/h (0 Bft) O-NO 70 -4,7 C 0,0 km/h (0 Bft) 100 %
13.02.2018 20:47 -1,9 C 81 % 1013,2 hPa 0,0 l/m 0,0 km/h (0 Bft) O-NO 62 -4,7 C 0,0 km/h (0 Bft) 100 %
13.02.2018 20:48 -1,9 C 81 % 1013,1 hPa 0,0 l/m 0,6 km/h (0 Bft) NW 306 -4,7 C 3,1 km/h (1 Bft) 100 %
13.02.2018 20:49 -1,9 C 80 % 1013,2 hPa 0,0 l/m 0,0 km/h (0 Bft) NW 306 -4,9 C 0,0 km/h (0 Bft) 100 %
13.02.2018 20:50 -1,9 C 80 % 1013,2 hPa 0,0 l/m 0,0 km/h (0 Bft) NW 307 -4,9 C 0,0 km/h (0 Bft) 100 %
13.02.2018 20:51 -1,9 C 80 % 1013,2 hPa 0,0 l/m 0,1 km/h (0 Bft) O-NO 58 -4,9 C 3,1 km/h (1 Bft) 100 %
13.02.2018 20:52 -1,8 C 81 % 1013,2 hPa 0,0 l/m 0,8 km/h (0 Bft) O-NO 71 -4,6 C 3,1 km/h (1 Bft) 100 %
13.02.2018 20:53 -1,8 C 81 % 1013,2 hPa 0,0 l/m 0,1 km/h (0 Bft) O-NO 62 -4,6 C 3,1 km/h (1 Bft) 100 %
13.02.2018 20:54 -1,8 C 80 % 1013,2 hPa 0,0 l/m 0,2 km/h (0 Bft) O-NO 65 -4,8 C 3,1 km/h (1 Bft) 100 %
13.02.2018 20:55 -1,8 C 80 % 1013,2 hPa 0,0 l/m 0,0 km/h (0 Bft) O-SO 113 -4,8 C 0,0 km/h (0 Bft) 100 %
13.02.2018 20:56 -1,8 C 80 % 1013,2 hPa 0,0 l/m 0,1 km/h (0 Bft) NO 52 -4,8 C 3,1 km/h (1 Bft) 100 %
13.02.2018 20:57 -1,7 C 80 % 1013,2 hPa 0,0 l/m 0,4 km/h (0 Bft) O-SO 113 -4,7 C 3,1 km/h (1 Bft) 100 %
13.02.2018 20:58 -1,7 C 80 % 1013,3 hPa 0,0 l/m 0,2 km/h (0 Bft) O 94 -4,7 C 3,1 km/h (1 Bft) 100 %
13.02.2018 20:59 -1,7 C 80 % 1013,2 hPa 0,0 l/m 0,0 km/h (0 Bft) O 94 -4,7 C 0,0 km/h (0 Bft) 100 %
13.02.2018 21:00 -1,7 C 80 % 1013,3 hPa 0,0 l/m 0,0 km/h (0 Bft) O 94 -4,7 C 0,0 km/h (0 Bft) 100 %
13.02.2018 21:01 -1,7 C 79 % 1013,3 hPa 0,0 l/m 0,3 km/h (0 Bft) O-NO 73 -4,8 C 3,1 km/h (1 Bft) 100 %
13.02.2018 21:02 -1,7 C 79 % 1013,2 hPa 0,0 l/m 0,0 km/h (0 Bft) O-NO 68 -4,8 C 0,0 km/h (0 Bft) 92 %
13.02.2018 21:03 -1,7 C 79 % 1013,2 hPa 0,0 l/m 0,0 km/h (0 Bft) O-NO 58 -4,8 C 0,0 km/h (0 Bft) 100 %
13.02.2018 21:04 -1,7 C 79 % 1013,2 hPa 0,0 l/m 0,0 km/h (0 Bft) O-NO 57 -4,8 C 0,0 km/h (0 Bft) 100 %
13.02.2018 21:05 -1,7 C 79 % 1013,3 hPa 0,0 l/m 0,0 km/h (0 Bft) O-NO 57 -4,8 C 0,0 km/h (0 Bft) 100 %
13.02.2018 21:06 -1,7 C 79 % 1013,3 hPa 0,0 l/m 0,0 km/h (0 Bft) NO 56 -4,8 C 0,0 km/h (0 Bft) 100 %
13.02.2018 21:07 -1,7 C 79 % 1013,3 hPa 0,0 l/m 0,0 km/h (0 Bft) NO 49 -4,8 C 0,0 km/h (0 Bft) 100 %
13.02.2018 21:08 -1,7 C 79 % 1013,3 hPa 0,0 l/m 0,0 km/h (0 Bft) NO 49 -4,8 C 0,0 km/h (0 Bft) 100 %
13.02.2018 21:09 -1,7 C 79 % 1013,3 hPa 0,0 l/m 0,0 km/h (0 Bft) NW 307 -4,8 C 0,0 km/h (0 Bft) 100 %
13.02.2018 21:10 -1,7 C 79 % 1013,3 hPa 0,0 l/m 0,1 km/h (0 Bft) N 357 -4,8 C 3,1 km/h (1 Bft) 100 %
13.02.2018 21:11 -1,7 C 79 % 1013,3 hPa 0,0 l/m 0,1 km/h (0 Bft) N 357 -4,8 C 3,1 km/h (1 Bft) 100 %
13.02.2018 21:12 -1,7 C 79 % 1013,3 hPa 0,0 l/m 0,0 km/h (0 Bft) N 357 -4,8 C 0,0 km/h (0 Bft) 100 %
13.02.2018 21:13 -1,7 C 79 % 1013,3 hPa 0,0 l/m 0,0 km/h (0 Bft) N 357 -4,8 C 0,0 km/h (0 Bft) 100 %
13.02.2018 21:14 -1,7 C 79 % 1013,3 hPa 0,0 l/m 0,0 km/h (0 Bft) N 357 -4,8 C 0,0 km/h (0 Bft) 100 %
13.02.2018 21:15 -1,7 C 79 % 1013,4 hPa 0,0 l/m 0,1 km/h (0 Bft) N 359 -4,8 C 3,1 km/h (1 Bft) 100 %
13.02.2018 21:16 -1,7 C 79 % 1013,4 hPa 0,0 l/m 0,1 km/h (0 Bft) N 359 -4,8 C 3,1 km/h (1 Bft) 100 %
13.02.2018 21:17 -1,8 C 79 % 1013,3 hPa 0,0 l/m 0,0 km/h (0 Bft) N 359 -4,9 C 0,0 km/h (0 Bft) 100 %
13.02.2018 21:18 -1,8 C 79 % 1013,3 hPa 0,0 l/m 0,0 km/h (0 Bft) N 359 -4,9 C 0,0 km/h (0 Bft) 100 %
13.02.2018 21:19 -1,8 C 79 % 1013,4 hPa 0,0 l/m 0,0 km/h (0 Bft) N 359 -4,9 C 0,0 km/h (0 Bft) 100 %
13.02.2018 21:20 -1,8 C 79 % 1013,3 hPa 0,0 l/m 0,1 km/h (0 Bft) N 359 -4,9 C 3,1 km/h (1 Bft) 100 %
13.02.2018 21:21 -1,8 C 80 % 1013,3 hPa 0,0 l/m 0,0 km/h (0 Bft) N 359 -4,8 C 0,0 km/h (0 Bft) 100 %
13.02.2018 21:22 -1,9 C 80 % 1013,3 hPa 0,0 l/m 0,0 km/h (0 Bft) N 359 -4,9 C 0,0 km/h (0 Bft) 100 %
13.02.2018 21:23 -1,9 C 80 % 1013,3 hPa 0,0 l/m 0,0 km/h (0 Bft) N 359 -4,9 C 0,0 km/h (0 Bft) 100 %
13.02.2018 21:24 -1,9 C 80 % 1013,3 hPa 0,0 l/m 0,0 km/h (0 Bft) N 359 -4,9 C 0,0 km/h (0 Bft) 97 %
13.02.2018 21:25 -1,9 C 80 % 1013,4 hPa 0,0 l/m 0,1 km/h (0 Bft) N 359 -4,9 C 3,1 km/h (1 Bft) 100 %
13.02.2018 21:26 -1,9 C 80 % 1013,3 hPa 0,0 l/m 0,0 km/h (0 Bft) N 359 -4,9 C 0,0 km/h (0 Bft) 96 %
13.02.2018 21:27 -1,9 C 80 % 1013,3 hPa 0,0 l/m 0,0 km/h (0 Bft) N 359 -4,9 C 0,0 km/h (0 Bft) 100 %
13.02.2018 21:28 -1,9 C 80 % 1013,4 hPa 0,0 l/m 0,0 km/h (0 Bft) N 359 -4,9 C 0,0 km/h (0 Bft) 96 %
13.02.2018 21:29 -1,9 C 80 % 1013,4 hPa 0,0 l/m 0,0 km/h (0 Bft) N 359 -4,9 C 0,0 km/h (0 Bft) 100 %
13.02.2018 21:30 -2,0 C 80 % 1013,3 hPa 0,0 l/m 0,0 km/h (0 Bft) N 359 -5,0 C 0,0 km/h (0 Bft) 94 %
13.02.2018 21:31 -2,0 C 80 % 1013,4 hPa 0,0 l/m 0,0 km/h (0 Bft) N 359 -5,0 C 0,0 km/h (0 Bft) 92 %
13.02.2018 21:32 -2,0 C 80 % 1013,4 hPa 0,0 l/m 0,0 km/h (0 Bft) N 360 -5,0 C 0,0 km/h (0 Bft) 98 %
13.02.2018 21:33 -2,0 C 80 % 1013,4 hPa 0,0 l/m 0,0 km/h (0 Bft) N 360 -5,0 C 0,0 km/h (0 Bft) 100 %
13.02.2018 21:34 -2,0 C 80 % 1013,4 hPa 0,0 l/m 0,0 km/h (0 Bft) N 360 -5,0 C 0,0 km/h (0 Bft) 97 %
13.02.2018 21:35 -2,1 C 80 % 1013,4 hPa 0,0 l/m 0,0 km/h (0 Bft) N 360 -5,1 C 0,0 km/h (0 Bft) 96 %
13.02.2018 21:36 -2,1 C 80 % 1013,5 hPa 0,0 l/m 0,1 km/h (0 Bft) W 269 -5,1 C 3,1 km/h (1 Bft) 100 %
13.02.2018 21:37 -2,1 C 80 % 1013,4 hPa 0,0 l/m 0,0 km/h (0 Bft) W 269 -5,1 C 0,0 km/h (0 Bft) 97 %
13.02.2018 21:38 -2,1 C 80 % 1013,4 hPa 0,0 l/m 0,0 km/h (0 Bft) W 269 -5,1 C 0,0 km/h (0 Bft) 100 %
13.02.2018 21:39 -2,2 C 80 % 1013,5 hPa 0,0 l/m 0,0 km/h (0 Bft) W-NW 286 -5,2 C 0,0 km/h (0 Bft) 96 %
13.02.2018 21:40 -2,2 C 80 % 1013,4 hPa 0,0 l/m 0,0 km/h (0 Bft) W-NW 286 -5,2 C 0,0 km/h (0 Bft) 100 %
13.02.2018 21:41 -2,2 C 80 % 1013,4 hPa 0,0 l/m 0,0 km/h (0 Bft) W-NW 286 -5,2 C 0,0 km/h (0 Bft) 96 %
13.02.2018 21:42 -2,3 C 80 % 1013,4 hPa 0,0 l/m 0,0 km/h (0 Bft) W-NW 286 -5,3 C 0,0 km/h (0 Bft) 100 %
13.02.2018 21:43 -2,3 C 80 % 1013,4 hPa 0,0 l/m 0,0 km/h (0 Bft) W-NW 285 -5,3 C 0,0 km/h (0 Bft) 96 %
13.02.2018 21:44 -2,4 C 80 % 1013,4 hPa 0,0 l/m 0,0 km/h (0 Bft) W-NW 286 -5,4 C 0,0 km/h (0 Bft) 100 %
13.02.2018 21:45 -2,4 C 80 % 1013,4 hPa 0,0 l/m 0,0 km/h (0 Bft) W-NW 285 -5,4 C 0,0 km/h (0 Bft) 96 %
13.02.2018 21:46 -2,5 C 80 % 1013,4 hPa 0,0 l/m 0,0 km/h (0 Bft) W-NW 286 -5,5 C 0,0 km/h (0 Bft) 100 %
13.02.2018 21:47 -2,5 C 80 % 1013,5 hPa 0,0 l/m 0,0 km/h (0 Bft) W-NW 286 -5,5 C 0,0 km/h (0 Bft) 100 %
13.02.2018 21:48 -2,6 C 81 % 1013,5 hPa 0,0 l/m 0,1 km/h (0 Bft) W-NW 282 -5,4 C 3,1 km/h (1 Bft) 100 %
13.02.2018 21:49 -2,6 C 81 % 1013,5 hPa 0,0 l/m 0,0 km/h (0 Bft) W-NW 282 -5,4 C 0,0 km/h (0 Bft) 100 %
13.02.2018 21:50 -2,7 C 81 % 1013,5 hPa 0,0 l/m 0,0 km/h (0 Bft) W-NW 282 -5,5 C 0,0 km/h (0 Bft) 96 %
13.02.2018 21:51 -2,7 C 81 % 1013,5 hPa 0,0 l/m 0,0 km/h (0 Bft) W-NW 282 -5,5 C 0,0 km/h (0 Bft) 92 %
13.02.2018 21:52 -2,7 C 81 % 1013,5 hPa 0,0 l/m 0,0 km/h (0 Bft) W-NW 282 -5,5 C 0,0 km/h (0 Bft) 100 %
13.02.2018 21:53 -2,8 C 81 % 1013,6 hPa 0,0 l/m 0,0 km/h (0 Bft) W-NW 282 -5,6 C 0,0 km/h (0 Bft) 100 %
13.02.2018 21:54 -2,8 C 81 % 1013,5 hPa 0,0 l/m 0,0 km/h (0 Bft) W-NW 282 -5,6 C 0,0 km/h (0 Bft) 100 %
13.02.2018 21:55 -2,9 C 81 % 1013,5 hPa 0,0 l/m 0,0 km/h (0 Bft) W-NW 282 -5,7 C 0,0 km/h (0 Bft) 100 %
13.02.2018 21:56 -2,9 C 81 % 1013,5 hPa 0,0 l/m 0,0 km/h (0 Bft) W-NW 282 -5,7 C 0,0 km/h (0 Bft) 100 %
13.02.2018 21:57 -3,0 C 82 % 1013,6 hPa 0,0 l/m 0,0 km/h (0 Bft) W-NW 282 -5,6 C 0,0 km/h (0 Bft) 100 %
13.02.2018 21:58 -3,1 C 82 % 1013,5 hPa 0,0 l/m 0,0 km/h (0 Bft) W-NW 282 -5,7 C 0,0 km/h (0 Bft) 100 %
13.02.2018 21:59 -3,1 C 82 % 1013,5 hPa 0,0 l/m 0,0 km/h (0 Bft) W-NW 282 -5,7 C 0,0 km/h (0 Bft) 100 %
13.02.2018 22:00 -3,1 C 83 % 1013,6 hPa 0,0 l/m 0,0 km/h (0 Bft) W-NW 282 -5,6 C 0,0 km/h (0 Bft) 100 %
13.02.2018 22:01 -3,2 C 83 % 1013,6 hPa 0,0 l/m 0,0 km/h (0 Bft) W-NW 282 -5,7 C 0,0 km/h (0 Bft) 100 %
13.02.2018 22:02 -3,2 C 83 % 1013,6 hPa 0,0 l/m 0,0 km/h (0 Bft) W-NW 282 -5,7 C 0,0 km/h (0 Bft) 100 %
13.02.2018 22:03 -3,2 C 83 % 1013,6 hPa 0,0 l/m 0,0 km/h (0 Bft) W-NW 282 -5,7 C 0,0 km/h (0 Bft) 100 %
13.02.2018 22:04 -3,3 C 83 % 1013,6 hPa 0,0 l/m 0,0 km/h (0 Bft) W-NW 282 -5,8 C 0,0 km/h (0 Bft) 100 %
13.02.2018 22:05 -3,3 C 83 % 1013,6 hPa 0,0 l/m 0,0 km/h (0 Bft) W-NW 282 -5,8 C 0,0 km/h (0 Bft) 100 %
13.02.2018 22:06 -3,3 C 83 % 1013,7 hPa 0,0 l/m 0,0 km/h (0 Bft) W-NW 282 -5,8 C 0,0 km/h (0 Bft) 100 %
13.02.2018 22:07 -3,4 C 83 % 1013,6 hPa 0,0 l/m 0,0 km/h (0 Bft) W-NW 282 -5,9 C 0,0 km/h (0 Bft) 100 %
13.02.2018 22:08 -3,4 C 84 % 1013,6 hPa 0,0 l/m 0,0 km/h (0 Bft) W-NW 282 -5,7 C 0,0 km/h (0 Bft) 100 %
13.02.2018 22:09 -3,4 C 84 % 1013,6 hPa 0,0 l/m 0,0 km/h (0 Bft) W-NW 282 -5,7 C 0,0 km/h (0 Bft) 100 %
13.02.2018 22:10 -3,4 C 84 % 1013,6 hPa 0,0 l/m 0,0 km/h (0 Bft) W-NW 282 -5,7 C 0,0 km/h (0 Bft) 100 %
13.02.2018 22:11 -3,4 C 84 % 1013,6 hPa 0,0 l/m 0,0 km/h (0 Bft) W-NW 282 -5,7 C 0,0 km/h (0 Bft) 100 %
13.02.2018 22:12 -3,4 C 84 % 1013,6 hPa 0,0 l/m 0,0 km/h (0 Bft) W-NW 282 -5,7 C 0,0 km/h (0 Bft) 100 %
13.02.2018 22:13 -3,4 C 84 % 1013,6 hPa 0,0 l/m 0,0 km/h (0 Bft) W-NW 282 -5,7 C 0,0 km/h (0 Bft) 100 %
13.02.2018 22:14 -3,4 C 84 % 1013,6 hPa 0,0 l/m 0,0 km/h (0 Bft) W-NW 282 -5,7 C 0,0 km/h (0 Bft) 100 %
13.02.2018 22:15 -3,4 C 84 % 1013,6 hPa 0,0 l/m 0,0 km/h (0 Bft) W-NW 282 -5,7 C 0,0 km/h (0 Bft) 100 %
13.02.2018 22:16 -3,4 C 84 % 1013,6 hPa 0,0 l/m 0,0 km/h (0 Bft) W-NW 282 -5,7 C 0,0 km/h (0 Bft) 100 %
13.02.2018 22:17 -3,5 C 84 % 1013,6 hPa 0,0 l/m 0,0 km/h (0 Bft) W-NW 282 -5,8 C 0,0 km/h (0 Bft) 100 %
13.02.2018 22:18 -3,5 C 84 % 1013,6 hPa 0,0 l/m 0,0 km/h (0 Bft) W-NW 282 -5,8 C 0,0 km/h (0 Bft) 100 %
13.02.2018 22:19 -3,6 C 84 % 1013,7 hPa 0,0 l/m 0,0 km/h (0 Bft) W-NW 282 -5,9 C 0,0 km/h (0 Bft) 100 %
13.02.2018 22:20 -3,6 C 84 % 1013,6 hPa 0,0 l/m 0,0 km/h (0 Bft) W-NW 282 -5,9 C 0,0 km/h (0 Bft) 100 %
13.02.2018 22:21 -3,6 C 84 % 1013,6 hPa 0,0 l/m 0,0 km/h (0 Bft) W-NW 282 -5,9 C 0,0 km/h (0 Bft) 100 %
13.02.2018 22:22 -3,6 C 84 % 1013,6 hPa 0,0 l/m 0,0 km/h (0 Bft) W-NW 282 -5,9 C 0,0 km/h (0 Bft) 100 %
13.02.2018 22:23 -3,7 C 85 % 1013,6 hPa 0,0 l/m 0,0 km/h (0 Bft) W-NW 282 -5,8 C 0,0 km/h (0 Bft) 100 %
13.02.2018 22:24 -3,7 C 85 % 1013,7 hPa 0,0 l/m 0,0 km/h (0 Bft) W-NW 282 -5,8 C 0,0 km/h (0 Bft) 100 %
13.02.2018 22:25 -3,7 C 85 % 1013,6 hPa 0,0 l/m 0,0 km/h (0 Bft) W-NW 282 -5,8 C 0,0 km/h (0 Bft) 100 %
13.02.2018 22:26 -3,7 C 84 % 1013,6 hPa 0,0 l/m 0,0 km/h (0 Bft) W-NW 282 -6,0 C 0,0 km/h (0 Bft) 100 %
13.02.2018 22:27 -3,7 C 84 % 1013,7 hPa 0,0 l/m 0,0 km/h (0 Bft) W-NW 282 -6,0 C 0,0 km/h (0 Bft) 100 %
13.02.2018 22:28 -3,8 C 84 % 1013,7 hPa 0,0 l/m 0,0 km/h (0 Bft) W-NW 282 -6,1 C 0,0 km/h (0 Bft) 100 %
13.02.2018 22:29 -3,8 C 85 % 1013,6 hPa 0,0 l/m 0,0 km/h (0 Bft) W-NW 282 -5,9 C 0,0 km/h (0 Bft) 100 %
13.02.2018 22:30 -3,9 C 85 % 1013,7 hPa 0,0 l/m 0,0 km/h (0 Bft) W-NW 282 -6,0 C 0,0 km/h (0 Bft) 100 %
13.02.2018 22:31 -3,9 C 85 % 1013,6 hPa 0,0 l/m 0,0 km/h (0 Bft) W-NW 282 -6,0 C 0,0 km/h (0 Bft) 100 %
13.02.2018 22:32 -3,9 C 85 % 1013,6 hPa 0,0 l/m 0,0 km/h (0 Bft) W-NW 282 -6,0 C 0,0 km/h (0 Bft) 100 %
13.02.2018 22:33 -3,9 C 85 % 1013,6 hPa 0,0 l/m 0,0 km/h (0 Bft) W-NW 282 -6,0 C 0,0 km/h (0 Bft) 100 %
13.02.2018 22:34 -3,9 C 86 % 1013,7 hPa 0,0 l/m 0,0 km/h (0 Bft) W-NW 282 -5,9 C 0,0 km/h (0 Bft) 100 %
13.02.2018 22:35 -3,9 C 86 % 1013,6 hPa 0,0 l/m 0,0 km/h (0 Bft) W-NW 282 -5,9 C 0,0 km/h (0 Bft) 100 %
13.02.2018 22:36 -3,9 C 86 % 1013,7 hPa 0,0 l/m 0,0 km/h (0 Bft) W-NW 282 -5,9 C 0,0 km/h (0 Bft) 100 %
13.02.2018 22:37 -3,9 C 86 % 1013,7 hPa 0,0 l/m 0,0 km/h (0 Bft) W-NW 282 -5,9 C 0,0 km/h (0 Bft) 100 %
13.02.2018 22:38 -3,9 C 86 % 1013,7 hPa 0,0 l/m 0,0 km/h (0 Bft) W-NW 282 -5,9 C 0,0 km/h (0 Bft) 100 %
13.02.2018 22:39 -3,9 C 86 % 1013,7 hPa 0,0 l/m 0,0 km/h (0 Bft) W-NW 282 -5,9 C 0,0 km/h (0 Bft) 100 %
13.02.2018 22:40 -3,9 C 86 % 1013,7 hPa 0,0 l/m 0,0 km/h (0 Bft) W-NW 282 -5,9 C 0,0 km/h (0 Bft) 100 %
13.02.2018 22:41 -4,0 C 85 % 1013,7 hPa 0,0 l/m 0,0 km/h (0 Bft) W-NW 282 -6,1 C 0,0 km/h (0 Bft) 100 %
13.02.2018 22:42 -4,0 C 85 % 1013,7 hPa 0,0 l/m 0,0 km/h (0 Bft) W-NW 282 -6,1 C 0,0 km/h (0 Bft) 100 %
13.02.2018 22:43 -4,1 C 85 % 1013,7 hPa 0,0 l/m 0,0 km/h (0 Bft) W-NW 282 -6,2 C 0,0 km/h (0 Bft) 100 %
13.02.2018 22:44 -4,1 C 85 % 1013,7 hPa 0,0 l/m 0,0 km/h (0 Bft) W-NW 282 -6,2 C 0,0 km/h (0 Bft) 100 %
13.02.2018 22:45 -4,2 C 85 % 1013,7 hPa 0,0 l/m 0,0 km/h (0 Bft) W-NW 282 -6,3 C 0,0 km/h (0 Bft) 100 %
13.02.2018 22:46 -4,2 C 85 % 1013,7 hPa 0,0 l/m 0,0 km/h (0 Bft) W-NW 282 -6,3 C 0,0 km/h (0 Bft) 100 %
13.02.2018 22:47 -4,3 C 85 % 1013,7 hPa 0,0 l/m 0,0 km/h (0 Bft) W-NW 282 -6,4 C 0,0 km/h (0 Bft) 100 %
13.02.2018 22:48 -4,3 C 85 % 1013,7 hPa 0,0 l/m 0,0 km/h (0 Bft) W-NW 282 -6,4 C 0,0 km/h (0 Bft) 100 %
13.02.2018 22:49 -4,3 C 85 % 1013,7 hPa 0,0 l/m 0,0 km/h (0 Bft) W-NW 282 -6,4 C 0,0 km/h (0 Bft) 100 %
13.02.2018 22:50 -4,3 C 86 % 1013,7 hPa 0,0 l/m 0,0 km/h (0 Bft) W-NW 282 -6,3 C 0,0 km/h (0 Bft) 100 %
13.02.2018 22:51 -4,4 C 86 % 1013,7 hPa 0,0 l/m 0,0 km/h (0 Bft) W-NW 282 -6,4 C 0,0 km/h (0 Bft) 100 %
13.02.2018 22:52 -4,4 C 86 % 1013,6 hPa 0,0 l/m 0,0 km/h (0 Bft) W-NW 282 -6,4 C 0,0 km/h (0 Bft) 100 %
13.02.2018 22:53 -4,4 C 86 % 1013,7 hPa 0,0 l/m 0,0 km/h (0 Bft) W-NW 282 -6,4 C 0,0 km/h (0 Bft) 100 %
13.02.2018 22:54 -4,4 C 87 % 1013,6 hPa 0,0 l/m 0,0 km/h (0 Bft) W-NW 282 -6,2 C 0,0 km/h (0 Bft) 100 %
13.02.2018 22:55 -4,4 C 87 % 1013,6 hPa 0,0 l/m 0,0 km/h (0 Bft) W-NW 282 -6,2 C 0,0 km/h (0 Bft) 100 %
13.02.2018 22:56 -4,3 C 87 % 1013,6 hPa 0,0 l/m 0,0 km/h (0 Bft) W-NW 282 -6,1 C 0,0 km/h (0 Bft) 100 %
13.02.2018 22:57 -4,3 C 87 % 1013,6 hPa 0,0 l/m 0,0 km/h (0 Bft) W-NW 282 -6,1 C 0,0 km/h (0 Bft) 100 %
13.02.2018 22:58 -4,3 C 87 % 1013,6 hPa 0,0 l/m 0,0 km/h (0 Bft) W-NW 282 -6,1 C 0,0 km/h (0 Bft) 96 %
13.02.2018 22:59 -4,3 C 87 % 1013,6 hPa 0,0 l/m 0,0 km/h (0 Bft) W-NW 282 -6,1 C 0,0 km/h (0 Bft) 100 %
13.02.2018 23:00 -4,3 C 87 % 1013,6 hPa 0,0 l/m 0,0 km/h (0 Bft) W-NW 282 -6,1 C 0,0 km/h (0 Bft) 96 %
13.02.2018 23:01 -4,3 C 87 % 1013,6 hPa 0,0 l/m 0,0 km/h (0 Bft) W-NW 282 -6,1 C 0,0 km/h (0 Bft) 96 %
13.02.2018 23:02 -4,4 C 87 % 1013,6 hPa 0,0 l/m 0,0 km/h (0 Bft) W-NW 282 -6,2 C 0,0 km/h (0 Bft) 100 %
13.02.2018 23:03 -4,4 C 87 % 1013,6 hPa 0,0 l/m 0,0 km/h (0 Bft) W-NW 282 -6,2 C 0,0 km/h (0 Bft) 96 %
13.02.2018 23:04 -4,5 C 86 % 1013,6 hPa 0,0 l/m 0,0 km/h (0 Bft) W-NW 282 -6,5 C 0,0 km/h (0 Bft) 100 %
13.02.2018 23:05 -4,6 C 86 % 1013,6 hPa 0,0 l/m 0,0 km/h (0 Bft) W-NW 282 -6,6 C 0,0 km/h (0 Bft) 96 %
13.02.2018 23:06 -4,6 C 86 % 1013,6 hPa 0,0 l/m 0,0 km/h (0 Bft) W-NW 282 -6,6 C 0,0 km/h (0 Bft) 100 %
13.02.2018 23:07 -4,7 C 86 % 1013,6 hPa 0,0 l/m 0,0 km/h (0 Bft) W-NW 282 -6,7 C 0,0 km/h (0 Bft) 96 %
13.02.2018 23:08 -4,7 C 86 % 1013,6 hPa 0,0 l/m 0,0 km/h (0 Bft) W-NW 282 -6,7 C 0,0 km/h (0 Bft) 96 %
13.02.2018 23:09 -4,8 C 86 % 1013,6 hPa 0,0 l/m 0,0 km/h (0 Bft) W-NW 282 -6,8 C 0,0 km/h (0 Bft) 100 %
13.02.2018 23:10 -4,8 C 86 % 1013,6 hPa 0,0 l/m 0,0 km/h (0 Bft) W-NW 282 -6,8 C 0,0 km/h (0 Bft) 100 %
13.02.2018 23:11 -4,9 C 86 % 1013,6 hPa 0,0 l/m 0,0 km/h (0 Bft) W-NW 282 -6,9 C 0,0 km/h (0 Bft) 100 %
13.02.2018 23:12 -4,9 C 86 % 1013,6 hPa 0,0 l/m 0,0 km/h (0 Bft) W-NW 282 -6,9 C 0,0 km/h (0 Bft) 96 %
13.02.2018 23:13 -4,9 C 87 % 1013,6 hPa 0,0 l/m 0,0 km/h (0 Bft) W-NW 282 -6,7 C 0,0 km/h (0 Bft) 94 %
13.02.2018 23:14 -5,0 C 87 % 1013,6 hPa 0,0 l/m 0,0 km/h (0 Bft) W-NW 282 -6,8 C 0,0 km/h (0 Bft) 100 %
13.02.2018 23:15 -5,0 C 87 % 1013,5 hPa 0,0 l/m 0,0 km/h (0 Bft) W-NW 282 -6,8 C 0,0 km/h (0 Bft) 100 %
13.02.2018 23:16 -5,0 C 87 % 1013,5 hPa 0,0 l/m 0,0 km/h (0 Bft) W-NW 282 -6,8 C 0,0 km/h (0 Bft) 96 %
13.02.2018 23:17 -5,0 C 87 % 1013,6 hPa 0,0 l/m 0,0 km/h (0 Bft) W-NW 282 -6,8 C 0,0 km/h (0 Bft) 100 %
13.02.2018 23:18 -5,0 C 87 % 1013,6 hPa 0,0 l/m 0,0 km/h (0 Bft) W-NW 282 -6,8 C 0,0 km/h (0 Bft) 100 %
13.02.2018 23:19 -5,0 C 88 % 1013,5 hPa 0,0 l/m 0,0 km/h (0 Bft) W-NW 282 -6,7 C 0,0 km/h (0 Bft) 100 %
13.02.2018 23:20 -5,1 C 88 % 1013,6 hPa 0,0 l/m 0,0 km/h (0 Bft) W-NW 282 -6,8 C 0,0 km/h (0 Bft) 100 %
13.02.2018 23:21 -5,1 C 88 % 1013,6 hPa 0,0 l/m 0,0 km/h (0 Bft) W-NW 282 -6,8 C 0,0 km/h (0 Bft) 100 %
13.02.2018 23:22 -5,1 C 88 % 1013,6 hPa 0,0 l/m 0,0 km/h (0 Bft) W-NW 282 -6,8 C 0,0 km/h (0 Bft) 100 %
13.02.2018 23:23 -5,1 C 88 % 1013,6 hPa 0,0 l/m 0,0 km/h (0 Bft) W-NW 282 -6,8 C 0,0 km/h (0 Bft) 100 %
13.02.2018 23:24 -5,1 C 88 % 1013,6 hPa 0,0 l/m 0,0 km/h (0 Bft) W-NW 282 -6,8 C 0,0 km/h (0 Bft) 100 %
13.02.2018 23:25 -5,1 C 88 % 1013,6 hPa 0,0 l/m 0,0 km/h (0 Bft) W-NW 282 -6,8 C 0,0 km/h (0 Bft) 100 %
13.02.2018 23:26 -5,1 C 88 % 1013,6 hPa 0,0 l/m 0,0 km/h (0 Bft) W-NW 282 -6,8 C 0,0 km/h (0 Bft) 100 %
13.02.2018 23:27 -5,1 C 88 % 1013,6 hPa 0,0 l/m 0,0 km/h (0 Bft) W-NW 282 -6,8 C 0,0 km/h (0 Bft) 100 %
13.02.2018 23:28 -5,1 C 88 % 1013,6 hPa 0,0 l/m 0,0 km/h (0 Bft) W-NW 282 -6,8 C 0,0 km/h (0 Bft) 100 %
13.02.2018 23:29 -5,1 C 89 % 1013,7 hPa 0,0 l/m 0,0 km/h (0 Bft) W-NW 282 -6,6 C 0,0 km/h (0 Bft) 96 %
13.02.2018 23:32 -5,1 C 88 % 1013,7 hPa 0,0 l/m 0,0 km/h (0 Bft) W-NW 282 -6,8 C 0,0 km/h (0 Bft) 100 %
13.02.2018 23:33 -5,1 C 88 % 1013,7 hPa 0,0 l/m 0,0 km/h (0 Bft) W-NW 282 -6,8 C 0,0 km/h (0 Bft) 100 %
13.02.2018 23:34 -5,2 C 88 % 1013,7 hPa 0,0 l/m 0,0 km/h (0 Bft) W-NW 282 -6,9 C 0,0 km/h (0 Bft) 88 %
13.02.2018 23:35 -5,2 C 88 % 1013,7 hPa 0,0 l/m 0,0 km/h (0 Bft) W-NW 282 -6,9 C 0,0 km/h (0 Bft) 100 %
13.02.2018 23:36 -5,2 C 88 % 1013,7 hPa 0,0 l/m 0,0 km/h (0 Bft) W-NW 282 -6,9 C 0,0 km/h (0 Bft) 100 %
13.02.2018 23:37 -5,2 C 89 % 1013,7 hPa 0,0 l/m 0,0 km/h (0 Bft) W-NW 282 -6,7 C 0,0 km/h (0 Bft) 100 %
13.02.2018 23:38 -5,2 C 89 % 1013,7 hPa 0,0 l/m 0,0 km/h (0 Bft) W-NW 282 -6,7 C 0,0 km/h (0 Bft) 100 %
13.02.2018 23:39 -5,2 C 89 % 1013,7 hPa 0,0 l/m 0,0 km/h (0 Bft) W-NW 282 -6,7 C 0,0 km/h (0 Bft) 100 %
13.02.2018 23:40 -5,2 C 89 % 1013,7 hPa 0,0 l/m 0,0 km/h (0 Bft) W-NW 282 -6,7 C 0,0 km/h (0 Bft) 100 %
13.02.2018 23:41 -5,2 C 89 % 1013,7 hPa 0,0 l/m 0,0 km/h (0 Bft) W-NW 282 -6,7 C 0,0 km/h (0 Bft) 100 %
13.02.2018 23:42 -5,2 C 89 % 1013,7 hPa 0,0 l/m 0,0 km/h (0 Bft) W-NW 282 -6,7 C 0,0 km/h (0 Bft) 100 %
13.02.2018 23:43 -5,3 C 89 % 1013,8 hPa 0,0 l/m 0,0 km/h (0 Bft) W-NW 282 -6,8 C 0,0 km/h (0 Bft) 100 %
13.02.2018 23:44 -5,3 C 89 % 1013,7 hPa 0,0 l/m 0,0 km/h (0 Bft) W-NW 282 -6,8 C 0,0 km/h (0 Bft) 100 %
13.02.2018 23:45 -5,3 C 89 % 1013,7 hPa 0,0 l/m 0,0 km/h (0 Bft) W-NW 282 -6,8 C 0,0 km/h (0 Bft) 100 %
13.02.2018 23:46 -5,3 C 90 % 1013,7 hPa 0,0 l/m 0,0 km/h (0 Bft) W-NW 282 -6,7 C 0,0 km/h (0 Bft) 100 %
13.02.2018 23:47 -5,3 C 90 % 1013,7 hPa 0,0 l/m 0,0 km/h (0 Bft) W-NW 282 -6,7 C 0,0 km/h (0 Bft) 100 %
13.02.2018 23:48 -5,3 C 89 % 1013,8 hPa 0,0 l/m 0,0 km/h (0 Bft) W-NW 282 -6,8 C 0,0 km/h (0 Bft) 100 %
13.02.2018 23:49 -5,3 C 89 % 1013,7 hPa 0,0 l/m 0,0 km/h (0 Bft) W-NW 282 -6,8 C 0,0 km/h (0 Bft) 100 %
13.02.2018 23:50 -5,4 C 89 % 1013,7 hPa 0,0 l/m 0,0 km/h (0 Bft) W-NW 282 -6,9 C 0,0 km/h (0 Bft) 100 %
13.02.2018 23:51 -5,4 C 89 % 1013,7 hPa 0,0 l/m 0,0 km/h (0 Bft) W-NW 282 -6,9 C 0,0 km/h (0 Bft) 100 %
13.02.2018 23:52 -5,4 C 89 % 1013,7 hPa 0,0 l/m 0,0 km/h (0 Bft) W-NW 282 -6,9 C 0,0 km/h (0 Bft) 100 %
13.02.2018 23:53 -5,5 C 89 % 1013,7 hPa 0,0 l/m 0,0 km/h (0 Bft) W-NW 282 -7,0 C 0,0 km/h (0 Bft) 100 %
13.02.2018 23:54 -5,6 C 89 % 1013,7 hPa 0,0 l/m 0,0 km/h (0 Bft) W-NW 282 -7,1 C 0,0 km/h (0 Bft) 100 %
13.02.2018 23:55 -5,6 C 89 % 1013,7 hPa 0,0 l/m 0,0 km/h (0 Bft) W-NW 282 -7,1 C 0,0 km/h (0 Bft) 100 %
13.02.2018 23:56 -5,6 C 89 % 1013,8 hPa 0,0 l/m 0,0 km/h (0 Bft) W-NW 282 -7,1 C 0,0 km/h (0 Bft) 100 %
13.02.2018 23:57 -5,7 C 89 % 1013,7 hPa 0,0 l/m 0,0 km/h (0 Bft) W-NW 282 -7,2 C 0,0 km/h (0 Bft) 100 %
13.02.2018 23:58 -5,7 C 90 % 1013,7 hPa 0,0 l/m 0,0 km/h (0 Bft) W-NW 282 -7,1 C 0,0 km/h (0 Bft) 100 %
13.02.2018 23:59 -5,7 C 90 % 1013,8 hPa 0,0 l/m 0,0 km/h (0 Bft) W-NW 282 -7,1 C 0,0 km/h (0 Bft) 100 %
_ Min-Zeit 23:57 15:10 16:02 - 00:00 - - 23:57 00:00 15:22
Minimum _ -5,7 C 59 % 1012,3 hPa - 0,0 km/h (0 Bft) - - -7,2 C 0,0 km/h (0 Bft) 5 %
_ Max-Zeit 15:19 00:44 00:08 13:59 09:35 - - 13:26 09:42 00:00
Maximum _ 4,7 C 96 % 1015,9 hPa 0,2 l/m 11,1 km/h
S-SW (2 Bft)
- - -0,8 C 28,2 km/h
S-SW (4 Bft)
100 %
Durchschnitt _ -1,4 C 84 % 1014,3 hPa #0,8 l/m 1,1 km/h (0 Bft) SW - -3,8 C 3,4 km/h (1 Bft) 96 %